Wetterdaten: Freitag, 09.02.2024
Datum Zeit Temp. I. Temp. A. Feuchte I. Feuchte A. Luftdruck Regen Wind Richtung Richtung Sonnenschein Solar Taupunkt Windchill Windböen
09.02.2024 00:00 20,9 °C 1,9 °C 47 % 94 % 995,6 hPa 0,0 l/m² 5,9 km/h (2 Bft) O-NO 67 ° 0 min 0 W/m² 1,0 °C 1,9 °C 9,7 km/h (2 Bft)
09.02.2024 00:01 20,9 °C 1,9 °C 47 % 94 % 995,5 hPa 0,0 l/m² 7,4 km/h (2 Bft) O-NO 71 ° 0 min 0 W/m² 1,0 °C 0,9 °C 11,3 km/h (2 Bft)
09.02.2024 00:02 20,9 °C 1,9 °C 47 % 94 % 995,5 hPa 0,0 l/m² 6,0 km/h (2 Bft) O-NO 71 ° 0 min 0 W/m² 1,0 °C 1,9 °C 8,0 km/h (2 Bft)
09.02.2024 00:03 20,9 °C 1,9 °C 47 % 94 % 995,5 hPa 0,0 l/m² 5,0 km/h (1 Bft) O-NO 71 ° 0 min 0 W/m² 1,0 °C 1,9 °C 9,7 km/h (2 Bft)
09.02.2024 00:04 20,9 °C 1,9 °C 47 % 94 % 995,5 hPa 0,0 l/m² 6,8 km/h (2 Bft) NO 50 ° 0 min 0 W/m² 1,0 °C 1,5 °C 9,7 km/h (2 Bft)
09.02.2024 00:06 20,9 °C 1,9 °C 47 % 94 % 995,4 hPa 0,0 l/m² 7,2 km/h (2 Bft) O-NO 66 ° 0 min 0 W/m² 1,0 °C 1,1 °C 9,7 km/h (2 Bft)
09.02.2024 00:08 20,9 °C 1,9 °C 47 % 94 % 995,5 hPa 0,0 l/m² 7,9 km/h (2 Bft) O-NO 67 ° 0 min 0 W/m² 1,0 °C 0,4 °C 14,5 km/h (3 Bft)
09.02.2024 00:09 20,9 °C 1,9 °C 47 % 94 % 995,5 hPa 0,0 l/m² 6,2 km/h (2 Bft) O-NO 69 ° 0 min 0 W/m² 1,0 °C 1,9 °C 12,9 km/h (3 Bft)
09.02.2024 00:11 20,9 °C 1,9 °C 47 % 94 % 995,5 hPa 0,0 l/m² 7,6 km/h (2 Bft) O-NO 65 ° 0 min 0 W/m² 1,0 °C 0,7 °C 14,5 km/h (3 Bft)
09.02.2024 00:12 20,9 °C 1,9 °C 47 % 94 % 995,5 hPa 0,0 l/m² 7,0 km/h (2 Bft) O-NO 75 ° 0 min 0 W/m² 1,0 °C 1,3 °C 11,3 km/h (2 Bft)
09.02.2024 00:13 20,9 °C 1,9 °C 47 % 94 % 995,5 hPa 0,0 l/m² 7,6 km/h (2 Bft) O 82 ° 0 min 0 W/m² 1,0 °C 0,7 °C 12,9 km/h (3 Bft)
09.02.2024 00:15 20,9 °C 1,9 °C 47 % 94 % 995,5 hPa 0,0 l/m² 5,6 km/h (2 Bft) O-NO 68 ° 0 min 0 W/m² 1,0 °C 1,9 °C 8,0 km/h (2 Bft)
09.02.2024 00:17 20,9 °C 1,9 °C 47 % 94 % 995,4 hPa 0,0 l/m² 7,2 km/h (2 Bft) O-NO 65 ° 0 min 0 W/m² 1,0 °C 1,1 °C 12,9 km/h (3 Bft)
09.02.2024 00:19 20,9 °C 1,9 °C 47 % 94 % 995,5 hPa 0,0 l/m² 7,2 km/h (2 Bft) O-NO 74 ° 0 min 0 W/m² 1,0 °C 1,1 °C 12,9 km/h (3 Bft)
09.02.2024 00:20 20,9 °C 1,9 °C 47 % 94 % 995,4 hPa 0,0 l/m² 5,3 km/h (1 Bft) O-NO 62 ° 0 min 0 W/m² 1,0 °C 1,9 °C 8,0 km/h (2 Bft)
09.02.2024 00:22 20,9 °C 2,0 °C 47 % 94 % 995,4 hPa 0,0 l/m² 10,4 km/h (2 Bft) O-NO 65 ° 0 min 0 W/m² 1,1 °C -1,5 °C 16,1 km/h (3 Bft)
09.02.2024 00:23 20,9 °C 1,9 °C 47 % 94 % 995,3 hPa 0,0 l/m² 11,7 km/h (2 Bft) O-NO 71 ° 0 min 0 W/m² 1,0 °C -2,6 °C 16,1 km/h (3 Bft)
09.02.2024 00:24 20,9 °C 1,9 °C 47 % 94 % 995,3 hPa 0,0 l/m² 8,1 km/h (2 Bft) O-NO 74 ° 0 min 0 W/m² 1,0 °C 0,3 °C 14,5 km/h (3 Bft)
09.02.2024 00:26 20,9 °C 1,9 °C 47 % 94 % 995,3 hPa 0,0 l/m² 9,4 km/h (2 Bft) O-NO 64 ° 0 min 0 W/m² 1,0 °C -0,9 °C 14,5 km/h (3 Bft)
09.02.2024 00:28 20,9 °C 2,0 °C 47 % 94 % 995,2 hPa 0,0 l/m² 6,1 km/h (2 Bft) O-NO 70 ° 0 min 0 W/m² 1,1 °C 2,0 °C 12,9 km/h (3 Bft)
09.02.2024 00:29 20,9 °C 1,9 °C 47 % 94 % 995,3 hPa 0,0 l/m² 11,0 km/h (2 Bft) O-NO 67 ° 0 min 0 W/m² 1,0 °C -2,1 °C 14,5 km/h (3 Bft)
09.02.2024 00:30 20,9 °C 2,0 °C 47 % 94 % 995,3 hPa 0,0 l/m² 7,8 km/h (2 Bft) O 83 ° 0 min 0 W/m² 1,1 °C 0,6 °C 12,9 km/h (3 Bft)
09.02.2024 00:32 20,9 °C 1,9 °C 47 % 94 % 995,3 hPa 0,0 l/m² 4,3 km/h (1 Bft) O-NO 61 ° 0 min 0 W/m² 1,0 °C 1,9 °C 12,9 km/h (3 Bft)
09.02.2024 00:33 20,9 °C 2,0 °C 47 % 94 % 995,3 hPa 0,0 l/m² 7,0 km/h (2 Bft) O-NO 58 ° 0 min 0 W/m² 1,1 °C 1,4 °C 9,7 km/h (2 Bft)
09.02.2024 00:35 20,9 °C 2,0 °C 47 % 94 % 995,3 hPa 0,0 l/m² 7,9 km/h (2 Bft) O-NO 78 ° 0 min 0 W/m² 1,1 °C 0,5 °C 11,3 km/h (2 Bft)
09.02.2024 00:36 20,9 °C 1,9 °C 47 % 94 % 995,3 hPa 0,0 l/m² 7,7 km/h (2 Bft) O-NO 57 ° 0 min 0 W/m² 1,0 °C 0,6 °C 12,9 km/h (3 Bft)
09.02.2024 00:38 20,9 °C 2,0 °C 47 % 94 % 995,2 hPa 0,0 l/m² 8,4 km/h (2 Bft) O-NO 71 ° 0 min 0 W/m² 1,1 °C 0,1 °C 12,9 km/h (3 Bft)
09.02.2024 00:40 20,9 °C 2,0 °C 47 % 94 % 995,3 hPa 0,0 l/m² 5,0 km/h (1 Bft) O-NO 75 ° 0 min 0 W/m² 1,1 °C 2,0 °C 8,0 km/h (2 Bft)
09.02.2024 00:41 20,9 °C 2,0 °C 47 % 94 % 995,2 hPa 0,0 l/m² 7,7 km/h (2 Bft) O-NO 66 ° 0 min 0 W/m² 1,1 °C 0,7 °C 14,5 km/h (3 Bft)
09.02.2024 00:42 20,9 °C 2,0 °C 47 % 94 % 995,1 hPa 0,0 l/m² 7,3 km/h (2 Bft) O-NO 65 ° 0 min 0 W/m² 1,1 °C 1,1 °C 11,3 km/h (2 Bft)
09.02.2024 00:43 20,9 °C 2,0 °C 47 % 94 % 995,1 hPa 0,0 l/m² 7,7 km/h (2 Bft) O-NO 71 ° 0 min 0 W/m² 1,1 °C 0,7 °C 11,3 km/h (2 Bft)
09.02.2024 00:45 20,9 °C 2,0 °C 47 % 94 % 995,2 hPa 0,0 l/m² 7,7 km/h (2 Bft) O-NO 71 ° 0 min 0 W/m² 1,1 °C 0,7 °C 12,9 km/h (3 Bft)
09.02.2024 00:46 20,9 °C 2,0 °C 47 % 94 % 995,2 hPa 0,0 l/m² 7,4 km/h (2 Bft) O-NO 71 ° 0 min 0 W/m² 1,1 °C 1,0 °C 9,7 km/h (2 Bft)
09.02.2024 00:48 20,9 °C 2,0 °C 47 % 94 % 995,1 hPa 0,0 l/m² 6,0 km/h (2 Bft) O-NO 71 ° 0 min 0 W/m² 1,1 °C 2,0 °C 9,7 km/h (2 Bft)
09.02.2024 00:50 20,9 °C 2,0 °C 47 % 94 % 995,2 hPa 0,0 l/m² 6,7 km/h (2 Bft) O 84 ° 0 min 0 W/m² 1,1 °C 1,7 °C 11,3 km/h (2 Bft)
09.02.2024 00:51 20,9 °C 2,1 °C 47 % 94 % 995,2 hPa 0,0 l/m² 5,4 km/h (2 Bft) O 79 ° 0 min 0 W/m² 1,2 °C 2,1 °C 8,0 km/h (2 Bft)
09.02.2024 00:53 20,9 °C 2,0 °C 47 % 94 % 995,2 hPa 0,0 l/m² 5,6 km/h (2 Bft) O-NO 63 ° 0 min 0 W/m² 1,1 °C 2,0 °C 8,0 km/h (2 Bft)
09.02.2024 00:54 20,9 °C 2,1 °C 47 % 94 % 995,2 hPa 0,0 l/m² 5,8 km/h (2 Bft) O-NO 66 ° 0 min 0 W/m² 1,2 °C 2,1 °C 6,4 km/h (2 Bft)
09.02.2024 00:56 20,9 °C 2,1 °C 47 % 94 % 995,2 hPa 0,0 l/m² 7,2 km/h (2 Bft) O-NO 78 ° 0 min 0 W/m² 1,2 °C 1,3 °C 14,5 km/h (3 Bft)
09.02.2024 00:58 20,9 °C 2,1 °C 47 % 94 % 995,2 hPa 0,0 l/m² 7,5 km/h (2 Bft) O 79 ° 0 min 0 W/m² 1,2 °C 1,0 °C 12,9 km/h (3 Bft)
09.02.2024 01:00 20,9 °C 2,1 °C 47 % 94 % 995,2 hPa 0,0 l/m² 8,3 km/h (2 Bft) O 88 ° 0 min 0 W/m² 1,2 °C 0,3 °C 12,9 km/h (3 Bft)
09.02.2024 01:01 20,9 °C 2,1 °C 47 % 94 % 995,2 hPa 0,0 l/m² 9,2 km/h (2 Bft) O 81 ° 0 min 0 W/m² 1,2 °C -0,5 °C 12,9 km/h (3 Bft)
09.02.2024 01:03 20,9 °C 2,1 °C 47 % 94 % 995,2 hPa 0,0 l/m² 10,5 km/h (2 Bft) O-NO 72 ° 0 min 0 W/m² 1,2 °C -1,5 °C 14,5 km/h (3 Bft)
09.02.2024 01:04 20,9 °C 2,1 °C 47 % 94 % 995,1 hPa 0,0 l/m² 11,9 km/h (2 Bft) O-NO 75 ° 0 min 0 W/m² 1,2 °C -2,5 °C 14,5 km/h (3 Bft)
09.02.2024 01:06 20,9 °C 2,1 °C 47 % 94 % 995,0 hPa 0,2 l/m² 12,5 km/h (2 Bft) O-NO 69 ° 0 min 0 W/m² 1,2 °C -2,9 °C 17,7 km/h (3 Bft)
09.02.2024 01:08 20,9 °C 2,1 °C 47 % 94 % 995,0 hPa 0,0 l/m² 12,0 km/h (2 Bft) O-NO 74 ° 0 min 0 W/m² 1,2 °C -2,6 °C 16,1 km/h (3 Bft)
09.02.2024 01:10 20,9 °C 2,1 °C 47 % 94 % 995,0 hPa 0,0 l/m² 7,7 km/h (2 Bft) O-NO 74 ° 0 min 0 W/m² 1,2 °C 0,8 °C 14,5 km/h (3 Bft)
09.02.2024 01:11 20,9 °C 2,1 °C 47 % 94 % 994,9 hPa 0,0 l/m² 8,6 km/h (2 Bft) O-NO 76 ° 0 min 0 W/m² 1,2 °C 0,0 °C 12,9 km/h (3 Bft)
09.02.2024 01:13 20,9 °C 2,1 °C 47 % 94 % 994,9 hPa 0,0 l/m² 7,8 km/h (2 Bft) O 83 ° 0 min 0 W/m² 1,2 °C 0,7 °C 12,9 km/h (3 Bft)
09.02.2024 01:14 20,9 °C 2,1 °C 47 % 94 % 994,9 hPa 0,0 l/m² 6,6 km/h (2 Bft) O 83 ° 0 min 0 W/m² 1,2 °C 1,9 °C 8,0 km/h (2 Bft)
09.02.2024 01:16 20,9 °C 2,1 °C 47 % 94 % 995,1 hPa 0,0 l/m² 8,3 km/h (2 Bft) O-NO 76 ° 0 min 0 W/m² 1,2 °C 0,3 °C 12,9 km/h (3 Bft)
09.02.2024 01:18 20,9 °C 2,2 °C 47 % 94 % 995,0 hPa 0,0 l/m² 14,2 km/h (3 Bft) O 82 ° 0 min 0 W/m² 1,3 °C -3,9 °C 16,1 km/h (3 Bft)
09.02.2024 01:20 20,9 °C 2,2 °C 47 % 94 % 994,9 hPa 0,0 l/m² 7,8 km/h (2 Bft) O 80 ° 0 min 0 W/m² 1,3 °C 0,8 °C 16,1 km/h (3 Bft)
09.02.2024 01:21 20,9 °C 2,2 °C 47 % 94 % 995,0 hPa 0,0 l/m² 7,6 km/h (2 Bft) O 79 ° 0 min 0 W/m² 1,3 °C 1,0 °C 11,3 km/h (2 Bft)
09.02.2024 01:23 20,9 °C 2,2 °C 47 % 94 % 995,0 hPa 0,0 l/m² 11,1 km/h (2 Bft) O-NO 65 ° 0 min 0 W/m² 1,3 °C -1,8 °C 14,5 km/h (3 Bft)
09.02.2024 01:24 20,9 °C 2,2 °C 47 % 94 % 994,9 hPa 0,0 l/m² 10,1 km/h (2 Bft) O-NO 59 ° 0 min 0 W/m² 1,3 °C -1,1 °C 17,7 km/h (3 Bft)
09.02.2024 01:26 20,9 °C 2,2 °C 47 % 94 % 994,9 hPa 0,0 l/m² 10,0 km/h (2 Bft) O-NO 69 ° 0 min 0 W/m² 1,3 °C -1,0 °C 14,5 km/h (3 Bft)
09.02.2024 01:28 20,9 °C 2,2 °C 47 % 94 % 994,9 hPa 0,0 l/m² 9,4 km/h (2 Bft) O 90 ° 0 min 0 W/m² 1,3 °C -0,5 °C 12,9 km/h (3 Bft)
09.02.2024 01:30 20,9 °C 2,2 °C 47 % 94 % 994,9 hPa 0,0 l/m² 6,7 km/h (2 Bft) O-NO 78 ° 0 min 0 W/m² 1,3 °C 1,9 °C 9,7 km/h (2 Bft)
09.02.2024 01:31 20,9 °C 2,2 °C 47 % 94 % 994,8 hPa 0,0 l/m² 9,0 km/h (2 Bft) O-NO 74 ° 0 min 0 W/m² 1,3 °C -0,2 °C 12,9 km/h (3 Bft)
09.02.2024 01:33 20,9 °C 2,2 °C 47 % 94 % 994,8 hPa 0,0 l/m² 8,8 km/h (2 Bft) NO 54 ° 0 min 0 W/m² 1,3 °C -0,0 °C 12,9 km/h (3 Bft)
09.02.2024 01:34 20,9 °C 2,2 °C 47 % 94 % 994,9 hPa 0,0 l/m² 4,9 km/h (1 Bft) O-NO 63 ° 0 min 0 W/m² 1,3 °C 2,2 °C 6,4 km/h (2 Bft)
09.02.2024 01:36 20,9 °C 2,2 °C 47 % 94 % 994,9 hPa 0,0 l/m² 4,0 km/h (1 Bft) O-NO 68 ° 0 min 0 W/m² 1,3 °C 2,2 °C 8,0 km/h (2 Bft)
09.02.2024 01:38 20,9 °C 2,2 °C 47 % 94 % 994,9 hPa 0,0 l/m² 5,1 km/h (1 Bft) O-NO 67 ° 0 min 0 W/m² 1,3 °C 2,2 °C 8,0 km/h (2 Bft)
09.02.2024 01:40 20,9 °C 2,2 °C 47 % 94 % 994,8 hPa 0,0 l/m² 3,9 km/h (1 Bft) O-NO 67 ° 0 min 0 W/m² 1,3 °C 2,2 °C 6,4 km/h (2 Bft)
09.02.2024 01:41 20,9 °C 2,2 °C 47 % 94 % 994,8 hPa 0,0 l/m² 5,4 km/h (2 Bft) O-NO 69 ° 0 min 0 W/m² 1,3 °C 2,2 °C 6,4 km/h (2 Bft)
09.02.2024 01:43 20,9 °C 2,2 °C 47 % 94 % 994,8 hPa 0,0 l/m² 6,4 km/h (2 Bft) O 80 ° 0 min 0 W/m² 1,3 °C 2,2 °C 11,3 km/h (2 Bft)
09.02.2024 01:44 20,9 °C 2,2 °C 47 % 94 % 994,8 hPa 0,0 l/m² 4,5 km/h (1 Bft) O 79 ° 0 min 0 W/m² 1,3 °C 2,2 °C 6,4 km/h (2 Bft)
09.02.2024 01:46 20,9 °C 2,2 °C 47 % 94 % 994,8 hPa 0,0 l/m² 5,9 km/h (2 Bft) O 80 ° 0 min 0 W/m² 1,3 °C 2,2 °C 8,0 km/h (2 Bft)
09.02.2024 01:48 20,9 °C 2,2 °C 47 % 94 % 994,8 hPa 0,0 l/m² 5,1 km/h (1 Bft) O 80 ° 0 min 0 W/m² 1,3 °C 2,2 °C 6,4 km/h (2 Bft)
09.02.2024 01:50 20,9 °C 2,2 °C 47 % 94 % 994,8 hPa 0,0 l/m² 4,5 km/h (1 Bft) O 80 ° 0 min 0 W/m² 1,3 °C 2,2 °C 8,0 km/h (2 Bft)
09.02.2024 01:51 20,9 °C 2,2 °C 47 % 95 % 994,6 hPa 0,0 l/m² 4,9 km/h (1 Bft) O 80 ° 0 min 0 W/m² 1,5 °C 2,2 °C 8,0 km/h (2 Bft)
09.02.2024 01:53 20,9 °C 2,2 °C 47 % 94 % 994,6 hPa 0,0 l/m² 5,2 km/h (1 Bft) O 84 ° 0 min 0 W/m² 1,3 °C 2,2 °C 8,0 km/h (2 Bft)
09.02.2024 01:54 20,9 °C 2,3 °C 47 % 94 % 994,5 hPa 0,0 l/m² 6,9 km/h (2 Bft) O 83 ° 0 min 0 W/m² 1,4 °C 1,8 °C 12,9 km/h (3 Bft)
09.02.2024 01:56 20,9 °C 2,3 °C 47 % 95 % 994,5 hPa 0,0 l/m² 10,5 km/h (2 Bft) O 80 ° 0 min 0 W/m² 1,6 °C -1,3 °C 12,9 km/h (3 Bft)
09.02.2024 01:58 20,9 °C 2,3 °C 47 % 95 % 994,5 hPa 0,0 l/m² 8,0 km/h (2 Bft) O 87 ° 0 min 0 W/m² 1,6 °C 0,8 °C 11,3 km/h (2 Bft)
09.02.2024 02:00 20,9 °C 2,3 °C 47 % 95 % 994,5 hPa 0,0 l/m² 8,0 km/h (2 Bft) O 94 ° 0 min 0 W/m² 1,6 °C 0,8 °C 12,9 km/h (3 Bft)
09.02.2024 02:01 20,9 °C 2,3 °C 47 % 95 % 994,4 hPa 0,2 l/m² 8,3 km/h (2 Bft) O 88 ° 0 min 0 W/m² 1,6 °C 0,5 °C 12,9 km/h (3 Bft)
09.02.2024 02:03 20,9 °C 2,3 °C 47 % 95 % 994,4 hPa 0,0 l/m² 8,4 km/h (2 Bft) O 86 ° 0 min 0 W/m² 1,6 °C 0,4 °C 11,3 km/h (2 Bft)
09.02.2024 02:04 20,9 °C 2,3 °C 47 % 95 % 994,3 hPa 0,0 l/m² 10,8 km/h (2 Bft) O 88 ° 0 min 0 W/m² 1,6 °C -1,5 °C 14,5 km/h (3 Bft)
09.02.2024 02:06 20,9 °C 2,3 °C 47 % 95 % 994,3 hPa 0,0 l/m² 9,2 km/h (2 Bft) O 92 ° 0 min 0 W/m² 1,6 °C -0,3 °C 11,3 km/h (2 Bft)
09.02.2024 02:08 20,8 °C 2,3 °C 47 % 95 % 994,3 hPa 0,0 l/m² 8,3 km/h (2 Bft) O 98 ° 0 min 0 W/m² 1,6 °C 0,5 °C 11,3 km/h (2 Bft)
09.02.2024 02:10 20,9 °C 2,3 °C 47 % 94 % 994,2 hPa 0,0 l/m² 9,9 km/h (2 Bft) O 101 ° 0 min 0 W/m² 1,4 °C -0,8 °C 11,3 km/h (2 Bft)
09.02.2024 02:11 20,9 °C 2,3 °C 47 % 95 % 994,4 hPa 0,0 l/m² 7,5 km/h (2 Bft) O 101 ° 0 min 0 W/m² 1,6 °C 1,2 °C 9,7 km/h (2 Bft)
09.02.2024 02:13 20,9 °C 2,3 °C 47 % 94 % 994,3 hPa 0,0 l/m² 6,7 km/h (2 Bft) O 96 ° 0 min 0 W/m² 1,4 °C 2,0 °C 9,7 km/h (2 Bft)
09.02.2024 02:14 20,9 °C 2,3 °C 47 % 94 % 994,3 hPa 0,0 l/m² 9,4 km/h (2 Bft) O 91 ° 0 min 0 W/m² 1,4 °C -0,4 °C 12,9 km/h (3 Bft)
09.02.2024 02:16 20,9 °C 2,4 °C 47 % 94 % 994,2 hPa 0,0 l/m² 10,5 km/h (2 Bft) O 88 ° 0 min 0 W/m² 1,5 °C -1,2 °C 12,9 km/h (3 Bft)
09.02.2024 02:18 20,9 °C 2,3 °C 47 % 94 % 994,3 hPa 0,0 l/m² 8,1 km/h (2 Bft) O 87 ° 0 min 0 W/m² 1,4 °C 0,7 °C 12,9 km/h (3 Bft)
09.02.2024 02:20 20,8 °C 2,3 °C 47 % 94 % 994,3 hPa 0,0 l/m² 7,5 km/h (2 Bft) O 86 ° 0 min 0 W/m² 1,4 °C 1,2 °C 14,5 km/h (3 Bft)
09.02.2024 02:21 20,9 °C 2,3 °C 47 % 94 % 994,3 hPa 0,0 l/m² 9,7 km/h (2 Bft) O 86 ° 0 min 0 W/m² 1,4 °C -0,7 °C 12,9 km/h (3 Bft)
09.02.2024 02:23 20,8 °C 2,3 °C 47 % 94 % 994,3 hPa 0,0 l/m² 8,4 km/h (2 Bft) O 89 ° 0 min 0 W/m² 1,4 °C 0,4 °C 12,9 km/h (3 Bft)
09.02.2024 02:24 20,9 °C 2,3 °C 47 % 94 % 994,2 hPa 0,0 l/m² 7,8 km/h (2 Bft) O 88 ° 0 min 0 W/m² 1,4 °C 1,0 °C 11,3 km/h (2 Bft)
09.02.2024 02:26 20,9 °C 2,3 °C 47 % 94 % 994,2 hPa 0,0 l/m² 7,3 km/h (2 Bft) O 91 ° 0 min 0 W/m² 1,4 °C 1,4 °C 11,3 km/h (2 Bft)
09.02.2024 02:28 20,9 °C 2,3 °C 47 % 95 % 994,1 hPa 0,0 l/m² 6,4 km/h (2 Bft) O 91 ° 0 min 0 W/m² 1,6 °C 2,3 °C 9,7 km/h (2 Bft)
09.02.2024 02:30 20,9 °C 2,4 °C 47 % 94 % 994,2 hPa 0,0 l/m² 7,9 km/h (2 Bft) O 94 ° 0 min 0 W/m² 1,5 °C 1,0 °C 11,3 km/h (2 Bft)
09.02.2024 02:31 20,8 °C 2,4 °C 47 % 94 % 994,1 hPa 0,0 l/m² 6,6 km/h (2 Bft) O 90 ° 0 min 0 W/m² 1,5 °C 2,2 °C 11,3 km/h (2 Bft)
09.02.2024 02:33 20,9 °C 2,4 °C 47 % 94 % 994,0 hPa 0,0 l/m² 7,5 km/h (2 Bft) O 86 ° 0 min 0 W/m² 1,5 °C 1,3 °C 11,3 km/h (2 Bft)
09.02.2024 02:34 20,8 °C 2,4 °C 47 % 94 % 993,9 hPa 0,0 l/m² 8,5 km/h (2 Bft) O 85 ° 0 min 0 W/m² 1,5 °C 0,4 °C 11,3 km/h (2 Bft)
09.02.2024 02:36 20,8 °C 2,4 °C 47 % 95 % 994,1 hPa 0,0 l/m² 5,8 km/h (2 Bft) O 86 ° 0 min 0 W/m² 1,7 °C 2,4 °C 11,3 km/h (2 Bft)
09.02.2024 02:38 20,9 °C 2,4 °C 47 % 94 % 994,2 hPa 0,0 l/m² 4,6 km/h (1 Bft) O 85 ° 0 min 0 W/m² 1,5 °C 2,4 °C 6,4 km/h (2 Bft)
09.02.2024 02:40 20,9 °C 2,4 °C 47 % 94 % 994,0 hPa 0,0 l/m² 5,7 km/h (2 Bft) O 85 ° 0 min 0 W/m² 1,5 °C 2,4 °C 8,0 km/h (2 Bft)
09.02.2024 02:41 20,9 °C 2,4 °C 47 % 94 % 993,9 hPa 0,0 l/m² 6,4 km/h (2 Bft) O 84 ° 0 min 0 W/m² 1,5 °C 2,4 °C 8,0 km/h (2 Bft)
09.02.2024 02:43 20,9 °C 2,4 °C 47 % 94 % 993,8 hPa 0,0 l/m² 6,9 km/h (2 Bft) O 82 ° 0 min 0 W/m² 1,5 °C 1,9 °C 11,3 km/h (2 Bft)
09.02.2024 02:44 20,9 °C 2,4 °C 47 % 95 % 993,8 hPa 0,2 l/m² 8,0 km/h (2 Bft) O 80 ° 0 min 0 W/m² 1,7 °C 0,9 °C 11,3 km/h (2 Bft)
09.02.2024 02:46 20,8 °C 2,4 °C 47 % 95 % 993,7 hPa 0,0 l/m² 6,9 km/h (2 Bft) O 80 ° 0 min 0 W/m² 1,7 °C 1,9 °C 12,9 km/h (3 Bft)
09.02.2024 02:48 20,8 °C 2,4 °C 47 % 95 % 993,7 hPa 0,0 l/m² 7,8 km/h (2 Bft) O 86 ° 0 min 0 W/m² 1,7 °C 1,1 °C 11,3 km/h (2 Bft)
09.02.2024 02:50 20,9 °C 2,4 °C 47 % 95 % 993,6 hPa 0,0 l/m² 7,7 km/h (2 Bft) O 88 ° 0 min 0 W/m² 1,7 °C 1,1 °C 11,3 km/h (2 Bft)
09.02.2024 02:51 20,9 °C 2,4 °C 47 % 95 % 993,6 hPa 0,0 l/m² 6,9 km/h (2 Bft) O 88 ° 0 min 0 W/m² 1,7 °C 1,9 °C 11,3 km/h (2 Bft)
09.02.2024 02:53 20,9 °C 2,5 °C 47 % 95 % 993,5 hPa 0,0 l/m² 9,3 km/h (2 Bft) O 82 ° 0 min 0 W/m² 1,8 °C -0,1 °C 12,9 km/h (3 Bft)
09.02.2024 02:54 20,9 °C 2,5 °C 47 % 95 % 993,5 hPa 0,0 l/m² 7,5 km/h (2 Bft) O 83 ° 0 min 0 W/m² 1,8 °C 1,4 °C 11,3 km/h (2 Bft)
09.02.2024 02:56 20,9 °C 2,5 °C 47 % 95 % 993,5 hPa 0,0 l/m² 8,6 km/h (2 Bft) O 79 ° 0 min 0 W/m² 1,8 °C 0,4 °C 12,9 km/h (3 Bft)
09.02.2024 02:58 20,8 °C 2,5 °C 47 % 95 % 993,4 hPa 0,0 l/m² 8,1 km/h (2 Bft) O 85 ° 0 min 0 W/m² 1,8 °C 0,9 °C 12,9 km/h (3 Bft)
09.02.2024 03:00 20,9 °C 2,5 °C 47 % 95 % 993,4 hPa 0,0 l/m² 8,2 km/h (2 Bft) O 85 ° 0 min 0 W/m² 1,8 °C 0,8 °C 11,3 km/h (2 Bft)
09.02.2024 03:01 20,9 °C 2,5 °C 47 % 95 % 993,5 hPa 0,0 l/m² 8,0 km/h (2 Bft) O 90 ° 0 min 0 W/m² 1,8 °C 1,0 °C 11,3 km/h (2 Bft)
09.02.2024 03:09 20,9 °C 2,6 °C 47 % 95 % 993,4 hPa 0,0 l/m² 5,2 km/h (1 Bft) O 87 ° 0 min 0 W/m² 1,9 °C 2,6 °C 6,4 km/h (2 Bft)
09.02.2024 03:11 20,9 °C 2,6 °C 47 % 95 % 993,4 hPa 0,0 l/m² 6,4 km/h (2 Bft) O 87 ° 0 min 0 W/m² 1,9 °C 2,6 °C 11,3 km/h (2 Bft)
09.02.2024 03:12 20,9 °C 2,6 °C 47 % 95 % 993,4 hPa 0,0 l/m² 8,4 km/h (2 Bft) O 85 ° 0 min 0 W/m² 1,9 °C 0,7 °C 11,3 km/h (2 Bft)
09.02.2024 03:14 20,9 °C 2,6 °C 47 % 95 % 993,4 hPa 0,0 l/m² 4,6 km/h (1 Bft) O 85 ° 0 min 0 W/m² 1,9 °C 2,6 °C 6,4 km/h (2 Bft)
09.02.2024 03:15 20,9 °C 2,6 °C 47 % 95 % 993,4 hPa 0,0 l/m² 4,4 km/h (1 Bft) O 85 ° 0 min 0 W/m² 1,9 °C 2,6 °C 8,0 km/h (2 Bft)
09.02.2024 03:17 20,9 °C 2,6 °C 47 % 95 % 993,4 hPa 0,0 l/m² 5,9 km/h (2 Bft) O 85 ° 0 min 0 W/m² 1,9 °C 2,6 °C 8,0 km/h (2 Bft)
09.02.2024 03:19 20,9 °C 2,6 °C 47 % 95 % 993,3 hPa 0,0 l/m² 7,3 km/h (2 Bft) O 83 ° 0 min 0 W/m² 1,9 °C 1,7 °C 12,9 km/h (3 Bft)
09.02.2024 03:20 20,9 °C 2,6 °C 47 % 95 % 993,4 hPa 0,0 l/m² 6,7 km/h (2 Bft) O 83 ° 0 min 0 W/m² 1,9 °C 2,3 °C 8,0 km/h (2 Bft)
09.02.2024 03:22 20,9 °C 2,7 °C 47 % 95 % 993,3 hPa 0,0 l/m² 5,3 km/h (1 Bft) O 83 ° 0 min 0 W/m² 2,0 °C 2,7 °C 6,4 km/h (2 Bft)
09.02.2024 03:23 20,8 °C 2,7 °C 47 % 95 % 993,3 hPa 0,0 l/m² 6,6 km/h (2 Bft) O 83 ° 0 min 0 W/m² 2,0 °C 2,5 °C 8,0 km/h (2 Bft)
09.02.2024 03:25 20,9 °C 2,7 °C 47 % 95 % 993,3 hPa 0,0 l/m² 4,6 km/h (1 Bft) O 83 ° 0 min 0 W/m² 2,0 °C 2,7 °C 6,4 km/h (2 Bft)
09.02.2024 03:27 20,9 °C 2,7 °C 47 % 95 % 993,3 hPa 0,0 l/m² 5,1 km/h (1 Bft) O 83 ° 0 min 0 W/m² 2,0 °C 2,7 °C 8,0 km/h (2 Bft)
09.02.2024 03:29 20,9 °C 2,7 °C 47 % 95 % 993,3 hPa 0,0 l/m² 4,6 km/h (1 Bft) O 83 ° 0 min 0 W/m² 2,0 °C 2,7 °C 6,4 km/h (2 Bft)
09.02.2024 03:30 20,9 °C 2,7 °C 47 % 95 % 993,3 hPa 0,0 l/m² 5,1 km/h (1 Bft) O 83 ° 0 min 0 W/m² 2,0 °C 2,7 °C 6,4 km/h (2 Bft)
09.02.2024 03:32 20,9 °C 2,7 °C 47 % 95 % 993,2 hPa 0,0 l/m² 6,0 km/h (2 Bft) O 83 ° 0 min 0 W/m² 2,0 °C 2,7 °C 8,0 km/h (2 Bft)
09.02.2024 03:33 20,9 °C 2,7 °C 47 % 95 % 993,2 hPa 0,0 l/m² 4,9 km/h (1 Bft) O 83 ° 0 min 0 W/m² 2,0 °C 2,7 °C 6,4 km/h (2 Bft)
09.02.2024 03:35 20,9 °C 2,7 °C 47 % 95 % 993,2 hPa 0,0 l/m² 6,7 km/h (2 Bft) O 80 ° 0 min 0 W/m² 2,0 °C 2,4 °C 11,3 km/h (2 Bft)
09.02.2024 03:37 20,9 °C 2,7 °C 47 % 95 % 993,1 hPa 0,2 l/m² 6,4 km/h (2 Bft) O 79 ° 0 min 0 W/m² 2,0 °C 2,7 °C 8,0 km/h (2 Bft)
09.02.2024 03:39 20,9 °C 2,7 °C 47 % 95 % 993,2 hPa 0,0 l/m² 8,4 km/h (2 Bft) O 79 ° 0 min 0 W/m² 2,0 °C 0,8 °C 12,9 km/h (3 Bft)
09.02.2024 03:40 20,9 °C 2,7 °C 47 % 95 % 993,1 hPa 0,0 l/m² 5,7 km/h (2 Bft) O 80 ° 0 min 0 W/m² 2,0 °C 2,7 °C 8,0 km/h (2 Bft)
09.02.2024 03:42 20,9 °C 2,7 °C 47 % 95 % 993,0 hPa 0,0 l/m² 5,7 km/h (2 Bft) O 80 ° 0 min 0 W/m² 2,0 °C 2,7 °C 8,0 km/h (2 Bft)
09.02.2024 03:43 20,9 °C 2,7 °C 47 % 95 % 993,1 hPa 0,0 l/m² 5,2 km/h (1 Bft) O 80 ° 0 min 0 W/m² 2,0 °C 2,7 °C 6,4 km/h (2 Bft)
09.02.2024 03:45 20,9 °C 2,7 °C 47 % 95 % 993,0 hPa 0,0 l/m² 6,7 km/h (2 Bft) O 80 ° 0 min 0 W/m² 2,0 °C 2,4 °C 11,3 km/h (2 Bft)
09.02.2024 03:46 20,9 °C 2,7 °C 47 % 95 % 993,0 hPa 0,0 l/m² 5,9 km/h (2 Bft) O 80 ° 0 min 0 W/m² 2,0 °C 2,7 °C 8,0 km/h (2 Bft)
09.02.2024 03:47 20,9 °C 2,8 °C 47 % 95 % 993,0 hPa 0,0 l/m² 4,9 km/h (1 Bft) O 80 ° 0 min 0 W/m² 2,1 °C 2,8 °C 6,4 km/h (2 Bft)
09.02.2024 03:49 20,9 °C 2,8 °C 47 % 95 % 993,0 hPa 0,0 l/m² 6,1 km/h (2 Bft) O 80 ° 0 min 0 W/m² 2,1 °C 2,8 °C 8,0 km/h (2 Bft)
09.02.2024 03:51 20,9 °C 2,8 °C 47 % 95 % 992,9 hPa 0,0 l/m² 5,8 km/h (2 Bft) O 81 ° 0 min 0 W/m² 2,1 °C 2,8 °C 8,0 km/h (2 Bft)
09.02.2024 03:52 20,9 °C 2,8 °C 47 % 95 % 992,9 hPa 0,0 l/m² 6,3 km/h (2 Bft) O 85 ° 0 min 0 W/m² 2,1 °C 2,8 °C 8,0 km/h (2 Bft)
09.02.2024 03:53 20,9 °C 2,8 °C 47 % 95 % 993,0 hPa 0,0 l/m² 6,6 km/h (2 Bft) O 84 ° 0 min 0 W/m² 2,1 °C 2,6 °C 11,3 km/h (2 Bft)
09.02.2024 03:55 20,9 °C 2,8 °C 47 % 95 % 993,0 hPa 0,0 l/m² 7,2 km/h (2 Bft) O 80 ° 0 min 0 W/m² 2,1 °C 2,0 °C 12,9 km/h (3 Bft)
09.02.2024 03:57 20,9 °C 2,8 °C 47 % 95 % 993,0 hPa 0,2 l/m² 6,0 km/h (2 Bft) O 80 ° 0 min 0 W/m² 2,1 °C 2,8 °C 8,0 km/h (2 Bft)
09.02.2024 03:59 20,9 °C 2,8 °C 47 % 95 % 992,9 hPa 0,0 l/m² 6,3 km/h (2 Bft) O 80 ° 0 min 0 W/m² 2,1 °C 2,8 °C 8,0 km/h (2 Bft)
09.02.2024 04:00 20,9 °C 2,8 °C 47 % 95 % 992,9 hPa 0,0 l/m² 4,5 km/h (1 Bft) O 80 ° 0 min 0 W/m² 2,1 °C 2,8 °C 6,4 km/h (2 Bft)
09.02.2024 04:02 20,9 °C 2,8 °C 47 % 95 % 993,0 hPa 0,0 l/m² 6,4 km/h (2 Bft) O 81 ° 0 min 0 W/m² 2,1 °C 2,8 °C 11,3 km/h (2 Bft)
09.02.2024 04:03 20,9 °C 2,8 °C 47 % 95 % 993,0 hPa 0,0 l/m² 4,2 km/h (1 Bft) O 81 ° 0 min 0 W/m² 2,1 °C 2,8 °C 4,8 km/h (1 Bft)
09.02.2024 04:05 20,9 °C 2,8 °C 47 % 95 % 993,0 hPa 0,0 l/m² 4,1 km/h (1 Bft) O 81 ° 0 min 0 W/m² 2,1 °C 2,8 °C 4,8 km/h (1 Bft)
09.02.2024 04:07 20,9 °C 2,8 °C 47 % 95 % 992,9 hPa 0,0 l/m² 4,3 km/h (1 Bft) O 81 ° 0 min 0 W/m² 2,1 °C 2,8 °C 8,0 km/h (2 Bft)
09.02.2024 04:08 20,9 °C 2,8 °C 47 % 95 % 992,8 hPa 0,0 l/m² 6,0 km/h (2 Bft) O 81 ° 0 min 0 W/m² 2,1 °C 2,8 °C 8,0 km/h (2 Bft)
09.02.2024 04:10 20,9 °C 2,8 °C 47 % 95 % 992,8 hPa 0,2 l/m² 6,8 km/h (2 Bft) O 81 ° 0 min 0 W/m² 2,1 °C 2,4 °C 8,0 km/h (2 Bft)
09.02.2024 04:11 20,9 °C 2,8 °C 47 % 95 % 992,8 hPa 0,0 l/m² 6,6 km/h (2 Bft) O 81 ° 0 min 0 W/m² 2,1 °C 2,6 °C 8,0 km/h (2 Bft)
09.02.2024 04:12 20,9 °C 2,9 °C 47 % 95 % 992,8 hPa 0,0 l/m² 5,7 km/h (2 Bft) O 81 ° 0 min 0 W/m² 2,2 °C 2,9 °C 6,4 km/h (2 Bft)
09.02.2024 04:14 20,9 °C 2,8 °C 47 % 95 % 992,8 hPa 0,0 l/m² 6,7 km/h (2 Bft) O 81 ° 0 min 0 W/m² 2,1 °C 2,5 °C 8,0 km/h (2 Bft)
09.02.2024 04:15 20,9 °C 2,8 °C 47 % 95 % 992,8 hPa 0,0 l/m² 4,6 km/h (1 Bft) O 81 ° 0 min 0 W/m² 2,1 °C 2,8 °C 6,4 km/h (2 Bft)
09.02.2024 04:17 20,9 °C 2,8 °C 47 % 95 % 992,7 hPa 0,0 l/m² 6,4 km/h (2 Bft) O 81 ° 0 min 0 W/m² 2,1 °C 2,8 °C 11,3 km/h (2 Bft)
09.02.2024 04:19 20,9 °C 2,9 °C 47 % 95 % 992,7 hPa 0,0 l/m² 6,2 km/h (2 Bft) O 81 ° 0 min 0 W/m² 2,2 °C 2,9 °C 8,0 km/h (2 Bft)
09.02.2024 04:20 20,9 °C 2,8 °C 47 % 95 % 992,6 hPa 0,2 l/m² 7,0 km/h (2 Bft) O 81 ° 0 min 0 W/m² 2,1 °C 2,2 °C 8,0 km/h (2 Bft)
09.02.2024 04:22 20,9 °C 2,9 °C 47 % 95 % 992,5 hPa 0,0 l/m² 6,4 km/h (2 Bft) O 80 ° 0 min 0 W/m² 2,2 °C 2,9 °C 8,0 km/h (2 Bft)
09.02.2024 04:23 20,9 °C 2,9 °C 47 % 95 % 992,5 hPa 0,0 l/m² 5,5 km/h (2 Bft) O 80 ° 0 min 0 W/m² 2,2 °C 2,9 °C 6,4 km/h (2 Bft)
09.02.2024 04:25 20,9 °C 2,9 °C 47 % 95 % 992,6 hPa 0,0 l/m² 5,0 km/h (1 Bft) O 80 ° 0 min 0 W/m² 2,2 °C 2,9 °C 8,0 km/h (2 Bft)
09.02.2024 04:27 20,9 °C 2,8 °C 47 % 95 % 992,5 hPa 0,0 l/m² 5,4 km/h (2 Bft) O 80 ° 0 min 0 W/m² 2,1 °C 2,8 °C 8,0 km/h (2 Bft)
09.02.2024 04:29 20,9 °C 2,9 °C 47 % 95 % 992,5 hPa 0,0 l/m² 4,0 km/h (1 Bft) O 80 ° 0 min 0 W/m² 2,2 °C 2,9 °C 6,4 km/h (2 Bft)
09.02.2024 04:31 20,9 °C 2,9 °C 47 % 95 % 992,5 hPa 0,0 l/m² 4,6 km/h (1 Bft) O 80 ° 0 min 0 W/m² 2,2 °C 2,9 °C 8,0 km/h (2 Bft)
09.02.2024 04:32 20,9 °C 2,9 °C 47 % 95 % 992,4 hPa 0,2 l/m² 5,0 km/h (1 Bft) O 80 ° 0 min 0 W/m² 2,2 °C 2,9 °C 8,0 km/h (2 Bft)
09.02.2024 04:33 20,9 °C 2,9 °C 47 % 95 % 992,4 hPa 0,0 l/m² 3,8 km/h (1 Bft) O 80 ° 0 min 0 W/m² 2,2 °C 2,9 °C 6,4 km/h (2 Bft)
09.02.2024 04:35 20,9 °C 2,9 °C 47 % 95 % 992,3 hPa 0,0 l/m² 4,6 km/h (1 Bft) O 79 ° 0 min 0 W/m² 2,2 °C 2,9 °C 8,0 km/h (2 Bft)
09.02.2024 04:37 20,9 °C 2,9 °C 47 % 95 % 992,2 hPa 0,0 l/m² 4,7 km/h (1 Bft) O 79 ° 0 min 0 W/m² 2,2 °C 2,9 °C 8,0 km/h (2 Bft)
09.02.2024 04:39 20,9 °C 2,9 °C 47 % 95 % 992,2 hPa 0,0 l/m² 4,9 km/h (1 Bft) O-NO 69 ° 0 min 0 W/m² 2,2 °C 2,9 °C 8,0 km/h (2 Bft)
09.02.2024 04:41 20,9 °C 2,9 °C 47 % 95 % 992,1 hPa 0,2 l/m² 4,5 km/h (1 Bft) O-NO 69 ° 0 min 0 W/m² 2,2 °C 2,9 °C 6,4 km/h (2 Bft)
09.02.2024 04:42 20,9 °C 2,9 °C 47 % 95 % 992,1 hPa 0,0 l/m² 4,5 km/h (1 Bft) O-NO 69 ° 0 min 0 W/m² 2,2 °C 2,9 °C 6,4 km/h (2 Bft)
09.02.2024 04:43 20,9 °C 2,9 °C 47 % 95 % 992,1 hPa 0,0 l/m² 5,4 km/h (2 Bft) O-NO 69 ° 0 min 0 W/m² 2,2 °C 2,9 °C 6,4 km/h (2 Bft)
09.02.2024 04:44 20,9 °C 2,9 °C 47 % 95 % 992,1 hPa 0,0 l/m² 6,4 km/h (2 Bft) O-NO 69 ° 0 min 0 W/m² 2,2 °C 2,9 °C 8,0 km/h (2 Bft)
09.02.2024 04:46 20,9 °C 2,9 °C 47 % 95 % 992,0 hPa 0,0 l/m² 5,5 km/h (2 Bft) O-NO 69 ° 0 min 0 W/m² 2,2 °C 2,9 °C 9,7 km/h (2 Bft)
09.02.2024 04:48 20,9 °C 2,9 °C 47 % 95 % 992,0 hPa 0,0 l/m² 6,6 km/h (2 Bft) O-NO 69 ° 0 min 0 W/m² 2,2 °C 2,7 °C 8,0 km/h (2 Bft)
09.02.2024 04:50 20,9 °C 2,9 °C 47 % 95 % 992,0 hPa 0,0 l/m² 6,6 km/h (2 Bft) O-NO 69 ° 0 min 0 W/m² 2,2 °C 2,7 °C 9,7 km/h (2 Bft)
09.02.2024 04:51 20,9 °C 2,9 °C 47 % 95 % 991,9 hPa 0,0 l/m² 5,9 km/h (2 Bft) O-NO 70 ° 0 min 0 W/m² 2,2 °C 2,9 °C 8,0 km/h (2 Bft)
09.02.2024 04:52 20,9 °C 2,9 °C 47 % 95 % 991,9 hPa 0,0 l/m² 7,4 km/h (2 Bft) O-NO 70 ° 0 min 0 W/m² 2,2 °C 1,9 °C 9,7 km/h (2 Bft)
09.02.2024 04:54 20,9 °C 2,9 °C 47 % 95 % 991,9 hPa 0,0 l/m² 6,0 km/h (2 Bft) O-NO 70 ° 0 min 0 W/m² 2,2 °C 2,9 °C 8,0 km/h (2 Bft)
09.02.2024 04:56 20,9 °C 2,9 °C 47 % 95 % 991,9 hPa 0,0 l/m² 5,9 km/h (2 Bft) O-NO 70 ° 0 min 0 W/m² 2,2 °C 2,9 °C 8,0 km/h (2 Bft)
09.02.2024 04:58 20,9 °C 2,9 °C 47 % 95 % 991,9 hPa 0,2 l/m² 4,7 km/h (1 Bft) O-NO 70 ° 0 min 0 W/m² 2,2 °C 2,9 °C 6,4 km/h (2 Bft)
09.02.2024 05:00 20,9 °C 2,9 °C 47 % 95 % 991,9 hPa 0,0 l/m² 4,0 km/h (1 Bft) O-NO 70 ° 0 min 0 W/m² 2,2 °C 2,9 °C 6,4 km/h (2 Bft)
09.02.2024 05:01 20,9 °C 2,9 °C 47 % 95 % 991,9 hPa 0,0 l/m² 6,7 km/h (2 Bft) O-NO 70 ° 0 min 0 W/m² 2,2 °C 2,6 °C 8,0 km/h (2 Bft)
09.02.2024 05:03 20,9 °C 2,9 °C 47 % 95 % 991,7 hPa 0,0 l/m² 5,5 km/h (2 Bft) O-NO 70 ° 0 min 0 W/m² 2,2 °C 2,9 °C 8,0 km/h (2 Bft)
09.02.2024 05:04 20,9 °C 3,0 °C 47 % 95 % 991,7 hPa 0,0 l/m² 5,4 km/h (2 Bft) O-NO 70 ° 0 min 0 W/m² 2,3 °C 3,0 °C 8,0 km/h (2 Bft)
09.02.2024 05:06 20,9 °C 3,0 °C 47 % 95 % 991,7 hPa 0,0 l/m² 5,5 km/h (2 Bft) O-NO 70 ° 0 min 0 W/m² 2,3 °C 3,0 °C 8,0 km/h (2 Bft)
09.02.2024 05:08 20,9 °C 3,0 °C 47 % 95 % 991,7 hPa 0,0 l/m² 4,1 km/h (1 Bft) O-NO 70 ° 0 min 0 W/m² 2,3 °C 3,0 °C 6,4 km/h (2 Bft)
09.02.2024 05:10 20,9 °C 3,0 °C 47 % 95 % 991,6 hPa 0,0 l/m² 4,7 km/h (1 Bft) O-NO 70 ° 0 min 0 W/m² 2,3 °C 3,0 °C 8,0 km/h (2 Bft)
09.02.2024 05:11 20,9 °C 3,0 °C 47 % 95 % 991,6 hPa 0,0 l/m² 4,8 km/h (1 Bft) O-NO 70 ° 0 min 0 W/m² 2,3 °C 3,0 °C 6,4 km/h (2 Bft)
09.02.2024 05:13 20,9 °C 3,0 °C 47 % 95 % 991,6 hPa 0,0 l/m² 4,1 km/h (1 Bft) O-NO 70 ° 0 min 0 W/m² 2,3 °C 3,0 °C 8,0 km/h (2 Bft)
09.02.2024 05:14 20,9 °C 3,0 °C 47 % 95 % 991,6 hPa 0,0 l/m² 4,1 km/h (1 Bft) O-NO 70 ° 0 min 0 W/m² 2,3 °C 3,0 °C 4,8 km/h (1 Bft)
09.02.2024 05:16 20,9 °C 3,1 °C 47 % 95 % 991,5 hPa 0,0 l/m² 3,8 km/h (1 Bft) O-NO 70 ° 0 min 0 W/m² 2,4 °C 3,1 °C 8,0 km/h (2 Bft)
09.02.2024 05:18 20,9 °C 3,1 °C 47 % 95 % 991,5 hPa 0,2 l/m² 5,1 km/h (1 Bft) O-NO 70 ° 0 min 0 W/m² 2,4 °C 3,1 °C 8,0 km/h (2 Bft)
09.02.2024 05:20 20,9 °C 3,1 °C 47 % 95 % 991,4 hPa 0,0 l/m² 4,8 km/h (1 Bft) O-NO 70 ° 0 min 0 W/m² 2,4 °C 3,1 °C 6,4 km/h (2 Bft)
09.02.2024 05:21 20,9 °C 3,1 °C 47 % 95 % 991,4 hPa 0,0 l/m² 4,3 km/h (1 Bft) O-NO 70 ° 0 min 0 W/m² 2,4 °C 3,1 °C 8,0 km/h (2 Bft)
09.02.2024 05:23 20,9 °C 3,1 °C 47 % 95 % 991,4 hPa 0,0 l/m² 4,6 km/h (1 Bft) O-NO 70 ° 0 min 0 W/m² 2,4 °C 3,1 °C 8,0 km/h (2 Bft)
09.02.2024 05:24 20,9 °C 3,1 °C 47 % 95 % 991,4 hPa 0,0 l/m² 4,5 km/h (1 Bft) O-NO 70 ° 0 min 0 W/m² 2,4 °C 3,1 °C 6,4 km/h (2 Bft)
09.02.2024 05:26 20,9 °C 3,1 °C 47 % 95 % 991,4 hPa 0,0 l/m² 6,2 km/h (2 Bft) O-NO 70 ° 0 min 0 W/m² 2,4 °C 3,1 °C 8,0 km/h (2 Bft)
09.02.2024 05:28 20,9 °C 3,1 °C 47 % 95 % 991,4 hPa 0,0 l/m² 6,0 km/h (2 Bft) O-NO 70 ° 0 min 0 W/m² 2,4 °C 3,1 °C 8,0 km/h (2 Bft)
09.02.2024 05:30 20,8 °C 3,1 °C 47 % 95 % 991,3 hPa 0,0 l/m² 6,6 km/h (2 Bft) O-NO 70 ° 0 min 0 W/m² 2,4 °C 2,9 °C 8,0 km/h (2 Bft)
09.02.2024 05:31 20,9 °C 3,2 °C 47 % 95 % 991,3 hPa 0,0 l/m² 2,0 km/h (1 Bft) O-NO 70 ° 0 min 0 W/m² 2,5 °C 3,2 °C 4,8 km/h (1 Bft)
09.02.2024 05:33 20,9 °C 3,2 °C 47 % 95 % 991,2 hPa 0,0 l/m² 2,3 km/h (1 Bft) O-NO 70 ° 0 min 0 W/m² 2,5 °C 3,2 °C 3,2 km/h (1 Bft)
09.02.2024 05:34 20,9 °C 3,2 °C 47 % 95 % 991,2 hPa 0,0 l/m² 2,7 km/h (1 Bft) O-NO 70 ° 0 min 0 W/m² 2,5 °C 3,2 °C 4,8 km/h (1 Bft)
09.02.2024 05:36 20,8 °C 3,2 °C 47 % 95 % 991,2 hPa 0,2 l/m² 5,0 km/h (1 Bft) O-NO 70 ° 0 min 0 W/m² 2,5 °C 3,2 °C 6,4 km/h (2 Bft)
09.02.2024 05:38 20,9 °C 3,2 °C 47 % 95 % 991,2 hPa 0,0 l/m² 6,4 km/h (2 Bft) O-NO 70 ° 0 min 0 W/m² 2,5 °C 3,2 °C 9,7 km/h (2 Bft)
09.02.2024 05:40 20,8 °C 3,2 °C 47 % 95 % 991,1 hPa 0,0 l/m² 9,6 km/h (2 Bft) O-NO 70 ° 0 min 0 W/m² 2,5 °C 0,4 °C 12,9 km/h (3 Bft)
09.02.2024 05:41 20,9 °C 3,2 °C 47 % 95 % 991,1 hPa 0,0 l/m² 10,1 km/h (2 Bft) O 79 ° 0 min 0 W/m² 2,5 °C 0,0 °C 12,9 km/h (3 Bft)
09.02.2024 05:43 20,8 °C 3,2 °C 47 % 95 % 991,0 hPa 0,0 l/m² 10,4 km/h (2 Bft) O 91 ° 0 min 0 W/m² 2,5 °C -0,2 °C 14,5 km/h (3 Bft)
09.02.2024 05:44 20,8 °C 3,2 °C 47 % 95 % 991,0 hPa 0,0 l/m² 10,6 km/h (2 Bft) O 80 ° 0 min 0 W/m² 2,5 °C -0,4 °C 14,5 km/h (3 Bft)
09.02.2024 05:46 20,8 °C 3,3 °C 47 % 95 % 991,0 hPa 0,0 l/m² 8,0 km/h (2 Bft) O 89 ° 0 min 0 W/m² 2,6 °C 1,8 °C 12,9 km/h (3 Bft)
09.02.2024 05:48 20,9 °C 3,3 °C 47 % 95 % 991,0 hPa 0,0 l/m² 4,8 km/h (1 Bft) O 89 ° 0 min 0 W/m² 2,6 °C 3,3 °C 8,0 km/h (2 Bft)
09.02.2024 05:50 20,8 °C 3,3 °C 47 % 95 % 991,0 hPa 0,0 l/m² 1,4 km/h (1 Bft) O 89 ° 0 min 0 W/m² 2,6 °C 3,3 °C 4,8 km/h (1 Bft)
09.02.2024 05:51 20,9 °C 3,3 °C 47 % 95 % 991,0 hPa 0,0 l/m² 0,9 km/h (0 Bft) O 89 ° 0 min 0 W/m² 2,6 °C 3,3 °C 3,2 km/h (1 Bft)
09.02.2024 05:53 20,8 °C 3,3 °C 47 % 95 % 990,9 hPa 0,0 l/m² 1,3 km/h (1 Bft) O 89 ° 0 min 0 W/m² 2,6 °C 3,3 °C 4,8 km/h (1 Bft)
09.02.2024 05:54 20,8 °C 3,3 °C 47 % 95 % 990,9 hPa 0,0 l/m² 4,5 km/h (1 Bft) O 88 ° 0 min 0 W/m² 2,6 °C 3,3 °C 6,4 km/h (2 Bft)
09.02.2024 05:56 20,8 °C 3,3 °C 47 % 95 % 990,9 hPa 0,0 l/m² 4,2 km/h (1 Bft) O 87 ° 0 min 0 W/m² 2,6 °C 3,3 °C 6,4 km/h (2 Bft)
09.02.2024 05:58 20,9 °C 3,3 °C 47 % 95 % 990,8 hPa 0,0 l/m² 3,8 km/h (1 Bft) O 87 ° 0 min 0 W/m² 2,6 °C 3,3 °C 4,8 km/h (1 Bft)
09.02.2024 06:00 20,9 °C 3,3 °C 47 % 95 % 990,8 hPa 0,0 l/m² 4,5 km/h (1 Bft) O 86 ° 0 min 0 W/m² 2,6 °C 3,3 °C 6,4 km/h (2 Bft)
09.02.2024 06:01 20,8 °C 3,3 °C 47 % 95 % 990,8 hPa 0,2 l/m² 4,0 km/h (1 Bft) O 86 ° 0 min 0 W/m² 2,6 °C 3,3 °C 6,4 km/h (2 Bft)
09.02.2024 06:03 20,8 °C 3,3 °C 47 % 95 % 990,8 hPa 0,0 l/m² 3,9 km/h (1 Bft) O 86 ° 0 min 0 W/m² 2,6 °C 3,3 °C 6,4 km/h (2 Bft)
09.02.2024 06:04 20,8 °C 3,4 °C 47 % 95 % 990,7 hPa 0,0 l/m² 3,2 km/h (1 Bft) O 86 ° 0 min 0 W/m² 2,7 °C 3,4 °C 4,8 km/h (1 Bft)
09.02.2024 06:06 20,8 °C 3,4 °C 47 % 95 % 990,7 hPa 0,0 l/m² 3,1 km/h (1 Bft) O 86 ° 0 min 0 W/m² 2,7 °C 3,4 °C 6,4 km/h (2 Bft)
09.02.2024 06:08 20,8 °C 3,4 °C 47 % 95 % 990,7 hPa 0,0 l/m² 1,3 km/h (1 Bft) O 86 ° 0 min 0 W/m² 2,7 °C 3,4 °C 3,2 km/h (1 Bft)
09.02.2024 06:10 20,8 °C 3,3 °C 47 % 95 % 990,6 hPa 0,0 l/m² 1,2 km/h (1 Bft) O 86 ° 0 min 0 W/m² 2,6 °C 3,3 °C 4,8 km/h (1 Bft)
09.02.2024 06:11 20,8 °C 3,4 °C 47 % 95 % 990,6 hPa 0,0 l/m² 3,9 km/h (1 Bft) O 86 ° 0 min 0 W/m² 2,7 °C 3,4 °C 4,8 km/h (1 Bft)
09.02.2024 06:13 20,8 °C 3,4 °C 47 % 95 % 990,6 hPa 0,0 l/m² 2,2 km/h (1 Bft) O 86 ° 0 min 0 W/m² 2,7 °C 3,4 °C 4,8 km/h (1 Bft)
09.02.2024 06:14 20,8 °C 3,4 °C 47 % 95 % 990,7 hPa 0,0 l/m² 1,3 km/h (1 Bft) O 86 ° 0 min 0 W/m² 2,7 °C 3,4 °C 3,2 km/h (1 Bft)
09.02.2024 06:16 20,8 °C 3,4 °C 47 % 95 % 990,6 hPa 0,0 l/m² 3,0 km/h (1 Bft) O 86 ° 0 min 0 W/m² 2,7 °C 3,4 °C 6,4 km/h (2 Bft)
09.02.2024 06:18 20,8 °C 3,4 °C 47 % 95 % 990,6 hPa 0,0 l/m² 5,0 km/h (1 Bft) O 86 ° 0 min 0 W/m² 2,7 °C 3,4 °C 6,4 km/h (2 Bft)
09.02.2024 06:20 20,8 °C 3,4 °C 47 % 95 % 990,5 hPa 0,0 l/m² 4,2 km/h (1 Bft) O 86 ° 0 min 0 W/m² 2,7 °C 3,4 °C 6,4 km/h (2 Bft)
09.02.2024 06:21 20,8 °C 3,4 °C 47 % 95 % 990,5 hPa 0,0 l/m² 4,8 km/h (1 Bft) O 86 ° 0 min 0 W/m² 2,7 °C 3,4 °C 6,4 km/h (2 Bft)
09.02.2024 06:23 20,8 °C 3,4 °C 47 % 95 % 990,6 hPa 0,0 l/m² 5,2 km/h (1 Bft) O 86 ° 0 min 0 W/m² 2,7 °C 3,4 °C 8,0 km/h (2 Bft)
09.02.2024 06:24 20,8 °C 3,5 °C 47 % 95 % 990,6 hPa 0,0 l/m² 2,6 km/h (1 Bft) O 86 ° 0 min 0 W/m² 2,8 °C 3,5 °C 4,8 km/h (1 Bft)
09.02.2024 06:26 20,9 °C 3,5 °C 47 % 95 % 990,6 hPa 0,0 l/m² 2,7 km/h (1 Bft) O 86 ° 0 min 0 W/m² 2,8 °C 3,5 °C 4,8 km/h (1 Bft)
09.02.2024 06:28 20,8 °C 3,5 °C 47 % 95 % 990,6 hPa 0,0 l/m² 2,5 km/h (1 Bft) O 86 ° 0 min 0 W/m² 2,8 °C 3,5 °C 4,8 km/h (1 Bft)
09.02.2024 06:30 20,9 °C 3,5 °C 47 % 95 % 990,5 hPa 0,0 l/m² 0,7 km/h (0 Bft) O 86 ° 0 min 0 W/m² 2,8 °C 3,5 °C 3,2 km/h (1 Bft)
09.02.2024 06:31 20,8 °C 3,5 °C 47 % 95 % 990,5 hPa 0,0 l/m² 2,3 km/h (1 Bft) O 86 ° 0 min 0 W/m² 2,8 °C 3,5 °C 4,8 km/h (1 Bft)
09.02.2024 06:33 20,8 °C 3,6 °C 47 % 95 % 990,5 hPa 0,0 l/m² 2,1 km/h (1 Bft) O 86 ° 0 min 0 W/m² 2,9 °C 3,6 °C 4,8 km/h (1 Bft)
09.02.2024 06:34 20,8 °C 3,6 °C 47 % 95 % 990,5 hPa 0,0 l/m² 3,4 km/h (1 Bft) O 86 ° 0 min 0 W/m² 2,9 °C 3,6 °C 4,8 km/h (1 Bft)
09.02.2024 06:36 20,9 °C 3,6 °C 47 % 95 % 990,5 hPa 0,0 l/m² 1,6 km/h (1 Bft) O 86 ° 0 min 0 W/m² 2,9 °C 3,6 °C 3,2 km/h (1 Bft)
09.02.2024 06:38 20,8 °C 3,6 °C 47 % 95 % 990,5 hPa 0,0 l/m² 1,9 km/h (1 Bft) O 86 ° 0 min 0 W/m² 2,9 °C 3,6 °C 3,2 km/h (1 Bft)
09.02.2024 06:40 20,9 °C 3,6 °C 47 % 95 % 990,5 hPa 0,0 l/m² 0,6 km/h (0 Bft) O 86 ° 0 min 0 W/m² 2,9 °C 3,6 °C 1,6 km/h (1 Bft)
09.02.2024 06:41 20,9 °C 3,6 °C 47 % 95 % 990,4 hPa 0,0 l/m² 2,3 km/h (1 Bft) O 86 ° 0 min 0 W/m² 2,9 °C 3,6 °C 3,2 km/h (1 Bft)
09.02.2024 06:43 20,9 °C 3,6 °C 47 % 95 % 990,4 hPa 0,2 l/m² 3,3 km/h (1 Bft) O 86 ° 0 min 0 W/m² 2,9 °C 3,6 °C 4,8 km/h (1 Bft)
09.02.2024 06:44 20,9 °C 3,6 °C 47 % 95 % 990,4 hPa 0,0 l/m² 3,0 km/h (1 Bft) O 86 ° 0 min 0 W/m² 2,9 °C 3,6 °C 3,2 km/h (1 Bft)
09.02.2024 06:46 20,9 °C 3,6 °C 47 % 95 % 990,5 hPa 0,0 l/m² 3,4 km/h (1 Bft) O 86 ° 0 min 0 W/m² 2,9 °C 3,6 °C 4,8 km/h (1 Bft)
09.02.2024 06:48 20,9 °C 3,6 °C 47 % 95 % 990,4 hPa 0,0 l/m² 2,1 km/h (1 Bft) O 86 ° 0 min 0 W/m² 2,9 °C 3,6 °C 4,8 km/h (1 Bft)
09.02.2024 06:50 20,9 °C 3,6 °C 47 % 95 % 990,5 hPa 0,0 l/m² 0,7 km/h (0 Bft) O 86 ° 0 min 0 W/m² 2,9 °C 3,6 °C 3,2 km/h (1 Bft)
09.02.2024 06:51 20,9 °C 3,6 °C 47 % 95 % 990,4 hPa 0,0 l/m² 0,2 km/h (0 Bft) O 86 ° 0 min 0 W/m² 2,9 °C 3,6 °C 1,6 km/h (1 Bft)
09.02.2024 06:53 20,9 °C 3,6 °C 47 % 95 % 990,3 hPa 0,0 l/m² 2,2 km/h (1 Bft) O 86 ° 0 min 0 W/m² 2,9 °C 3,6 °C 3,2 km/h (1 Bft)
09.02.2024 06:54 20,9 °C 3,6 °C 47 % 95 % 990,3 hPa 0,0 l/m² 2,0 km/h (1 Bft) O 86 ° 0 min 0 W/m² 2,9 °C 3,6 °C 3,2 km/h (1 Bft)
09.02.2024 06:56 20,9 °C 3,6 °C 47 % 95 % 990,3 hPa 0,0 l/m² 3,0 km/h (1 Bft) O 86 ° 0 min 0 W/m² 2,9 °C 3,6 °C 4,8 km/h (1 Bft)
09.02.2024 06:58 20,9 °C 3,6 °C 47 % 95 % 990,4 hPa 0,0 l/m² 3,3 km/h (1 Bft) O 86 ° 0 min 0 W/m² 2,9 °C 3,6 °C 4,8 km/h (1 Bft)
09.02.2024 07:00 20,9 °C 3,6 °C 47 % 95 % 990,3 hPa 0,0 l/m² 3,6 km/h (1 Bft) O 86 ° 0 min 0 W/m² 2,9 °C 3,6 °C 6,4 km/h (2 Bft)
09.02.2024 07:01 20,9 °C 3,6 °C 47 % 95 % 990,3 hPa 0,0 l/m² 3,4 km/h (1 Bft) O 86 ° 0 min 0 W/m² 2,9 °C 3,6 °C 4,8 km/h (1 Bft)
09.02.2024 07:03 20,9 °C 3,6 °C 47 % 95 % 990,2 hPa 0,0 l/m² 3,4 km/h (1 Bft) O 86 ° 0 min 0 W/m² 2,9 °C 3,6 °C 4,8 km/h (1 Bft)
09.02.2024 07:04 20,9 °C 3,6 °C 47 % 95 % 990,3 hPa 0,0 l/m² 3,9 km/h (1 Bft) O 86 ° 0 min 0 W/m² 2,9 °C 3,6 °C 6,4 km/h (2 Bft)
09.02.2024 07:06 20,9 °C 3,6 °C 47 % 95 % 990,2 hPa 0,0 l/m² 2,9 km/h (1 Bft) O 86 ° 0 min 0 W/m² 2,9 °C 3,6 °C 4,8 km/h (1 Bft)
09.02.2024 07:08 20,9 °C 3,6 °C 47 % 95 % 990,3 hPa 0,0 l/m² 1,6 km/h (1 Bft) O 86 ° 0 min 0 W/m² 2,9 °C 3,6 °C 4,8 km/h (1 Bft)
09.02.2024 07:10 20,9 °C 3,6 °C 47 % 95 % 990,2 hPa 0,0 l/m² 2,1 km/h (1 Bft) O 86 ° 0 min 0 W/m² 2,9 °C 3,6 °C 4,8 km/h (1 Bft)
09.02.2024 07:11 20,9 °C 3,6 °C 47 % 95 % 990,2 hPa 0,0 l/m² 2,0 km/h (1 Bft) O 86 ° 0 min 0 W/m² 2,9 °C 3,6 °C 4,8 km/h (1 Bft)
09.02.2024 07:12 20,9 °C 3,6 °C 47 % 95 % 990,2 hPa 0,0 l/m² 2,0 km/h (1 Bft) O 86 ° 0 min 0 W/m² 2,9 °C 3,6 °C 3,2 km/h (1 Bft)
09.02.2024 07:13 20,9 °C 3,6 °C 47 % 95 % 990,2 hPa 0,0 l/m² 1,7 km/h (1 Bft) O 86 ° 0 min 0 W/m² 2,9 °C 3,6 °C 3,2 km/h (1 Bft)
09.02.2024 07:15 20,9 °C 3,6 °C 47 % 95 % 990,2 hPa 0,0 l/m² 1,8 km/h (1 Bft) O 86 ° 0 min 0 W/m² 2,9 °C 3,6 °C 3,2 km/h (1 Bft)
09.02.2024 07:17 20,9 °C 3,6 °C 47 % 95 % 990,2 hPa 0,0 l/m² 1,7 km/h (1 Bft) O 86 ° 0 min 0 W/m² 2,9 °C 3,6 °C 3,2 km/h (1 Bft)
09.02.2024 07:19 20,9 °C 3,7 °C 47 % 95 % 990,3 hPa 0,0 l/m² 2,7 km/h (1 Bft) O 86 ° 0 min 0 W/m² 3,0 °C 3,7 °C 4,8 km/h (1 Bft)
09.02.2024 07:21 20,9 °C 3,7 °C 47 % 95 % 990,3 hPa 0,0 l/m² 0,0 km/h (0 Bft) O 86 ° 0 min 0 W/m² 3,0 °C 3,7 °C 0,0 km/h (0 Bft)
09.02.2024 07:22 20,9 °C 3,7 °C 47 % 95 % 990,3 hPa 0,0 l/m² 0,7 km/h (0 Bft) O 86 ° 0 min 0 W/m² 3,0 °C 3,7 °C 3,2 km/h (1 Bft)
09.02.2024 07:23 20,9 °C 3,7 °C 47 % 95 % 990,3 hPa 0,0 l/m² 0,5 km/h (0 Bft) O 86 ° 0 min 0 W/m² 3,0 °C 3,7 °C 1,6 km/h (1 Bft)
09.02.2024 07:25 20,9 °C 3,7 °C 47 % 95 % 990,2 hPa 0,0 l/m² 0,2 km/h (0 Bft) O 86 ° 0 min 0 W/m² 3,0 °C 3,7 °C 1,6 km/h (1 Bft)
09.02.2024 07:27 20,9 °C 3,7 °C 47 % 95 % 990,2 hPa 0,0 l/m² 1,6 km/h (1 Bft) O 86 ° 0 min 0 W/m² 3,0 °C 3,7 °C 3,2 km/h (1 Bft)
09.02.2024 07:29 20,9 °C 3,7 °C 47 % 95 % 990,2 hPa 0,0 l/m² 2,6 km/h (1 Bft) O 86 ° 0 min 0 W/m² 3,0 °C 3,7 °C 4,8 km/h (1 Bft)
09.02.2024 07:31 20,9 °C 3,7 °C 47 % 95 % 990,3 hPa 0,0 l/m² 2,4 km/h (1 Bft) O 86 ° 0 min 0 W/m² 3,0 °C 3,7 °C 4,8 km/h (1 Bft)
09.02.2024 07:32 20,9 °C 3,7 °C 47 % 95 % 990,3 hPa 0,0 l/m² 0,0 km/h (0 Bft) O 86 ° 0 min 0 W/m² 3,0 °C 3,7 °C 0,0 km/h (0 Bft)
09.02.2024 07:33 20,9 °C 3,7 °C 47 % 95 % 990,3 hPa 0,0 l/m² 0,0 km/h (0 Bft) O 86 ° 0 min 0 W/m² 3,0 °C 3,7 °C 0,0 km/h (0 Bft)
09.02.2024 07:35 20,9 °C 3,7 °C 47 % 95 % 990,3 hPa 0,0 l/m² 0,0 km/h (0 Bft) O 86 ° 0 min 0 W/m² 3,0 °C 3,7 °C 0,0 km/h (0 Bft)
09.02.2024 07:37 20,9 °C 3,7 °C 47 % 95 % 990,3 hPa 0,0 l/m² 0,6 km/h (0 Bft) O 86 ° 0 min 0 W/m² 3,0 °C 3,7 °C 1,6 km/h (1 Bft)
09.02.2024 07:39 20,9 °C 3,7 °C 47 % 95 % 990,3 hPa 0,0 l/m² 0,3 km/h (0 Bft) O 86 ° 0 min 0 W/m² 3,0 °C 3,7 °C 1,6 km/h (1 Bft)
09.02.2024 07:41 20,9 °C 3,7 °C 47 % 95 % 990,3 hPa 0,0 l/m² 1,1 km/h (1 Bft) O 86 ° 0 min 0 W/m² 3,0 °C 3,7 °C 3,2 km/h (1 Bft)
09.02.2024 07:42 20,9 °C 3,7 °C 47 % 95 % 990,3 hPa 0,0 l/m² 0,5 km/h (0 Bft) O 86 ° 0 min 0 W/m² 3,0 °C 3,7 °C 3,2 km/h (1 Bft)
09.02.2024 07:43 20,9 °C 3,7 °C 47 % 95 % 990,3 hPa 0,0 l/m² 0,0 km/h (0 Bft) O 86 ° 0 min 0 W/m² 3,0 °C 3,7 °C 0,0 km/h (0 Bft)
09.02.2024 07:45 20,9 °C 3,7 °C 47 % 95 % 990,3 hPa 0,0 l/m² 2,0 km/h (1 Bft) O 86 ° 0 min 0 W/m² 3,0 °C 3,7 °C 4,8 km/h (1 Bft)
09.02.2024 07:47 20,9 °C 3,8 °C 47 % 95 % 990,3 hPa 0,0 l/m² 3,4 km/h (1 Bft) O 86 ° 0 min 0 W/m² 3,1 °C 3,8 °C 4,8 km/h (1 Bft)
09.02.2024 07:49 20,9 °C 3,8 °C 47 % 95 % 990,3 hPa 0,0 l/m² 3,4 km/h (1 Bft) O 86 ° 0 min 0 W/m² 3,1 °C 3,8 °C 6,4 km/h (2 Bft)
09.02.2024 07:51 20,9 °C 3,8 °C 47 % 95 % 990,2 hPa 0,0 l/m² 3,6 km/h (1 Bft) O 86 ° 0 min 0 W/m² 3,1 °C 3,8 °C 6,4 km/h (2 Bft)
09.02.2024 07:52 20,9 °C 3,8 °C 47 % 95 % 990,2 hPa 0,0 l/m² 3,0 km/h (1 Bft) O 86 ° 0 min 0 W/m² 3,1 °C 3,8 °C 4,8 km/h (1 Bft)
09.02.2024 07:53 20,9 °C 3,8 °C 47 % 95 % 990,2 hPa 0,0 l/m² 3,1 km/h (1 Bft) O 86 ° 0 min 0 W/m² 3,1 °C 3,8 °C 4,8 km/h (1 Bft)
09.02.2024 07:56 20,9 °C 3,8 °C 47 % 95 % 990,2 hPa 0,0 l/m² 2,2 km/h (1 Bft) O 86 ° 0 min 0 W/m² 3,1 °C 3,8 °C 4,8 km/h (1 Bft)
09.02.2024 07:58 20,9 °C 3,8 °C 47 % 95 % 990,2 hPa 0,0 l/m² 0,4 km/h (0 Bft) O 86 ° 0 min 5 W/m² 3,1 °C 3,8 °C 3,2 km/h (1 Bft)
09.02.2024 08:00 20,9 °C 3,8 °C 47 % 95 % 990,3 hPa 0,0 l/m² 0,9 km/h (0 Bft) O 86 ° 0 min 5 W/m² 3,1 °C 3,8 °C 3,2 km/h (1 Bft)
09.02.2024 08:01 20,9 °C 3,8 °C 47 % 95 % 990,3 hPa 0,0 l/m² 0,2 km/h (0 Bft) O 86 ° 0 min 5 W/m² 3,1 °C 3,8 °C 1,6 km/h (1 Bft)
09.02.2024 08:02 20,9 °C 3,8 °C 47 % 95 % 990,3 hPa 0,0 l/m² 2,8 km/h (1 Bft) O 86 ° 0 min 7 W/m² 3,1 °C 3,8 °C 4,8 km/h (1 Bft)
09.02.2024 08:04 20,9 °C 3,8 °C 47 % 95 % 990,3 hPa 0,0 l/m² 0,4 km/h (0 Bft) O 86 ° 0 min 7 W/m² 3,1 °C 3,8 °C 3,2 km/h (1 Bft)
09.02.2024 08:06 20,9 °C 3,8 °C 47 % 95 % 990,3 hPa 0,0 l/m² 0,5 km/h (0 Bft) O 86 ° 0 min 7 W/m² 3,1 °C 3,8 °C 3,2 km/h (1 Bft)
09.02.2024 08:07 20,9 °C 3,8 °C 47 % 95 % 990,3 hPa 0,0 l/m² 1,6 km/h (1 Bft) O 86 ° 0 min 9 W/m² 3,1 °C 3,8 °C 4,8 km/h (1 Bft)
09.02.2024 08:09 20,9 °C 3,8 °C 47 % 96 % 990,2 hPa 0,0 l/m² 1,8 km/h (1 Bft) O 86 ° 0 min 11 W/m² 3,2 °C 3,8 °C 4,8 km/h (1 Bft)
09.02.2024 08:11 20,9 °C 3,8 °C 47 % 95 % 990,2 hPa 0,0 l/m² 3,1 km/h (1 Bft) O 86 ° 0 min 11 W/m² 3,1 °C 3,8 °C 4,8 km/h (1 Bft)
09.02.2024 08:12 20,9 °C 3,8 °C 47 % 95 % 990,2 hPa 0,0 l/m² 1,0 km/h (0 Bft) O 86 ° 0 min 11 W/m² 3,1 °C 3,8 °C 3,2 km/h (1 Bft)
09.02.2024 08:14 20,9 °C 3,8 °C 47 % 95 % 990,2 hPa 0,0 l/m² 2,8 km/h (1 Bft) O 86 ° 0 min 12 W/m² 3,1 °C 3,8 °C 4,8 km/h (1 Bft)
09.02.2024 08:16 20,9 °C 3,9 °C 47 % 96 % 990,2 hPa 0,0 l/m² 2,1 km/h (1 Bft) O 86 ° 0 min 12 W/m² 3,3 °C 3,9 °C 4,8 km/h (1 Bft)
09.02.2024 08:18 20,9 °C 3,8 °C 47 % 96 % 990,2 hPa 0,0 l/m² 2,5 km/h (1 Bft) O 86 ° 0 min 12 W/m² 3,2 °C 3,8 °C 4,8 km/h (1 Bft)
09.02.2024 08:20 20,9 °C 3,9 °C 47 % 96 % 990,2 hPa 0,0 l/m² 0,3 km/h (0 Bft) O 86 ° 0 min 14 W/m² 3,3 °C 3,9 °C 3,2 km/h (1 Bft)
09.02.2024 08:21 20,9 °C 3,8 °C 47 % 96 % 990,2 hPa 0,0 l/m² 1,2 km/h (1 Bft) O 86 ° 0 min 14 W/m² 3,2 °C 3,8 °C 3,2 km/h (1 Bft)
09.02.2024 08:22 20,9 °C 3,9 °C 47 % 96 % 990,2 hPa 0,0 l/m² 1,8 km/h (1 Bft) O 86 ° 0 min 14 W/m² 3,3 °C 3,9 °C 4,8 km/h (1 Bft)
09.02.2024 08:24 20,9 °C 3,9 °C 47 % 96 % 990,3 hPa 0,0 l/m² 0,9 km/h (0 Bft) O 86 ° 0 min 16 W/m² 3,3 °C 3,9 °C 4,8 km/h (1 Bft)
09.02.2024 08:26 20,9 °C 3,9 °C 47 % 96 % 990,1 hPa 0,0 l/m² 0,0 km/h (0 Bft) O 86 ° 0 min 16 W/m² 3,3 °C 3,9 °C 0,0 km/h (0 Bft)
09.02.2024 08:28 20,9 °C 3,9 °C 47 % 96 % 990,2 hPa 0,2 l/m² 0,0 km/h (0 Bft) O 86 ° 0 min 16 W/m² 3,3 °C 3,9 °C 0,0 km/h (0 Bft)
09.02.2024 08:30 20,9 °C 4,0 °C 47 % 95 % 990,2 hPa 0,0 l/m² 0,2 km/h (0 Bft) O 86 ° 0 min 16 W/m² 3,3 °C 4,0 °C 3,2 km/h (1 Bft)
09.02.2024 08:31 20,9 °C 4,0 °C 47 % 95 % 990,2 hPa 0,0 l/m² 0,0 km/h (0 Bft) O 86 ° 0 min 16 W/m² 3,3 °C 4,0 °C 0,0 km/h (0 Bft)
09.02.2024 08:32 20,9 °C 4,0 °C 47 % 95 % 990,2 hPa 0,0 l/m² 0,0 km/h (0 Bft) O 86 ° 0 min 16 W/m² 3,3 °C 4,0 °C 0,0 km/h (0 Bft)
09.02.2024 08:34 20,9 °C 4,0 °C 47 % 95 % 990,2 hPa 0,0 l/m² 0,0 km/h (0 Bft) O 86 ° 0 min 16 W/m² 3,3 °C 4,0 °C 0,0 km/h (0 Bft)
09.02.2024 08:36 20,9 °C 4,0 °C 47 % 95 % 990,2 hPa 0,0 l/m² 0,0 km/h (0 Bft) O 86 ° 0 min 14 W/m² 3,3 °C 4,0 °C 0,0 km/h (0 Bft)
09.02.2024 08:38 20,9 °C 4,0 °C 47 % 95 % 990,3 hPa 0,0 l/m² 0,0 km/h (0 Bft) O 86 ° 0 min 14 W/m² 3,3 °C 4,0 °C 0,0 km/h (0 Bft)
09.02.2024 08:40 20,9 °C 4,1 °C 47 % 95 % 990,3 hPa 0,0 l/m² 0,0 km/h (0 Bft) O 86 ° 0 min 16 W/m² 3,4 °C 4,1 °C 0,0 km/h (0 Bft)
09.02.2024 08:41 20,9 °C 4,1 °C 47 % 95 % 990,2 hPa 0,0 l/m² 0,0 km/h (0 Bft) O 86 ° 0 min 16 W/m² 3,4 °C 4,1 °C 0,0 km/h (0 Bft)
09.02.2024 08:42 20,9 °C 4,1 °C 47 % 95 % 990,2 hPa 0,0 l/m² 0,0 km/h (0 Bft) O 86 ° 0 min 16 W/m² 3,4 °C 4,1 °C 0,0 km/h (0 Bft)
09.02.2024 08:44 20,9 °C 4,1 °C 47 % 95 % 990,2 hPa 0,0 l/m² 0,0 km/h (0 Bft) O 86 ° 0 min 18 W/m² 3,4 °C 4,1 °C 0,0 km/h (0 Bft)
09.02.2024 08:46 20,9 °C 4,1 °C 47 % 95 % 990,3 hPa 0,0 l/m² 0,0 km/h (0 Bft) O 86 ° 0 min 18 W/m² 3,4 °C 4,1 °C 0,0 km/h (0 Bft)
09.02.2024 08:48 20,9 °C 4,2 °C 47 % 96 % 990,3 hPa 0,0 l/m² 0,0 km/h (0 Bft) O 86 ° 0 min 18 W/m² 3,6 °C 4,2 °C 0,0 km/h (0 Bft)
09.02.2024 08:50 20,9 °C 4,2 °C 47 % 96 % 990,3 hPa 0,0 l/m² 0,0 km/h (0 Bft) O 86 ° 0 min 19 W/m² 3,6 °C 4,2 °C 0,0 km/h (0 Bft)
09.02.2024 08:51 20,9 °C 4,2 °C 47 % 96 % 990,4 hPa 0,0 l/m² 0,0 km/h (0 Bft) O 86 ° 0 min 19 W/m² 3,6 °C 4,2 °C 0,0 km/h (0 Bft)
09.02.2024 08:52 20,9 °C 4,2 °C 47 % 96 % 990,4 hPa 0,0 l/m² 0,0 km/h (0 Bft) O 86 ° 0 min 21 W/m² 3,6 °C 4,2 °C 0,0 km/h (0 Bft)
09.02.2024 08:54 20,9 °C 4,2 °C 47 % 96 % 990,3 hPa 0,0 l/m² 0,0 km/h (0 Bft) O 86 ° 0 min 21 W/m² 3,6 °C 4,2 °C 0,0 km/h (0 Bft)
09.02.2024 08:56 20,9 °C 4,2 °C 47 % 96 % 990,3 hPa 0,0 l/m² 0,0 km/h (0 Bft) O 86 ° 0 min 25 W/m² 3,6 °C 4,2 °C 0,0 km/h (0 Bft)
09.02.2024 08:58 20,9 °C 4,2 °C 47 % 96 % 990,3 hPa 0,0 l/m² 0,0 km/h (0 Bft) O 86 ° 0 min 26 W/m² 3,6 °C 4,2 °C 0,0 km/h (0 Bft)
09.02.2024 09:00 20,9 °C 4,2 °C 47 % 96 % 990,3 hPa 0,0 l/m² 0,0 km/h (0 Bft) O 86 ° 0 min 28 W/m² 3,6 °C 4,2 °C 0,0 km/h (0 Bft)
09.02.2024 09:01 20,9 °C 4,2 °C 47 % 96 % 990,3 hPa 0,0 l/m² 0,0 km/h (0 Bft) O 86 ° 0 min 28 W/m² 3,6 °C 4,2 °C 0,0 km/h (0 Bft)
09.02.2024 09:02 20,9 °C 4,2 °C 47 % 96 % 990,3 hPa 0,0 l/m² 0,0 km/h (0 Bft) O 86 ° 0 min 30 W/m² 3,6 °C 4,2 °C 0,0 km/h (0 Bft)
09.02.2024 09:03 20,9 °C 4,2 °C 47 % 96 % 990,2 hPa 0,0 l/m² 0,0 km/h (0 Bft) O 86 ° 0 min 30 W/m² 3,6 °C 4,2 °C 0,0 km/h (0 Bft)
09.02.2024 09:04 20,9 °C 4,2 °C 47 % 96 % 990,3 hPa 0,0 l/m² 0,0 km/h (0 Bft) O 86 ° 0 min 30 W/m² 3,6 °C 4,2 °C 0,0 km/h (0 Bft)
09.02.2024 09:06 20,9 °C 4,3 °C 47 % 96 % 990,2 hPa 0,0 l/m² 0,0 km/h (0 Bft) O 86 ° 0 min 30 W/m² 3,7 °C 4,3 °C 0,0 km/h (0 Bft)
09.02.2024 09:08 20,9 °C 4,3 °C 47 % 96 % 990,1 hPa 0,0 l/m² 0,0 km/h (0 Bft) O 86 ° 0 min 28 W/m² 3,7 °C 4,3 °C 0,0 km/h (0 Bft)
09.02.2024 09:10 20,9 °C 4,3 °C 47 % 96 % 990,2 hPa 0,0 l/m² 0,0 km/h (0 Bft) O 86 ° 0 min 26 W/m² 3,7 °C 4,3 °C 0,0 km/h (0 Bft)
09.02.2024 09:11 20,9 °C 4,4 °C 47 % 96 % 990,2 hPa 0,0 l/m² 0,0 km/h (0 Bft) O 86 ° 0 min 25 W/m² 3,8 °C 4,4 °C 0,0 km/h (0 Bft)
09.02.2024 09:12 20,9 °C 4,4 °C 47 % 96 % 990,2 hPa 0,0 l/m² 0,0 km/h (0 Bft) O 86 ° 0 min 25 W/m² 3,8 °C 4,4 °C 0,0 km/h (0 Bft)
09.02.2024 09:14 20,8 °C 4,4 °C 47 % 96 % 990,3 hPa 0,0 l/m² 0,0 km/h (0 Bft) O 86 ° 0 min 25 W/m² 3,8 °C 4,4 °C 0,0 km/h (0 Bft)
09.02.2024 09:16 20,8 °C 4,4 °C 47 % 96 % 990,2 hPa 0,0 l/m² 0,0 km/h (0 Bft) O 86 ° 0 min 25 W/m² 3,8 °C 4,4 °C 0,0 km/h (0 Bft)
09.02.2024 09:18 20,8 °C 4,4 °C 47 % 96 % 990,2 hPa 0,0 l/m² 0,0 km/h (0 Bft) O 86 ° 0 min 26 W/m² 3,8 °C 4,4 °C 0,0 km/h (0 Bft)
09.02.2024 09:20 20,8 °C 4,4 °C 47 % 96 % 990,2 hPa 0,0 l/m² 0,0 km/h (0 Bft) O 86 ° 0 min 26 W/m² 3,8 °C 4,4 °C 0,0 km/h (0 Bft)
09.02.2024 09:21 20,9 °C 4,4 °C 47 % 96 % 990,2 hPa 0,0 l/m² 0,0 km/h (0 Bft) O 86 ° 0 min 26 W/m² 3,8 °C 4,4 °C 0,0 km/h (0 Bft)
09.02.2024 09:22 20,9 °C 4,4 °C 47 % 96 % 990,2 hPa 0,0 l/m² 0,0 km/h (0 Bft) O 86 ° 0 min 26 W/m² 3,8 °C 4,4 °C 0,0 km/h (0 Bft)
09.02.2024 09:24 20,9 °C 4,5 °C 47 % 96 % 990,3 hPa 0,0 l/m² 0,0 km/h (0 Bft) O 86 ° 0 min 26 W/m² 3,9 °C 4,5 °C 0,0 km/h (0 Bft)
09.02.2024 09:26 20,8 °C 4,6 °C 47 % 96 % 990,3 hPa 0,0 l/m² 0,0 km/h (0 Bft) O 86 ° 0 min 28 W/m² 4,0 °C 4,6 °C 0,0 km/h (0 Bft)
09.02.2024 09:28 20,8 °C 4,6 °C 47 % 96 % 990,3 hPa 0,0 l/m² 0,0 km/h (0 Bft) O 86 ° 0 min 28 W/m² 4,0 °C 4,6 °C 0,0 km/h (0 Bft)
09.02.2024 09:30 20,8 °C 4,6 °C 47 % 96 % 990,2 hPa 0,0 l/m² 0,0 km/h (0 Bft) O 86 ° 0 min 30 W/m² 4,0 °C 4,6 °C 0,0 km/h (0 Bft)
09.02.2024 09:31 20,9 °C 4,6 °C 47 % 96 % 990,3 hPa 0,0 l/m² 0,0 km/h (0 Bft) O 86 ° 0 min 32 W/m² 4,0 °C 4,6 °C 0,0 km/h (0 Bft)
09.02.2024 09:32 20,9 °C 4,6 °C 47 % 96 % 990,3 hPa 0,0 l/m² 0,0 km/h (0 Bft) O 86 ° 0 min 32 W/m² 4,0 °C 4,6 °C 0,0 km/h (0 Bft)
09.02.2024 09:34 20,9 °C 4,6 °C 47 % 96 % 990,3 hPa 0,0 l/m² 0,0 km/h (0 Bft) O 86 ° 0 min 30 W/m² 4,0 °C 4,6 °C 0,0 km/h (0 Bft)
09.02.2024 09:36 20,9 °C 4,6 °C 47 % 96 % 990,3 hPa 0,0 l/m² 0,0 km/h (0 Bft) O 86 ° 0 min 32 W/m² 4,0 °C 4,6 °C 0,0 km/h (0 Bft)
09.02.2024 09:38 20,9 °C 4,7 °C 47 % 96 % 990,3 hPa 0,0 l/m² 0,0 km/h (0 Bft) O 86 ° 0 min 32 W/m² 4,1 °C 4,7 °C 0,0 km/h (0 Bft)
09.02.2024 09:40 20,9 °C 4,7 °C 47 % 96 % 990,2 hPa 0,0 l/m² 0,0 km/h (0 Bft) O 86 ° 0 min 32 W/m² 4,1 °C 4,7 °C 0,0 km/h (0 Bft)
09.02.2024 09:41 20,9 °C 4,7 °C 47 % 96 % 990,3 hPa 0,0 l/m² 0,0 km/h (0 Bft) O 86 ° 0 min 33 W/m² 4,1 °C 4,7 °C 0,0 km/h (0 Bft)
09.02.2024 09:42 20,9 °C 4,7 °C 47 % 96 % 990,3 hPa 0,0 l/m² 0,0 km/h (0 Bft) O 86 ° 0 min 33 W/m² 4,1 °C 4,7 °C 0,0 km/h (0 Bft)
09.02.2024 09:44 20,9 °C 4,8 °C 47 % 96 % 990,2 hPa 0,0 l/m² 0,0 km/h (0 Bft) O 86 ° 0 min 35 W/m² 4,2 °C 4,8 °C 0,0 km/h (0 Bft)
09.02.2024 09:46 20,9 °C 4,8 °C 47 % 96 % 990,2 hPa 0,0 l/m² 0,0 km/h (0 Bft) O 86 ° 0 min 35 W/m² 4,2 °C 4,8 °C 0,0 km/h (0 Bft)
09.02.2024 09:48 20,9 °C 4,8 °C 47 % 96 % 990,2 hPa 0,0 l/m² 0,0 km/h (0 Bft) O 86 ° 0 min 37 W/m² 4,2 °C 4,8 °C 0,0 km/h (0 Bft)
09.02.2024 09:50 20,9 °C 4,9 °C 47 % 96 % 990,1 hPa 0,0 l/m² 0,0 km/h (0 Bft) O 86 ° 0 min 40 W/m² 4,3 °C 4,9 °C 0,0 km/h (0 Bft)
09.02.2024 09:51 20,9 °C 4,9 °C 47 % 96 % 990,1 hPa 0,0 l/m² 0,0 km/h (0 Bft) O 86 ° 0 min 42 W/m² 4,3 °C 4,9 °C 0,0 km/h (0 Bft)
09.02.2024 09:52 20,9 °C 4,9 °C 47 % 96 % 990,1 hPa 0,0 l/m² 0,0 km/h (0 Bft) O 86 ° 0 min 44 W/m² 4,3 °C 4,9 °C 0,0 km/h (0 Bft)
09.02.2024 09:54 20,9 °C 5,0 °C 47 % 96 % 990,2 hPa 0,0 l/m² 0,0 km/h (0 Bft) O 86 ° 2 min 54 W/m² 4,4 °C 5,0 °C 0,0 km/h (0 Bft)
09.02.2024 09:56 20,9 °C 5,0 °C 47 % 96 % 990,1 hPa 0,0 l/m² 1,8 km/h (1 Bft) O 86 ° 2 min 65 W/m² 4,4 °C 5,0 °C 4,8 km/h (1 Bft)
09.02.2024 09:58 20,9 °C 5,1 °C 47 % 96 % 990,0 hPa 0,0 l/m² 2,4 km/h (1 Bft) O 86 ° 2 min 69 W/m² 4,5 °C 5,1 °C 4,8 km/h (1 Bft)
09.02.2024 10:00 20,9 °C 5,2 °C 47 % 96 % 990,0 hPa 0,0 l/m² 1,6 km/h (1 Bft) O 86 ° 2 min 72 W/m² 4,6 °C 5,2 °C 3,2 km/h (1 Bft)
09.02.2024 10:01 20,9 °C 5,3 °C 47 % 96 % 990,0 hPa 0,0 l/m² 2,0 km/h (1 Bft) O 86 ° 1 min 72 W/m² 4,7 °C 5,3 °C 3,2 km/h (1 Bft)
09.02.2024 10:02 20,9 °C 5,3 °C 47 % 96 % 990,0 hPa 0,0 l/m² 1,1 km/h (1 Bft) O 86 ° 1 min 74 W/m² 4,7 °C 5,3 °C 1,6 km/h (1 Bft)
09.02.2024 10:03 20,9 °C 5,3 °C 47 % 96 % 990,0 hPa 0,0 l/m² 1,1 km/h (1 Bft) O 86 ° 1 min 74 W/m² 4,7 °C 5,3 °C 1,6 km/h (1 Bft)
09.02.2024 10:04 20,9 °C 5,4 °C 47 % 96 % 990,0 hPa 0,0 l/m² 0,4 km/h (0 Bft) O 86 ° 1 min 74 W/m² 4,8 °C 5,4 °C 1,6 km/h (1 Bft)
09.02.2024 10:06 20,9 °C 5,4 °C 47 % 96 % 989,9 hPa 0,0 l/m² 0,2 km/h (0 Bft) O 86 ° 2 min 62 W/m² 4,8 °C 5,4 °C 1,6 km/h (1 Bft)
09.02.2024 10:08 20,9 °C 5,4 °C 47 % 96 % 990,0 hPa 0,0 l/m² 0,0 km/h (0 Bft) O 86 ° 0 min 49 W/m² 4,8 °C 5,4 °C 0,0 km/h (0 Bft)
09.02.2024 10:10 20,9 °C 5,6 °C 47 % 96 % 990,0 hPa 0,0 l/m² 0,0 km/h (0 Bft) O 86 ° 0 min 42 W/m² 5,0 °C 5,6 °C 1,6 km/h (1 Bft)
09.02.2024 10:11 20,9 °C 5,6 °C 47 % 96 % 989,9 hPa 0,0 l/m² 0,3 km/h (0 Bft) O 86 ° 0 min 35 W/m² 5,0 °C 5,6 °C 1,6 km/h (1 Bft)
09.02.2024 10:12 20,9 °C 5,6 °C 47 % 96 % 989,9 hPa 0,0 l/m² 0,2 km/h (0 Bft) O 86 ° 0 min 35 W/m² 5,0 °C 5,6 °C 1,6 km/h (1 Bft)
09.02.2024 10:14 20,9 °C 5,7 °C 47 % 96 % 990,0 hPa 0,0 l/m² 0,0 km/h (0 Bft) O 86 ° 0 min 49 W/m² 5,1 °C 5,7 °C 0,0 km/h (0 Bft)
09.02.2024 10:16 20,9 °C 5,7 °C 47 % 96 % 989,9 hPa 0,0 l/m² 0,1 km/h (0 Bft) O 86 ° 2 min 58 W/m² 5,1 °C 5,7 °C 1,6 km/h (1 Bft)
09.02.2024 10:18 20,9 °C 5,7 °C 47 % 96 % 989,9 hPa 0,0 l/m² 0,1 km/h (0 Bft) O 86 ° 2 min 76 W/m² 5,1 °C 5,7 °C 1,6 km/h (1 Bft)
09.02.2024 10:20 20,9 °C 5,8 °C 47 % 96 % 989,9 hPa 0,0 l/m² 0,0 km/h (0 Bft) O 86 ° 2 min 83 W/m² 5,2 °C 5,8 °C 0,0 km/h (0 Bft)
09.02.2024 10:21 20,9 °C 5,8 °C 47 % 96 % 989,9 hPa 0,0 l/m² 0,0 km/h (0 Bft) O 86 ° 1 min 84 W/m² 5,2 °C 5,8 °C 0,0 km/h (0 Bft)
09.02.2024 10:22 20,9 °C 5,8 °C 47 % 96 % 989,9 hPa 0,0 l/m² 0,0 km/h (0 Bft) O 86 ° 1 min 86 W/m² 5,2 °C 5,8 °C 0,0 km/h (0 Bft)
09.02.2024 10:24 20,9 °C 5,8 °C 47 % 96 % 989,9 hPa 0,0 l/m² 0,0 km/h (0 Bft) O 86 ° 2 min 88 W/m² 5,2 °C 5,8 °C 0,0 km/h (0 Bft)
09.02.2024 10:26 20,9 °C 5,9 °C 47 % 96 % 989,9 hPa 0,0 l/m² 0,0 km/h (0 Bft) O 86 ° 2 min 90 W/m² 5,3 °C 5,9 °C 0,0 km/h (0 Bft)
09.02.2024 10:28 20,9 °C 5,9 °C 47 % 96 % 989,8 hPa 0,0 l/m² 0,6 km/h (0 Bft) O 86 ° 2 min 86 W/m² 5,3 °C 5,9 °C 3,2 km/h (1 Bft)
09.02.2024 10:30 20,9 °C 6,1 °C 47 % 96 % 989,9 hPa 0,0 l/m² 0,0 km/h (0 Bft) O 86 ° 2 min 84 W/m² 5,5 °C 6,1 °C 1,6 km/h (1 Bft)
09.02.2024 10:31 20,9 °C 6,1 °C 47 % 96 % 989,9 hPa 0,0 l/m² 0,1 km/h (0 Bft) O 86 ° 1 min 84 W/m² 5,5 °C 6,1 °C 1,6 km/h (1 Bft)
09.02.2024 10:32 20,9 °C 6,1 °C 47 % 96 % 989,9 hPa 0,0 l/m² 0,1 km/h (0 Bft) O 86 ° 1 min 84 W/m² 5,5 °C 6,1 °C 1,6 km/h (1 Bft)
09.02.2024 10:34 20,9 °C 6,2 °C 47 % 96 % 990,0 hPa 0,0 l/m² 0,0 km/h (0 Bft) O 86 ° 2 min 86 W/m² 5,6 °C 6,2 °C 0,0 km/h (0 Bft)
09.02.2024 10:36 20,9 °C 6,3 °C 47 % 96 % 989,9 hPa 0,0 l/m² 0,0 km/h (0 Bft) O 86 ° 2 min 90 W/m² 5,7 °C 6,3 °C 0,0 km/h (0 Bft)
09.02.2024 10:38 20,9 °C 6,4 °C 47 % 96 % 989,9 hPa 0,0 l/m² 0,0 km/h (0 Bft) O 86 ° 2 min 95 W/m² 5,8 °C 6,4 °C 0,0 km/h (0 Bft)
09.02.2024 10:40 20,9 °C 6,5 °C 47 % 96 % 990,0 hPa 0,0 l/m² 1,2 km/h (1 Bft) O 86 ° 2 min 100 W/m² 5,9 °C 6,5 °C 3,2 km/h (1 Bft)
09.02.2024 10:41 20,9 °C 6,6 °C 47 % 96 % 989,9 hPa 0,0 l/m² 1,0 km/h (0 Bft) O 86 ° 1 min 105 W/m² 6,0 °C 6,6 °C 3,2 km/h (1 Bft)
09.02.2024 10:42 20,9 °C 6,7 °C 47 % 96 % 989,9 hPa 0,0 l/m² 0,0 km/h (0 Bft) O 86 ° 1 min 107 W/m² 6,1 °C 6,7 °C 0,0 km/h (0 Bft)
09.02.2024 10:44 20,9 °C 6,8 °C 47 % 96 % 990,0 hPa 0,0 l/m² 0,0 km/h (0 Bft) O 86 ° 2 min 109 W/m² 6,2 °C 6,8 °C 0,0 km/h (0 Bft)
09.02.2024 10:46 20,9 °C 6,8 °C 47 % 96 % 990,0 hPa 0,0 l/m² 0,0 km/h (0 Bft) O 86 ° 2 min 111 W/m² 6,2 °C 6,8 °C 0,0 km/h (0 Bft)
09.02.2024 10:48 20,9 °C 6,9 °C 47 % 96 % 990,0 hPa 0,0 l/m² 0,0 km/h (0 Bft) O 86 ° 2 min 114 W/m² 6,3 °C 6,9 °C 0,0 km/h (0 Bft)
09.02.2024 10:50 20,9 °C 7,0 °C 47 % 96 % 990,0 hPa 0,0 l/m² 0,0 km/h (0 Bft) O 86 ° 2 min 116 W/m² 6,4 °C 7,0 °C 0,0 km/h (0 Bft)
09.02.2024 10:51 20,9 °C 7,1 °C 47 % 96 % 990,0 hPa 0,0 l/m² 0,0 km/h (0 Bft) O 86 ° 1 min 120 W/m² 6,5 °C 7,1 °C 0,0 km/h (0 Bft)
09.02.2024 10:52 20,9 °C 7,1 °C 47 % 96 % 990,0 hPa 0,0 l/m² 0,0 km/h (0 Bft) O 86 ° 1 min 121 W/m² 6,5 °C 7,1 °C 0,0 km/h (0 Bft)
09.02.2024 10:54 20,9 °C 7,1 °C 47 % 96 % 990,0 hPa 0,0 l/m² 0,0 km/h (0 Bft) O 86 ° 2 min 116 W/m² 6,5 °C 7,1 °C 0,0 km/h (0 Bft)
09.02.2024 10:56 20,9 °C 7,2 °C 47 % 96 % 990,0 hPa 0,0 l/m² 0,0 km/h (0 Bft) O 86 ° 2 min 120 W/m² 6,6 °C 7,2 °C 0,0 km/h (0 Bft)
09.02.2024 10:58 20,9 °C 7,6 °C 47 % 97 % 990,0 hPa 0,0 l/m² 0,0 km/h (0 Bft) O 86 ° 2 min 137 W/m² 7,2 °C 7,6 °C 0,0 km/h (0 Bft)
09.02.2024 11:00 20,9 °C 8,2 °C 47 % 96 % 990,0 hPa 0,0 l/m² 0,0 km/h (0 Bft) O 86 ° 2 min 151 W/m² 7,6 °C 8,2 °C 0,0 km/h (0 Bft)
09.02.2024 11:01 20,9 °C 8,3 °C 47 % 97 % 989,9 hPa 0,0 l/m² 0,0 km/h (0 Bft) O 86 ° 1 min 156 W/m² 7,9 °C 8,3 °C 0,0 km/h (0 Bft)
09.02.2024 11:02 20,9 °C 8,4 °C 47 % 97 % 989,9 hPa 0,0 l/m² 0,0 km/h (0 Bft) O 86 ° 1 min 160 W/m² 8,0 °C 8,4 °C 0,0 km/h (0 Bft)
09.02.2024 11:04 20,9 °C 8,7 °C 47 % 97 % 989,9 hPa 0,0 l/m² 0,0 km/h (0 Bft) O 86 ° 2 min 176 W/m² 8,3 °C 8,7 °C 1,6 km/h (1 Bft)
09.02.2024 11:06 20,9 °C 8,9 °C 47 % 97 % 989,9 hPa 0,0 l/m² 0,0 km/h (0 Bft) O 86 ° 2 min 209 W/m² 8,4 °C 8,9 °C 0,0 km/h (0 Bft)
09.02.2024 11:08 20,9 °C 9,1 °C 47 % 97 % 989,9 hPa 0,0 l/m² 0,0 km/h (0 Bft) O 86 ° 2 min 223 W/m² 8,6 °C 9,1 °C 0,0 km/h (0 Bft)
09.02.2024 11:10 20,9 °C 9,4 °C 47 % 97 % 989,9 hPa 0,0 l/m² 0,2 km/h (0 Bft) O 86 ° 2 min 204 W/m² 8,9 °C 9,4 °C 3,2 km/h (1 Bft)
09.02.2024 11:11 20,9 °C 9,5 °C 47 % 97 % 989,9 hPa 0,0 l/m² 2,1 km/h (1 Bft) O 86 ° 1 min 199 W/m² 9,0 °C 9,5 °C 4,8 km/h (1 Bft)
09.02.2024 11:12 20,9 °C 9,6 °C 47 % 97 % 989,9 hPa 0,0 l/m² 1,3 km/h (1 Bft) O 86 ° 1 min 230 W/m² 9,1 °C 9,6 °C 3,2 km/h (1 Bft)
09.02.2024 11:14 20,9 °C 9,8 °C 47 % 96 % 989,9 hPa 0,0 l/m² 3,7 km/h (1 Bft) O 86 ° 2 min 274 W/m² 9,2 °C 9,8 °C 6,4 km/h (2 Bft)
09.02.2024 11:16 20,9 °C 10,0 °C 47 % 96 % 989,8 hPa 0,0 l/m² 4,2 km/h (1 Bft) O 86 ° 2 min 209 W/m² 9,4 °C 10,0 °C 6,4 km/h (2 Bft)
09.02.2024 11:18 20,9 °C 10,1 °C 47 % 95 % 989,8 hPa 0,0 l/m² 5,8 km/h (2 Bft) S-SO 149 ° 2 min 239 W/m² 9,3 °C 10,1 °C 12,9 km/h (3 Bft)
09.02.2024 11:20 20,9 °C 10,2 °C 47 % 95 % 989,8 hPa 0,0 l/m² 6,0 km/h (2 Bft) S-SO 150 ° 2 min 211 W/m² 9,4 °C 10,2 °C 9,7 km/h (2 Bft)
09.02.2024 11:21 20,9 °C 10,3 °C 47 % 95 % 989,8 hPa 0,0 l/m² 6,9 km/h (2 Bft) S-SO 147 ° 1 min 209 W/m² 9,5 °C 9,9 °C 9,7 km/h (2 Bft)
09.02.2024 11:23 20,9 °C 10,4 °C 47 % 95 % 989,8 hPa 0,0 l/m² 8,2 km/h (2 Bft) S-SO 155 ° 2 min 309 W/m² 9,6 °C 9,1 °C 12,9 km/h (3 Bft)
09.02.2024 11:24 20,9 °C 10,4 °C 47 % 95 % 989,8 hPa 0,0 l/m² 7,8 km/h (2 Bft) S-SO 163 ° 1 min 237 W/m² 9,6 °C 9,4 °C 9,7 km/h (2 Bft)
09.02.2024 11:26 20,9 °C 10,4 °C 47 % 94 % 989,7 hPa 0,0 l/m² 6,6 km/h (2 Bft) S 171 ° 2 min 218 W/m² 9,5 °C 10,3 °C 11,3 km/h (2 Bft)
09.02.2024 11:28 20,9 °C 10,6 °C 47 % 93 % 989,9 hPa 0,0 l/m² 11,3 km/h (2 Bft) S 171 ° 2 min 241 W/m² 9,5 °C 7,6 °C 14,5 km/h (3 Bft)
09.02.2024 11:30 20,9 °C 10,6 °C 47 % 93 % 989,8 hPa 0,0 l/m² 9,4 km/h (2 Bft) S-SO 165 ° 2 min 220 W/m² 9,5 °C 8,6 °C 16,1 km/h (3 Bft)
09.02.2024 11:31 20,9 °C 10,7 °C 47 % 93 % 989,9 hPa 0,0 l/m² 8,0 km/h (2 Bft) S 179 ° 1 min 230 W/m² 9,6 °C 9,6 °C 11,3 km/h (2 Bft)
09.02.2024 11:33 20,9 °C 10,8 °C 47 % 93 % 989,9 hPa 0,0 l/m² 6,8 km/h (2 Bft) S-SO 166 ° 2 min 264 W/m² 9,7 °C 10,5 °C 11,3 km/h (2 Bft)
09.02.2024 11:34 20,9 °C 10,8 °C 47 % 92 % 989,8 hPa 0,0 l/m² 7,1 km/h (2 Bft) S-SO 165 ° 1 min 265 W/m² 9,6 °C 10,3 °C 8,0 km/h (2 Bft)
09.02.2024 11:36 20,9 °C 10,9 °C 47 % 92 % 989,8 hPa 0,0 l/m² 7,8 km/h (2 Bft) S 171 ° 2 min 211 W/m² 9,7 °C 9,9 °C 12,9 km/h (3 Bft)
09.02.2024 11:38 20,9 °C 10,9 °C 47 % 92 % 989,9 hPa 0,0 l/m² 10,1 km/h (2 Bft) S 175 ° 2 min 202 W/m² 9,7 °C 8,5 °C 14,5 km/h (3 Bft)
09.02.2024 11:40 20,9 °C 10,9 °C 47 % 91 % 989,7 hPa 0,0 l/m² 9,2 km/h (2 Bft) S-SO 165 ° 2 min 211 W/m² 9,5 °C 9,0 °C 14,5 km/h (3 Bft)
09.02.2024 11:41 20,9 °C 10,9 °C 47 % 91 % 989,8 hPa 0,0 l/m² 7,3 km/h (2 Bft) S-SO 165 ° 1 min 229 W/m² 9,5 °C 10,3 °C 9,7 km/h (2 Bft)
09.02.2024 11:42 20,9 °C 11,0 °C 47 % 91 % 989,8 hPa 0,0 l/m² 8,0 km/h (2 Bft) S 176 ° 1 min 241 W/m² 9,6 °C 9,9 °C 11,3 km/h (2 Bft)
09.02.2024 11:44 20,9 °C 11,1 °C 47 % 91 % 989,9 hPa 0,0 l/m² 9,7 km/h (2 Bft) S 178 ° 2 min 251 W/m² 9,7 °C 9,0 °C 14,5 km/h (3 Bft)
09.02.2024 11:46 20,9 °C 11,1 °C 47 % 91 % 989,8 hPa 0,0 l/m² 10,3 km/h (2 Bft) S 191 ° 2 min 309 W/m² 9,7 °C 8,6 °C 17,7 km/h (3 Bft)
09.02.2024 11:48 20,9 °C 11,3 °C 47 % 90 % 989,9 hPa 0,0 l/m² 8,4 km/h (2 Bft) S-SW 202 ° 2 min 248 W/m² 9,7 °C 10,0 °C 11,3 km/h (2 Bft)
09.02.2024 11:50 21,0 °C 11,3 °C 47 % 90 % 989,9 hPa 0,0 l/m² 8,2 km/h (2 Bft) S 173 ° 2 min 323 W/m² 9,7 °C 10,1 °C 11,3 km/h (2 Bft)
09.02.2024 11:51 20,9 °C 11,4 °C 47 % 90 % 990,0 hPa 0,0 l/m² 12,3 km/h (2 Bft) S 170 ° 1 min 353 W/m² 9,8 °C 8,0 °C 17,7 km/h (3 Bft)
09.02.2024 11:52 20,9 °C 11,5 °C 47 % 90 % 990,0 hPa 0,0 l/m² 9,3 km/h (2 Bft) S-SW 204 ° 1 min 369 W/m² 9,9 °C 9,6 °C 17,7 km/h (3 Bft)
09.02.2024 11:54 20,9 °C 11,6 °C 47 % 89 % 989,9 hPa 0,0 l/m² 11,1 km/h (2 Bft) S-SW 199 ° 2 min 369 W/m² 9,8 °C 8,8 °C 16,1 km/h (3 Bft)
09.02.2024 11:56 21,0 °C 11,7 °C 47 % 90 % 989,9 hPa 0,0 l/m² 8,3 km/h (2 Bft) S-SW 200 ° 2 min 373 W/m² 10,1 °C 10,5 °C 12,9 km/h (3 Bft)
09.02.2024 11:58 20,9 °C 11,8 °C 47 % 89 % 989,9 hPa 0,0 l/m² 10,1 km/h (2 Bft) S 187 ° 2 min 376 W/m² 10,0 °C 9,5 °C 12,9 km/h (3 Bft)
09.02.2024 12:00 20,9 °C 11,8 °C 47 % 89 % 989,9 hPa 0,0 l/m² 9,8 km/h (2 Bft) S-SO 165 ° 2 min 309 W/m² 10,0 °C 9,7 °C 14,5 km/h (3 Bft)
09.02.2024 12:01 20,9 °C 11,9 °C 47 % 89 % 989,9 hPa 0,0 l/m² 10,1 km/h (2 Bft) S 185 ° 1 min 345 W/m² 10,1 °C 9,6 °C 12,9 km/h (3 Bft)
09.02.2024 12:03 21,0 °C 11,9 °C 47 % 88 % 990,0 hPa 0,0 l/m² 12,1 km/h (2 Bft) S-SW 196 ° 2 min 338 W/m² 10,0 °C 8,7 °C 16,1 km/h (3 Bft)
09.02.2024 12:04 21,0 °C 11,9 °C 47 % 87 % 989,9 hPa 0,0 l/m² 10,0 km/h (2 Bft) S 184 ° 1 min 332 W/m² 9,8 °C 9,7 °C 17,7 km/h (3 Bft)
09.02.2024 12:06 20,9 °C 11,9 °C 47 % 87 % 989,9 hPa 0,0 l/m² 11,9 km/h (2 Bft) S 182 ° 2 min 294 W/m² 9,8 °C 8,7 °C 17,7 km/h (3 Bft)
09.02.2024 12:08 20,9 °C 11,9 °C 47 % 87 % 989,9 hPa 0,0 l/m² 11,9 km/h (2 Bft) S 180 ° 2 min 294 W/m² 9,8 °C 8,7 °C 16,1 km/h (3 Bft)
09.02.2024 12:10 20,9 °C 11,9 °C 47 % 87 % 989,8 hPa 0,0 l/m² 9,8 km/h (2 Bft) S 180 ° 2 min 336 W/m² 9,8 °C 9,8 °C 14,5 km/h (3 Bft)
09.02.2024 12:11 20,9 °C 12,0 °C 47 % 88 % 989,9 hPa 0,0 l/m² 6,8 km/h (2 Bft) S 182 ° 1 min 373 W/m² 10,1 °C 11,7 °C 9,7 km/h (2 Bft)
09.02.2024 12:13 20,9 °C 12,1 °C 47 % 87 % 989,9 hPa 0,0 l/m² 9,4 km/h (2 Bft) S-SW 195 ° 2 min 406 W/m² 10,0 °C 10,2 °C 14,5 km/h (3 Bft)
09.02.2024 12:14 20,9 °C 12,2 °C 47 % 87 % 989,9 hPa 0,0 l/m² 5,4 km/h (2 Bft) S-SW 192 ° 1 min 418 W/m² 10,1 °C 12,2 °C 9,7 km/h (2 Bft)
09.02.2024 12:16 20,9 °C 12,3 °C 47 % 88 % 989,9 hPa 0,0 l/m² 5,2 km/h (1 Bft) S 188 ° 2 min 406 W/m² 10,4 °C 12,3 °C 11,3 km/h (2 Bft)
09.02.2024 12:18 20,9 °C 12,4 °C 47 % 88 % 989,9 hPa 0,0 l/m² 7,9 km/h (2 Bft) S 178 ° 2 min 387 W/m² 10,5 °C 11,4 °C 11,3 km/h (2 Bft)
09.02.2024 12:20 21,0 °C 12,4 °C 47 % 86 % 989,8 hPa 0,0 l/m² 10,8 km/h (2 Bft) S-SW 206 ° 2 min 345 W/m² 10,1 °C 9,8 °C 16,1 km/h (3 Bft)
09.02.2024 12:21 20,9 °C 12,4 °C 47 % 86 % 989,8 hPa 0,0 l/m² 12,7 km/h (3 Bft) S 182 ° 1 min 352 W/m² 10,1 °C 9,0 °C 16,1 km/h (3 Bft)
09.02.2024 12:23 20,9 °C 12,4 °C 47 % 86 % 989,9 hPa 0,0 l/m² 7,8 km/h (2 Bft) S-SW 193 ° 2 min 373 W/m² 10,1 °C 11,5 °C 12,9 km/h (3 Bft)
09.02.2024 12:24 21,0 °C 12,5 °C 47 % 86 % 989,8 hPa 0,0 l/m² 6,2 km/h (2 Bft) S-SW 199 ° 1 min 373 W/m² 10,2 °C 12,5 °C 11,3 km/h (2 Bft)
09.02.2024 12:26 20,9 °C 12,6 °C 47 % 85 % 989,8 hPa 0,0 l/m² 10,2 km/h (2 Bft) S 184 ° 2 min 355 W/m² 10,1 °C 10,4 °C 14,5 km/h (3 Bft)
09.02.2024 12:28 20,9 °C 12,7 °C 47 % 86 % 989,9 hPa 0,0 l/m² 9,9 km/h (2 Bft) S-SW 202 ° 2 min 359 W/m² 10,4 °C 10,6 °C 14,5 km/h (3 Bft)
09.02.2024 12:30 20,9 °C 12,7 °C 47 % 85 % 989,8 hPa 0,0 l/m² 11,3 km/h (2 Bft) S-SW 194 ° 2 min 348 W/m² 10,2 °C 9,9 °C 19,3 km/h (3 Bft)
09.02.2024 12:31 20,9 °C 12,7 °C 47 % 85 % 989,8 hPa 0,0 l/m² 10,7 km/h (2 Bft) S-SW 209 ° 1 min 367 W/m² 10,2 °C 10,2 °C 14,5 km/h (3 Bft)
09.02.2024 12:33 21,0 °C 12,7 °C 47 % 86 % 989,8 hPa 0,0 l/m² 12,4 km/h (2 Bft) S 190 ° 2 min 338 W/m² 10,4 °C 9,4 °C 16,1 km/h (3 Bft)
09.02.2024 12:34 20,9 °C 12,7 °C 47 % 85 % 989,7 hPa 0,0 l/m² 11,7 km/h (2 Bft) S 188 ° 1 min 318 W/m² 10,2 °C 9,8 °C 16,1 km/h (3 Bft)
09.02.2024 12:36 20,9 °C 12,7 °C 47 % 85 % 989,8 hPa 0,0 l/m² 11,8 km/h (2 Bft) SW 219 ° 2 min 360 W/m² 10,2 °C 9,7 °C 16,1 km/h (3 Bft)
09.02.2024 12:38 20,9 °C 12,7 °C 47 % 86 % 989,7 hPa 0,0 l/m² 11,2 km/h (2 Bft) S-SW 192 ° 2 min 336 W/m² 10,4 °C 10,0 °C 14,5 km/h (3 Bft)
09.02.2024 12:40 20,9 °C 12,7 °C 47 % 85 % 989,8 hPa 0,0 l/m² 11,8 km/h (2 Bft) S-SW 193 ° 2 min 195 W/m² 10,2 °C 9,7 °C 14,5 km/h (3 Bft)
09.02.2024 12:41 20,9 °C 12,6 °C 47 % 85 % 989,8 hPa 0,0 l/m² 13,8 km/h (3 Bft) S-SW 201 ° 1 min 178 W/m² 10,1 °C 8,7 °C 17,7 km/h (3 Bft)
09.02.2024 12:42 20,9 °C 12,6 °C 47 % 85 % 989,8 hPa 0,0 l/m² 10,5 km/h (2 Bft) S-SW 205 ° 1 min 165 W/m² 10,1 °C 10,2 °C 12,9 km/h (3 Bft)
09.02.2024 12:44 20,9 °C 12,6 °C 47 % 85 % 989,7 hPa 0,0 l/m² 13,7 km/h (3 Bft) S-SW 203 ° 2 min 121 W/m² 10,1 °C 8,8 °C 19,3 km/h (3 Bft)
09.02.2024 12:46 20,9 °C 12,4 °C 47 % 85 % 989,8 hPa 0,0 l/m² 10,6 km/h (2 Bft) S 187 ° 2 min 100 W/m² 9,9 °C 9,9 °C 16,1 km/h (3 Bft)
09.02.2024 12:48 20,9 °C 12,3 °C 47 % 85 % 989,7 hPa 0,0 l/m² 10,6 km/h (2 Bft) S 186 ° 2 min 98 W/m² 9,9 °C 9,8 °C 14,5 km/h (3 Bft)
09.02.2024 12:50 20,9 °C 12,2 °C 47 % 85 % 989,8 hPa 0,0 l/m² 9,4 km/h (2 Bft) S-SW 196 ° 2 min 83 W/m² 9,8 °C 10,3 °C 14,5 km/h (3 Bft)
09.02.2024 12:51 20,9 °C 12,2 °C 48 % 85 % 989,7 hPa 0,0 l/m² 9,0 km/h (2 Bft) S 184 ° 1 min 77 W/m² 9,8 °C 10,6 °C 11,3 km/h (2 Bft)
09.02.2024 12:53 20,9 °C 12,2 °C 48 % 85 % 989,7 hPa 0,0 l/m² 9,8 km/h (2 Bft) S-SW 196 ° 2 min 70 W/m² 9,8 °C 10,1 °C 14,5 km/h (3 Bft)
09.02.2024 12:54 20,9 °C 12,2 °C 48 % 85 % 989,7 hPa 0,0 l/m² 7,6 km/h (2 Bft) S-SW 194 ° 1 min 70 W/m² 9,8 °C 11,4 °C 9,7 km/h (2 Bft)
09.02.2024 12:56 20,9 °C 12,1 °C 48 % 86 % 989,7 hPa 0,0 l/m² 9,3 km/h (2 Bft) S 177 ° 2 min 109 W/m² 9,8 °C 10,3 °C 12,9 km/h (3 Bft)
09.02.2024 12:58 20,9 °C 12,1 °C 48 % 86 % 989,7 hPa 0,0 l/m² 9,7 km/h (2 Bft) S 190 ° 2 min 151 W/m² 9,8 °C 10,1 °C 14,5 km/h (3 Bft)
09.02.2024 13:00 20,9 °C 12,2 °C 48 % 86 % 989,6 hPa 0,0 l/m² 10,0 km/h (2 Bft) S 190 ° 2 min 258 W/m² 9,9 °C 10,0 °C 14,5 km/h (3 Bft)
09.02.2024 13:01 20,9 °C 12,2 °C 48 % 86 % 989,7 hPa 0,0 l/m² 8,6 km/h (2 Bft) S 178 ° 1 min 195 W/m² 9,9 °C 10,8 °C 12,9 km/h (3 Bft)
09.02.2024 13:03 20,9 °C 12,3 °C 48 % 86 % 989,7 hPa 0,0 l/m² 7,1 km/h (2 Bft) S 185 ° 2 min 241 W/m² 10,0 °C 11,8 °C 11,3 km/h (2 Bft)
09.02.2024 13:05 20,9 °C 12,4 °C 48 % 85 % 989,6 hPa 0,0 l/m² 9,3 km/h (2 Bft) S 177 ° 2 min 192 W/m² 9,9 °C 10,6 °C 12,9 km/h (3 Bft)
09.02.2024 13:07 20,9 °C 12,4 °C 48 % 85 % 989,6 hPa 0,0 l/m² 7,8 km/h (2 Bft) S 187 ° 2 min 151 W/m² 9,9 °C 11,5 °C 11,3 km/h (2 Bft)
09.02.2024 13:09 20,9 °C 12,4 °C 48 % 85 % 989,5 hPa 0,0 l/m² 7,3 km/h (2 Bft) S 186 ° 2 min 146 W/m² 9,9 °C 11,8 °C 11,3 km/h (2 Bft)
09.02.2024 13:11 20,9 °C 12,5 °C 48 % 85 % 989,6 hPa 0,0 l/m² 8,4 km/h (2 Bft) S 177 ° 2 min 139 W/m² 10,0 °C 11,2 °C 14,5 km/h (3 Bft)
09.02.2024 13:13 20,9 °C 12,5 °C 48 % 85 % 989,5 hPa 0,0 l/m² 9,0 km/h (2 Bft) S 169 ° 2 min 204 W/m² 10,0 °C 10,9 °C 14,5 km/h (3 Bft)
09.02.2024 13:15 20,9 °C 12,6 °C 48 % 85 % 989,5 hPa 0,0 l/m² 9,7 km/h (2 Bft) S-SO 167 ° 2 min 229 W/m² 10,1 °C 10,6 °C 14,5 km/h (3 Bft)
09.02.2024 13:17 20,9 °C 12,6 °C 48 % 86 % 989,5 hPa 0,0 l/m² 9,0 km/h (2 Bft) S-SO 162 ° 2 min 345 W/m² 10,3 °C 11,0 °C 11,3 km/h (2 Bft)
09.02.2024 13:19 20,9 °C 12,7 °C 48 % 86 % 989,4 hPa 0,0 l/m² 9,5 km/h (2 Bft) S-SO 161 ° 2 min 367 W/m² 10,4 °C 10,8 °C 14,5 km/h (3 Bft)
09.02.2024 13:21 20,9 °C 12,8 °C 48 % 86 % 989,4 hPa 0,0 l/m² 11,0 km/h (2 Bft) S-SO 163 ° 2 min 399 W/m² 10,5 °C 10,2 °C 16,1 km/h (3 Bft)
09.02.2024 13:23 20,9 °C 12,9 °C 48 % 86 % 989,5 hPa 0,0 l/m² 11,6 km/h (2 Bft) S-SO 160 ° 2 min 366 W/m² 10,6 °C 10,0 °C 17,7 km/h (3 Bft)
09.02.2024 13:25 20,9 °C 12,8 °C 48 % 85 % 989,4 hPa 0,0 l/m² 12,1 km/h (2 Bft) S-SO 155 ° 2 min 260 W/m² 10,3 °C 9,7 °C 16,1 km/h (3 Bft)
09.02.2024 13:27 20,9 °C 12,8 °C 48 % 86 % 989,3 hPa 0,0 l/m² 10,9 km/h (2 Bft) S-SO 160 ° 2 min 360 W/m² 10,5 °C 10,2 °C 16,1 km/h (3 Bft)
09.02.2024 13:29 20,9 °C 12,8 °C 48 % 86 % 989,3 hPa 0,0 l/m² 12,9 km/h (3 Bft) S-SO 159 ° 2 min 339 W/m² 10,5 °C 9,4 °C 16,1 km/h (3 Bft)
09.02.2024 13:31 20,9 °C 12,9 °C 48 % 86 % 989,2 hPa 0,0 l/m² 13,1 km/h (3 Bft) S 172 ° 2 min 345 W/m² 10,6 °C 9,4 °C 19,3 km/h (3 Bft)
09.02.2024 13:33 20,9 °C 12,9 °C 48 % 85 % 989,2 hPa 0,0 l/m² 13,6 km/h (3 Bft) S-SO 158 ° 2 min 381 W/m² 10,4 °C 9,2 °C 17,7 km/h (3 Bft)
09.02.2024 13:35 20,9 °C 12,9 °C 48 % 85 % 989,2 hPa 0,0 l/m² 14,1 km/h (3 Bft) S-SO 168 ° 2 min 257 W/m² 10,4 °C 9,0 °C 19,3 km/h (3 Bft)
09.02.2024 13:37 20,9 °C 12,9 °C 48 % 85 % 989,3 hPa 0,0 l/m² 13,6 km/h (3 Bft) S-SO 157 ° 2 min 350 W/m² 10,4 °C 9,2 °C 16,1 km/h (3 Bft)
09.02.2024 13:39 20,9 °C 12,9 °C 48 % 85 % 989,4 hPa 0,0 l/m² 16,0 km/h (3 Bft) S-SW 200 ° 2 min 338 W/m² 10,4 °C 8,3 °C 20,9 km/h (4 Bft)
09.02.2024 13:41 20,9 °C 13,1 °C 48 % 85 % 989,2 hPa 0,0 l/m² 16,6 km/h (3 Bft) S 169 ° 2 min 355 W/m² 10,6 °C 8,3 °C 25,7 km/h (4 Bft)
09.02.2024 13:43 20,9 °C 13,2 °C 48 % 85 % 989,3 hPa 0,0 l/m² 13,7 km/h (3 Bft) S 171 ° 2 min 350 W/m² 10,7 °C 9,5 °C 20,9 km/h (4 Bft)
09.02.2024 13:45 20,9 °C 13,2 °C 48 % 84 % 989,3 hPa 0,0 l/m² 17,3 km/h (3 Bft) S-SO 166 ° 2 min 315 W/m² 10,6 °C 8,2 °C 24,1 km/h (4 Bft)
09.02.2024 13:47 20,9 °C 13,2 °C 48 % 84 % 989,2 hPa 0,0 l/m² 17,5 km/h (3 Bft) S 174 ° 2 min 339 W/m² 10,6 °C 8,2 °C 27,4 km/h (5 Bft)
09.02.2024 13:49 20,9 °C 13,2 °C 48 % 84 % 989,2 hPa 0,0 l/m² 19,0 km/h (3 Bft) S 175 ° 2 min 327 W/m² 10,6 °C 7,7 °C 25,7 km/h (4 Bft)
09.02.2024 13:51 20,9 °C 13,2 °C 48 % 84 % 989,2 hPa 0,0 l/m² 19,2 km/h (3 Bft) S 171 ° 2 min 316 W/m² 10,6 °C 7,6 °C 30,6 km/h (5 Bft)
09.02.2024 13:53 20,9 °C 13,3 °C 48 % 84 % 989,2 hPa 0,0 l/m² 17,4 km/h (3 Bft) S 181 ° 2 min 276 W/m² 10,7 °C 8,3 °C 22,5 km/h (4 Bft)
09.02.2024 13:54 20,9 °C 13,2 °C 48 % 84 % 989,3 hPa 0,0 l/m² 18,6 km/h (3 Bft) S 182 ° 1 min 292 W/m² 10,6 °C 7,8 °C 24,1 km/h (4 Bft)
09.02.2024 13:55 20,9 °C 13,3 °C 48 % 84 % 989,3 hPa 0,0 l/m² 14,7 km/h (3 Bft) S 191 ° 1 min 246 W/m² 10,7 °C 9,2 °C 19,3 km/h (3 Bft)
09.02.2024 13:57 20,9 °C 13,3 °C 48 % 83 % 989,3 hPa 0,0 l/m² 18,5 km/h (3 Bft) S 186 ° 2 min 218 W/m² 10,5 °C 8,0 °C 25,7 km/h (4 Bft)
09.02.2024 13:59 20,9 °C 13,2 °C 48 % 83 % 989,3 hPa 0,0 l/m² 18,6 km/h (3 Bft) S 183 ° 2 min 195 W/m² 10,4 °C 7,8 °C 29,0 km/h (5 Bft)
09.02.2024 14:01 20,9 °C 13,2 °C 48 % 83 % 989,3 hPa 0,0 l/m² 18,4 km/h (3 Bft) S-SW 198 ° 2 min 188 W/m² 10,4 °C 7,9 °C 27,4 km/h (5 Bft)
09.02.2024 14:03 20,9 °C 13,2 °C 48 % 83 % 989,2 hPa 0,0 l/m² 16,8 km/h (3 Bft) S 187 ° 2 min 188 W/m² 10,4 °C 8,4 °C 20,9 km/h (4 Bft)
09.02.2024 14:05 20,9 °C 13,2 °C 48 % 83 % 989,3 hPa 0,0 l/m² 16,4 km/h (3 Bft) S-SW 192 ° 2 min 232 W/m² 10,4 °C 8,5 °C 24,1 km/h (4 Bft)
09.02.2024 14:07 20,9 °C 13,2 °C 48 % 83 % 989,2 hPa 0,0 l/m² 18,0 km/h (3 Bft) S 184 ° 2 min 232 W/m² 10,4 °C 8,0 °C 22,5 km/h (4 Bft)
09.02.2024 14:09 20,9 °C 13,2 °C 48 % 83 % 989,2 hPa 0,0 l/m² 16,3 km/h (3 Bft) S 170 ° 2 min 221 W/m² 10,4 °C 8,6 °C 22,5 km/h (4 Bft)
09.02.2024 14:11 20,9 °C 13,2 °C 48 % 83 % 989,3 hPa 0,0 l/m² 14,6 km/h (3 Bft) S-SW 192 ° 2 min 211 W/m² 10,4 °C 9,2 °C 22,5 km/h (4 Bft)
09.02.2024 14:13 20,9 °C 13,2 °C 48 % 83 % 989,3 hPa 0,0 l/m² 19,4 km/h (3 Bft) S-SW 198 ° 2 min 195 W/m² 10,4 °C 7,6 °C 24,1 km/h (4 Bft)
09.02.2024 14:15 20,9 °C 13,2 °C 48 % 82 % 989,3 hPa 0,0 l/m² 15,9 km/h (3 Bft) S-SW 205 ° 2 min 174 W/m² 10,2 °C 8,7 °C 22,5 km/h (4 Bft)
09.02.2024 14:17 20,9 °C 13,2 °C 48 % 83 % 989,3 hPa 0,0 l/m² 15,2 km/h (3 Bft) S 184 ° 2 min 167 W/m² 10,4 °C 8,9 °C 22,5 km/h (4 Bft)
09.02.2024 14:19 20,9 °C 13,2 °C 48 % 82 % 989,4 hPa 0,0 l/m² 17,6 km/h (3 Bft) S-SW 192 ° 2 min 172 W/m² 10,2 °C 8,1 °C 24,1 km/h (4 Bft)
09.02.2024 14:21 20,9 °C 13,2 °C 48 % 83 % 989,3 hPa 0,0 l/m² 14,6 km/h (3 Bft) S-SW 198 ° 2 min 185 W/m² 10,4 °C 9,2 °C 22,5 km/h (4 Bft)
09.02.2024 14:23 20,9 °C 13,2 °C 48 % 82 % 989,3 hPa 0,0 l/m² 17,4 km/h (3 Bft) S 180 ° 2 min 172 W/m² 10,2 °C 8,2 °C 24,1 km/h (4 Bft)
09.02.2024 14:25 20,9 °C 13,2 °C 48 % 83 % 989,3 hPa 0,0 l/m² 14,6 km/h (3 Bft) S-SW 200 ° 2 min 162 W/m² 10,4 °C 9,2 °C 20,9 km/h (4 Bft)
09.02.2024 14:27 20,9 °C 13,2 °C 48 % 83 % 989,2 hPa 0,0 l/m² 13,3 km/h (3 Bft) S 184 ° 2 min 163 W/m² 10,4 °C 9,7 °C 19,3 km/h (3 Bft)
09.02.2024 14:29 20,9 °C 13,1 °C 48 % 83 % 989,3 hPa 0,0 l/m² 14,8 km/h (3 Bft) S 173 ° 2 min 174 W/m² 10,3 °C 9,0 °C 17,7 km/h (3 Bft)
09.02.2024 14:31 20,9 °C 13,1 °C 48 % 82 % 989,3 hPa 0,0 l/m² 17,5 km/h (3 Bft) S 188 ° 2 min 167 W/m² 10,1 °C 8,0 °C 25,7 km/h (4 Bft)
09.02.2024 14:33 20,9 °C 13,1 °C 48 % 83 % 989,4 hPa 0,0 l/m² 16,3 km/h (3 Bft) S 188 ° 2 min 162 W/m² 10,3 °C 8,4 °C 22,5 km/h (4 Bft)
09.02.2024 14:35 20,9 °C 13,1 °C 48 % 82 % 989,3 hPa 0,0 l/m² 15,4 km/h (3 Bft) S-SW 196 ° 2 min 155 W/m² 10,1 °C 8,7 °C 20,9 km/h (4 Bft)
09.02.2024 14:37 20,9 °C 13,1 °C 48 % 82 % 989,3 hPa 0,0 l/m² 16,2 km/h (3 Bft) S 188 ° 2 min 153 W/m² 10,1 °C 8,5 °C 22,5 km/h (4 Bft)
09.02.2024 14:39 20,9 °C 13,1 °C 48 % 82 % 989,5 hPa 0,0 l/m² 13,0 km/h (3 Bft) S 190 ° 2 min 151 W/m² 10,1 °C 9,7 °C 16,1 km/h (3 Bft)
09.02.2024 14:41 20,9 °C 13,0 °C 48 % 83 % 989,4 hPa 0,0 l/m² 11,4 km/h (2 Bft) S-SW 201 ° 2 min 142 W/m² 10,2 °C 10,2 °C 14,5 km/h (3 Bft)
09.02.2024 14:43 20,9 °C 13,0 °C 48 % 83 % 989,5 hPa 0,0 l/m² 11,6 km/h (2 Bft) S 184 ° 2 min 146 W/m² 10,2 °C 10,1 °C 14,5 km/h (3 Bft)
09.02.2024 14:45 20,9 °C 12,9 °C 48 % 83 % 989,5 hPa 0,0 l/m² 12,7 km/h (3 Bft) S 172 ° 2 min 144 W/m² 10,1 °C 9,6 °C 16,1 km/h (3 Bft)
09.02.2024 14:47 20,9 °C 13,0 °C 48 % 83 % 989,4 hPa 0,0 l/m² 12,9 km/h (3 Bft) S 184 ° 2 min 132 W/m² 10,2 °C 9,6 °C 16,1 km/h (3 Bft)
09.02.2024 14:49 20,9 °C 13,0 °C 48 % 83 % 989,4 hPa 0,0 l/m² 12,8 km/h (3 Bft) S-SO 164 ° 2 min 120 W/m² 10,2 °C 9,6 °C 19,3 km/h (3 Bft)
09.02.2024 14:51 20,9 °C 13,0 °C 48 % 83 % 989,4 hPa 0,0 l/m² 12,5 km/h (2 Bft) S 174 ° 2 min 113 W/m² 10,2 °C 9,8 °C 16,1 km/h (3 Bft)
09.02.2024 14:53 20,9 °C 12,9 °C 48 % 84 % 989,4 hPa 0,0 l/m² 11,9 km/h (2 Bft) S 178 ° 2 min 105 W/m² 10,3 °C 9,9 °C 16,1 km/h (3 Bft)
09.02.2024 14:55 20,9 °C 12,9 °C 48 % 83 % 989,4 hPa 0,0 l/m² 12,5 km/h (2 Bft) S 186 ° 2 min 105 W/m² 10,1 °C 9,6 °C 16,1 km/h (3 Bft)
09.02.2024 14:57 20,9 °C 12,9 °C 49 % 84 % 989,4 hPa 0,0 l/m² 10,1 km/h (2 Bft) S 175 ° 2 min 113 W/m² 10,3 °C 10,7 °C 19,3 km/h (3 Bft)
09.02.2024 14:59 20,9 °C 12,9 °C 49 % 83 % 989,4 hPa 0,0 l/m² 11,1 km/h (2 Bft) S 176 ° 2 min 134 W/m² 10,1 °C 10,3 °C 17,7 km/h (3 Bft)
09.02.2024 15:01 20,9 °C 13,0 °C 49 % 83 % 989,3 hPa 0,0 l/m² 8,9 km/h (2 Bft) S 177 ° 2 min 132 W/m² 10,2 °C 11,5 °C 16,1 km/h (3 Bft)
09.02.2024 15:03 21,0 °C 13,0 °C 49 % 83 % 989,3 hPa 0,0 l/m² 8,7 km/h (2 Bft) S 175 ° 2 min 132 W/m² 10,2 °C 11,6 °C 12,9 km/h (3 Bft)
09.02.2024 15:05 21,0 °C 13,1 °C 49 % 83 % 989,4 hPa 0,0 l/m² 11,8 km/h (2 Bft) S 183 ° 2 min 128 W/m² 10,3 °C 10,2 °C 14,5 km/h (3 Bft)
09.02.2024 15:07 21,0 °C 13,1 °C 49 % 82 % 989,4 hPa 0,0 l/m² 9,2 km/h (2 Bft) S 190 ° 2 min 118 W/m² 10,1 °C 11,4 °C 12,9 km/h (3 Bft)
09.02.2024 15:09 21,1 °C 13,1 °C 49 % 83 % 989,3 hPa 0,0 l/m² 7,2 km/h (2 Bft) S 179 ° 2 min 111 W/m² 10,3 °C 12,6 °C 9,7 km/h (2 Bft)
09.02.2024 15:11 21,1 °C 13,1 °C 49 % 83 % 989,4 hPa 0,0 l/m² 7,0 km/h (2 Bft) S 179 ° 2 min 105 W/m² 10,3 °C 12,7 °C 11,3 km/h (2 Bft)
09.02.2024 15:13 21,1 °C 13,0 °C 49 % 84 % 989,4 hPa 0,0 l/m² 4,9 km/h (1 Bft) S 180 ° 2 min 113 W/m² 10,4 °C 13,0 °C 8,0 km/h (2 Bft)
09.02.2024 15:15 21,1 °C 12,9 °C 49 % 84 % 989,4 hPa 0,0 l/m² 7,1 km/h (2 Bft) S 177 ° 2 min 116 W/m² 10,3 °C 12,5 °C 12,9 km/h (3 Bft)
09.02.2024 15:17 21,1 °C 13,0 °C 49 % 83 % 989,6 hPa 0,0 l/m² 9,6 km/h (2 Bft) S-SW 200 ° 2 min 111 W/m² 10,2 °C 11,1 °C 12,9 km/h (3 Bft)
09.02.2024 15:19 21,1 °C 13,0 °C 49 % 84 % 989,6 hPa 0,0 l/m² 7,6 km/h (2 Bft) S 189 ° 2 min 97 W/m² 10,4 °C 12,2 °C 11,3 km/h (2 Bft)
09.02.2024 15:21 21,2 °C 13,0 °C 49 % 83 % 989,6 hPa 0,0 l/m² 7,9 km/h (2 Bft) S 183 ° 2 min 81 W/m² 10,2 °C 12,1 °C 11,3 km/h (2 Bft)
09.02.2024 15:22 21,2 °C 13,0 °C 49 % 83 % 989,5 hPa 0,0 l/m² 6,6 km/h (2 Bft) S 183 ° 1 min 76 W/m² 10,2 °C 12,9 °C 8,0 km/h (2 Bft)
09.02.2024 15:23 21,2 °C 13,0 °C 49 % 83 % 989,5 hPa 0,0 l/m² 8,4 km/h (2 Bft) S 180 ° 1 min 72 W/m² 10,2 °C 11,8 °C 11,3 km/h (2 Bft)
09.02.2024 15:25 21,2 °C 13,0 °C 49 % 83 % 989,6 hPa 0,0 l/m² 7,1 km/h (2 Bft) S 182 ° 2 min 69 W/m² 10,2 °C 12,6 °C 9,7 km/h (2 Bft)
09.02.2024 15:27 21,2 °C 12,9 °C 49 % 84 % 989,5 hPa 0,0 l/m² 7,4 km/h (2 Bft) S 181 ° 2 min 65 W/m² 10,3 °C 12,3 °C 8,0 km/h (2 Bft)
09.02.2024 15:29 21,2 °C 12,9 °C 50 % 83 % 989,6 hPa 0,0 l/m² 6,7 km/h (2 Bft) S 181 ° 2 min 67 W/m² 10,1 °C 12,7 °C 8,0 km/h (2 Bft)
09.02.2024 15:31 21,2 °C 12,9 °C 50 % 84 % 989,6 hPa 0,0 l/m² 6,1 km/h (2 Bft) S 181 ° 2 min 67 W/m² 10,3 °C 12,9 °C 8,0 km/h (2 Bft)
09.02.2024 15:33 21,2 °C 12,8 °C 50 % 84 % 989,5 hPa 0,0 l/m² 5,8 km/h (2 Bft) S 175 ° 2 min 60 W/m² 10,2 °C 12,8 °C 9,7 km/h (2 Bft)
09.02.2024 15:35 21,2 °C 12,8 °C 50 % 84 % 989,5 hPa 0,0 l/m² 8,6 km/h (2 Bft) S 178 ° 2 min 54 W/m² 10,2 °C 11,4 °C 14,5 km/h (3 Bft)
09.02.2024 15:37 21,2 °C 12,8 °C 50 % 84 % 989,5 hPa 0,0 l/m² 7,8 km/h (2 Bft) S 180 ° 0 min 49 W/m² 10,2 °C 11,9 °C 9,7 km/h (2 Bft)
09.02.2024 15:39 21,2 °C 12,8 °C 50 % 84 % 989,6 hPa 0,0 l/m² 9,8 km/h (2 Bft) S 184 ° 0 min 40 W/m² 10,2 °C 10,8 °C 12,9 km/h (3 Bft)
09.02.2024 15:41 21,2 °C 12,8 °C 50 % 84 % 989,5 hPa 0,0 l/m² 7,4 km/h (2 Bft) S 186 ° 0 min 40 W/m² 10,2 °C 12,2 °C 11,3 km/h (2 Bft)
09.02.2024 15:43 21,2 °C 12,7 °C 50 % 84 % 989,6 hPa 0,0 l/m² 9,3 km/h (2 Bft) S 187 ° 0 min 42 W/m² 10,1 °C 10,9 °C 12,9 km/h (3 Bft)
09.02.2024 15:44 21,2 °C 12,7 °C 50 % 84 % 989,5 hPa 0,0 l/m² 7,9 km/h (2 Bft) S 184 ° 0 min 46 W/m² 10,1 °C 11,7 °C 9,7 km/h (2 Bft)
09.02.2024 15:46 21,3 °C 12,7 °C 50 % 84 % 989,6 hPa 0,0 l/m² 9,0 km/h (2 Bft) S 184 ° 0 min 46 W/m² 10,1 °C 11,1 °C 12,9 km/h (3 Bft)
09.02.2024 15:48 21,2 °C 12,7 °C 50 % 84 % 989,5 hPa 0,0 l/m² 11,6 km/h (2 Bft) S 185 ° 0 min 42 W/m² 10,1 °C 9,8 °C 16,1 km/h (3 Bft)
09.02.2024 15:50 21,2 °C 12,7 °C 50 % 84 % 989,6 hPa 0,0 l/m² 9,3 km/h (2 Bft) S 187 ° 0 min 40 W/m² 10,1 °C 10,9 °C 11,3 km/h (2 Bft)
09.02.2024 15:52 21,2 °C 12,7 °C 49 % 84 % 989,5 hPa 0,0 l/m² 10,4 km/h (2 Bft) S 188 ° 0 min 40 W/m² 10,1 °C 10,4 °C 14,5 km/h (3 Bft)
09.02.2024 15:54 21,2 °C 12,6 °C 49 % 84 % 989,5 hPa 0,0 l/m² 12,2 km/h (2 Bft) S-SW 193 ° 0 min 44 W/m² 10,0 °C 9,4 °C 19,3 km/h (3 Bft)
09.02.2024 15:56 21,2 °C 12,7 °C 49 % 84 % 989,6 hPa 0,0 l/m² 10,2 km/h (2 Bft) S-SW 194 ° 0 min 44 W/m² 10,1 °C 10,5 °C 12,9 km/h (3 Bft)
09.02.2024 15:58 21,2 °C 12,7 °C 49 % 84 % 989,5 hPa 0,0 l/m² 10,7 km/h (2 Bft) S-SW 202 ° 0 min 40 W/m² 10,1 °C 10,2 °C 14,5 km/h (3 Bft)
09.02.2024 16:00 21,2 °C 12,7 °C 49 % 84 % 989,5 hPa 0,0 l/m² 10,3 km/h (2 Bft) S-SW 196 ° 0 min 37 W/m² 10,1 °C 10,4 °C 16,1 km/h (3 Bft)
09.02.2024 16:02 21,2 °C 12,6 °C 49 % 84 % 989,5 hPa 0,0 l/m² 9,2 km/h (2 Bft) S-SW 196 ° 0 min 28 W/m² 10,0 °C 10,9 °C 11,3 km/h (2 Bft)
09.02.2024 16:04 21,2 °C 12,6 °C 49 % 84 % 989,6 hPa 0,0 l/m² 9,7 km/h (2 Bft) S-SW 196 ° 0 min 26 W/m² 10,0 °C 10,6 °C 12,9 km/h (3 Bft)
09.02.2024 16:06 21,2 °C 12,6 °C 49 % 83 % 989,5 hPa 0,0 l/m² 8,8 km/h (2 Bft) S-SW 195 ° 0 min 25 W/m² 9,8 °C 11,1 °C 14,5 km/h (3 Bft)
09.02.2024 16:08 21,2 °C 12,6 °C 49 % 83 % 989,6 hPa 0,0 l/m² 10,2 km/h (2 Bft) S 191 ° 0 min 25 W/m² 9,8 °C 10,4 °C 12,9 km/h (3 Bft)
09.02.2024 16:10 21,2 °C 12,6 °C 49 % 83 % 989,6 hPa 0,0 l/m² 10,3 km/h (2 Bft) S-SW 196 ° 0 min 21 W/m² 9,8 °C 10,3 °C 12,9 km/h (3 Bft)
09.02.2024 16:12 21,2 °C 12,7 °C 49 % 83 % 989,6 hPa 0,0 l/m² 8,8 km/h (2 Bft) S-SW 196 ° 0 min 19 W/m² 9,9 °C 11,2 °C 12,9 km/h (3 Bft)
09.02.2024 16:14 21,2 °C 12,6 °C 49 % 84 % 989,6 hPa 0,0 l/m² 7,3 km/h (2 Bft) S-SW 193 ° 0 min 18 W/m² 10,0 °C 12,0 °C 9,7 km/h (2 Bft)
09.02.2024 16:16 21,2 °C 12,5 °C 49 % 84 % 989,6 hPa 0,0 l/m² 8,5 km/h (2 Bft) S 190 ° 0 min 18 W/m² 9,9 °C 11,2 °C 11,3 km/h (2 Bft)
09.02.2024 16:18 21,2 °C 12,4 °C 49 % 83 % 989,6 hPa 0,0 l/m² 9,6 km/h (2 Bft) S-SW 196 ° 0 min 18 W/m² 9,6 °C 10,5 °C 12,9 km/h (3 Bft)
09.02.2024 16:20 21,2 °C 12,4 °C 49 % 83 % 989,7 hPa 0,0 l/m² 8,7 km/h (2 Bft) S-SW 195 ° 0 min 18 W/m² 9,6 °C 11,0 °C 11,3 km/h (2 Bft)
09.02.2024 16:22 21,2 °C 12,4 °C 49 % 83 % 989,6 hPa 0,0 l/m² 8,8 km/h (2 Bft) S 184 ° 0 min 21 W/m² 9,6 °C 10,9 °C 12,9 km/h (3 Bft)
09.02.2024 16:24 21,1 °C 12,4 °C 49 % 84 % 989,6 hPa 0,0 l/m² 7,2 km/h (2 Bft) S 184 ° 0 min 21 W/m² 9,8 °C 11,9 °C 9,7 km/h (2 Bft)
09.02.2024 16:26 21,2 °C 12,4 °C 49 % 84 % 989,5 hPa 0,0 l/m² 5,7 km/h (2 Bft) S 176 ° 0 min 28 W/m² 9,8 °C 12,4 °C 8,0 km/h (2 Bft)
09.02.2024 16:28 21,1 °C 12,4 °C 49 % 83 % 989,5 hPa 0,0 l/m² 6,6 km/h (2 Bft) S 178 ° 0 min 28 W/m² 9,6 °C 12,3 °C 11,3 km/h (2 Bft)
09.02.2024 16:30 21,1 °C 12,4 °C 49 % 84 % 989,6 hPa 0,0 l/m² 6,5 km/h (2 Bft) S 181 ° 0 min 32 W/m² 9,8 °C 12,4 °C 9,7 km/h (2 Bft)
09.02.2024 16:32 21,1 °C 12,3 °C 49 % 84 % 989,5 hPa 0,0 l/m² 6,0 km/h (2 Bft) S 181 ° 0 min 28 W/m² 9,7 °C 12,3 °C 8,0 km/h (2 Bft)
09.02.2024 16:34 21,1 °C 12,3 °C 49 % 84 % 989,5 hPa 0,0 l/m² 6,5 km/h (2 Bft) S 182 ° 0 min 25 W/m² 9,7 °C 12,3 °C 9,7 km/h (2 Bft)
09.02.2024 16:36 21,1 °C 12,3 °C 49 % 84 % 989,6 hPa 0,0 l/m² 6,6 km/h (2 Bft) S 182 ° 0 min 21 W/m² 9,7 °C 12,2 °C 9,7 km/h (2 Bft)
09.02.2024 16:38 21,1 °C 12,3 °C 49 % 84 % 989,5 hPa 0,0 l/m² 5,6 km/h (2 Bft) S 182 ° 0 min 14 W/m² 9,7 °C 12,3 °C 6,4 km/h (2 Bft)
09.02.2024 16:40 21,1 °C 12,3 °C 49 % 84 % 989,4 hPa 0,0 l/m² 4,2 km/h (1 Bft) S 182 ° 0 min 11 W/m² 9,7 °C 12,3 °C 8,0 km/h (2 Bft)
09.02.2024 16:42 21,1 °C 12,2 °C 49 % 84 % 989,5 hPa 0,0 l/m² 4,6 km/h (1 Bft) S 181 ° 0 min 11 W/m² 9,6 °C 12,2 °C 8,0 km/h (2 Bft)
09.02.2024 16:43 21,1 °C 12,2 °C 49 % 84 % 989,5 hPa 0,0 l/m² 3,3 km/h (1 Bft) S 181 ° 0 min 9 W/m² 9,6 °C 12,2 °C 4,8 km/h (1 Bft)
09.02.2024 16:44 21,1 °C 12,2 °C 49 % 84 % 989,4 hPa 0,0 l/m² 2,7 km/h (1 Bft) S 181 ° 0 min 9 W/m² 9,6 °C 12,2 °C 3,2 km/h (1 Bft)
09.02.2024 16:45 21,1 °C 12,2 °C 49 % 84 % 989,4 hPa 0,0 l/m² 2,2 km/h (1 Bft) S 181 ° 0 min 9 W/m² 9,6 °C 12,2 °C 3,2 km/h (1 Bft)
09.02.2024 16:47 21,1 °C 12,2 °C 49 % 84 % 989,4 hPa 0,0 l/m² 3,2 km/h (1 Bft) S 181 ° 0 min 7 W/m² 9,6 °C 12,2 °C 4,8 km/h (1 Bft)
09.02.2024 16:49 21,1 °C 12,2 °C 49 % 84 % 989,4 hPa 0,0 l/m² 3,6 km/h (1 Bft) S 181 ° 0 min 7 W/m² 9,6 °C 12,2 °C 4,8 km/h (1 Bft)
09.02.2024 16:51 21,1 °C 12,2 °C 49 % 84 % 989,5 hPa 0,0 l/m² 2,8 km/h (1 Bft) S 181 ° 0 min 5 W/m² 9,6 °C 12,2 °C 4,8 km/h (1 Bft)
09.02.2024 16:53 21,1 °C 12,2 °C 49 % 84 % 989,4 hPa 0,0 l/m² 3,1 km/h (1 Bft) S 181 ° 0 min 5 W/m² 9,6 °C 12,2 °C 6,4 km/h (2 Bft)
09.02.2024 16:55 21,1 °C 12,2 °C 49 % 84 % 989,4 hPa 0,0 l/m² 4,3 km/h (1 Bft) S 180 ° 0 min 5 W/m² 9,6 °C 12,2 °C 6,4 km/h (2 Bft)
09.02.2024 16:57 21,1 °C 12,2 °C 49 % 84 % 989,4 hPa 0,0 l/m² 3,6 km/h (1 Bft) S 180 ° 0 min 5 W/m² 9,6 °C 12,2 °C 4,8 km/h (1 Bft)
09.02.2024 16:59 21,1 °C 12,2 °C 49 % 84 % 989,5 hPa 0,0 l/m² 4,6 km/h (1 Bft) S 178 ° 0 min 5 W/m² 9,6 °C 12,2 °C 6,4 km/h (2 Bft)
09.02.2024 17:01 21,1 °C 12,2 °C 49 % 84 % 989,4 hPa 0,0 l/m² 3,1 km/h (1 Bft) S 178 ° 0 min 0 W/m² 9,6 °C 12,2 °C 4,8 km/h (1 Bft)
09.02.2024 17:03 21,1 °C 12,2 °C 49 % 84 % 989,4 hPa 0,0 l/m² 3,5 km/h (1 Bft) S 178 ° 0 min 0 W/m² 9,6 °C 12,2 °C 6,4 km/h (2 Bft)
09.02.2024 17:05 21,1 °C 12,2 °C 49 % 84 % 989,5 hPa 0,0 l/m² 4,1 km/h (1 Bft) S 178 ° 0 min 0 W/m² 9,6 °C 12,2 °C 6,4 km/h (2 Bft)
09.02.2024 17:07 21,1 °C 12,1 °C 49 % 84 % 989,5 hPa 0,0 l/m² 3,4 km/h (1 Bft) S 178 ° 0 min 0 W/m² 9,5 °C 12,1 °C 6,4 km/h (2 Bft)
09.02.2024 17:09 21,1 °C 12,1 °C 49 % 84 % 989,5 hPa 0,0 l/m² 3,2 km/h (1 Bft) S 178 ° 0 min 0 W/m² 9,5 °C 12,1 °C 6,4 km/h (2 Bft)
09.02.2024 17:11 21,1 °C 12,1 °C 49 % 84 % 989,4 hPa 0,0 l/m² 2,5 km/h (1 Bft) S 178 ° 0 min 0 W/m² 9,5 °C 12,1 °C 4,8 km/h (1 Bft)
09.02.2024 17:13 21,1 °C 12,1 °C 49 % 84 % 989,4 hPa 0,0 l/m² 3,0 km/h (1 Bft) S 178 ° 0 min 0 W/m² 9,5 °C 12,1 °C 4,8 km/h (1 Bft)
09.02.2024 17:15 21,1 °C 12,1 °C 49 % 84 % 989,4 hPa 0,0 l/m² 2,9 km/h (1 Bft) S 178 ° 0 min 0 W/m² 9,5 °C 12,1 °C 6,4 km/h (2 Bft)
09.02.2024 17:16 21,1 °C 12,1 °C 49 % 84 % 989,4 hPa 0,0 l/m² 4,1 km/h (1 Bft) S 175 ° 0 min 0 W/m² 9,5 °C 12,1 °C 6,4 km/h (2 Bft)
09.02.2024 17:18 21,0 °C 12,1 °C 49 % 84 % 989,4 hPa 0,0 l/m² 3,4 km/h (1 Bft) S 175 ° 0 min 0 W/m² 9,5 °C 12,1 °C 6,4 km/h (2 Bft)
09.02.2024 17:20 21,0 °C 12,1 °C 49 % 84 % 989,4 hPa 0,0 l/m² 3,6 km/h (1 Bft) S 175 ° 0 min 0 W/m² 9,5 °C 12,1 °C 4,8 km/h (1 Bft)
09.02.2024 17:22 21,1 °C 12,1 °C 49 % 84 % 989,4 hPa 0,0 l/m² 5,6 km/h (2 Bft) S-SO 154 ° 0 min 0 W/m² 9,5 °C 12,1 °C 11,3 km/h (2 Bft)
09.02.2024 17:24 21,1 °C 12,1 °C 49 % 84 % 989,3 hPa 0,0 l/m² 4,8 km/h (1 Bft) S-SO 154 ° 0 min 0 W/m² 9,5 °C 12,1 °C 9,7 km/h (2 Bft)
09.02.2024 17:26 21,1 °C 12,0 °C 49 % 84 % 989,4 hPa 0,0 l/m² 5,1 km/h (1 Bft) S-SO 155 ° 0 min 0 W/m² 9,4 °C 12,0 °C 9,7 km/h (2 Bft)
09.02.2024 17:28 21,1 °C 12,0 °C 49 % 84 % 989,3 hPa 0,0 l/m² 4,0 km/h (1 Bft) S-SO 155 ° 0 min 0 W/m² 9,4 °C 12,0 °C 6,4 km/h (2 Bft)
09.02.2024 17:30 21,1 °C 12,0 °C 49 % 84 % 989,4 hPa 0,0 l/m² 4,9 km/h (1 Bft) S-SO 161 ° 0 min 0 W/m² 9,4 °C 12,0 °C 9,7 km/h (2 Bft)
09.02.2024 17:32 21,1 °C 11,9 °C 49 % 84 % 989,4 hPa 0,0 l/m² 8,5 km/h (2 Bft) S-SO 166 ° 0 min 0 W/m² 9,3 °C 10,5 °C 11,3 km/h (2 Bft)
09.02.2024 17:34 21,1 °C 11,9 °C 49 % 84 % 989,4 hPa 0,0 l/m² 8,8 km/h (2 Bft) S 169 ° 0 min 0 W/m² 9,3 °C 10,4 °C 14,5 km/h (3 Bft)
09.02.2024 17:36 21,1 °C 11,8 °C 49 % 84 % 989,4 hPa 0,0 l/m² 8,6 km/h (2 Bft) S 171 ° 0 min 0 W/m² 9,2 °C 10,4 °C 11,3 km/h (2 Bft)
09.02.2024 17:38 21,1 °C 11,8 °C 49 % 84 % 989,4 hPa 0,0 l/m² 9,3 km/h (2 Bft) S 174 ° 0 min 0 W/m² 9,2 °C 10,0 °C 11,3 km/h (2 Bft)
09.02.2024 17:40 21,1 °C 11,8 °C 49 % 84 % 989,5 hPa 0,0 l/m² 8,5 km/h (2 Bft) S 175 ° 0 min 0 W/m² 9,2 °C 10,4 °C 12,9 km/h (3 Bft)
09.02.2024 17:42 21,1 °C 11,7 °C 49 % 84 % 989,4 hPa 0,0 l/m² 8,1 km/h (2 Bft) S 175 ° 0 min 0 W/m² 9,1 °C 10,6 °C 12,9 km/h (3 Bft)
09.02.2024 17:44 21,1 °C 11,7 °C 49 % 84 % 989,4 hPa 0,0 l/m² 7,6 km/h (2 Bft) S 173 ° 0 min 0 W/m² 9,1 °C 10,9 °C 11,3 km/h (2 Bft)
09.02.2024 17:46 21,1 °C 11,7 °C 49 % 85 % 989,5 hPa 0,0 l/m² 8,0 km/h (2 Bft) S 172 ° 0 min 0 W/m² 9,3 °C 10,6 °C 12,9 km/h (3 Bft)
09.02.2024 17:48 21,1 °C 11,6 °C 49 % 85 % 989,4 hPa 0,0 l/m² 8,5 km/h (2 Bft) S 171 ° 0 min 0 W/m² 9,2 °C 10,2 °C 11,3 km/h (2 Bft)
09.02.2024 17:50 21,1 °C 11,6 °C 49 % 85 % 989,6 hPa 0,0 l/m² 7,6 km/h (2 Bft) S 172 ° 0 min 0 W/m² 9,2 °C 10,8 °C 11,3 km/h (2 Bft)
09.02.2024 17:51 21,1 °C 11,6 °C 49 % 85 % 989,5 hPa 0,0 l/m² 6,7 km/h (2 Bft) S 170 ° 0 min 0 W/m² 9,2 °C 11,4 °C 9,7 km/h (2 Bft)
09.02.2024 17:53 21,1 °C 11,6 °C 50 % 85 % 989,5 hPa 0,0 l/m² 8,1 km/h (2 Bft) S-SO 168 ° 0 min 0 W/m² 9,2 °C 10,5 °C 11,3 km/h (2 Bft)
09.02.2024 17:55 21,1 °C 11,6 °C 50 % 85 % 989,6 hPa 0,0 l/m² 9,0 km/h (2 Bft) S-SO 167 ° 0 min 0 W/m² 9,2 °C 9,9 °C 12,9 km/h (3 Bft)
09.02.2024 17:57 21,1 °C 11,5 °C 50 % 85 % 989,6 hPa 0,0 l/m² 5,7 km/h (2 Bft) S-SO 167 ° 0 min 0 W/m² 9,1 °C 11,5 °C 9,7 km/h (2 Bft)
09.02.2024 17:59 21,1 °C 11,5 °C 50 % 85 % 989,6 hPa 0,0 l/m² 4,1 km/h (1 Bft) S-SO 165 ° 0 min 0 W/m² 9,1 °C 11,5 °C 9,7 km/h (2 Bft)
09.02.2024 18:01 21,1 °C 11,4 °C 50 % 85 % 989,6 hPa 0,0 l/m² 6,6 km/h (2 Bft) S-SO 165 ° 0 min 0 W/m² 9,0 °C 11,3 °C 9,7 km/h (2 Bft)
09.02.2024 18:03 21,1 °C 11,5 °C 50 % 85 % 989,6 hPa 0,0 l/m² 7,7 km/h (2 Bft) S 169 ° 0 min 0 W/m² 9,1 °C 10,6 °C 14,5 km/h (3 Bft)
09.02.2024 18:05 21,1 °C 11,4 °C 49 % 85 % 989,5 hPa 0,0 l/m² 6,8 km/h (2 Bft) S 169 ° 0 min 0 W/m² 9,0 °C 11,1 °C 11,3 km/h (2 Bft)
09.02.2024 18:07 21,1 °C 11,4 °C 49 % 85 % 989,5 hPa 0,0 l/m² 7,2 km/h (2 Bft) S-SO 167 ° 0 min 0 W/m² 9,0 °C 10,9 °C 9,7 km/h (2 Bft)
09.02.2024 18:09 21,1 °C 11,4 °C 50 % 85 % 989,6 hPa 0,0 l/m² 6,3 km/h (2 Bft) S-SO 167 ° 0 min 0 W/m² 9,0 °C 11,4 °C 9,7 km/h (2 Bft)
09.02.2024 18:11 21,1 °C 11,4 °C 49 % 85 % 989,5 hPa 0,0 l/m² 6,3 km/h (2 Bft) S-SO 165 ° 0 min 0 W/m² 9,0 °C 11,4 °C 9,7 km/h (2 Bft)
09.02.2024 18:13 21,1 °C 11,4 °C 49 % 85 % 989,5 hPa 0,0 l/m² 7,1 km/h (2 Bft) S-SO 163 ° 0 min 0 W/m² 9,0 °C 10,9 °C 11,3 km/h (2 Bft)
09.02.2024 18:15 21,1 °C 11,4 °C 49 % 85 % 989,5 hPa 0,0 l/m² 7,9 km/h (2 Bft) S-SO 163 ° 0 min 0 W/m² 9,0 °C 10,4 °C 11,3 km/h (2 Bft)
09.02.2024 18:17 21,1 °C 11,4 °C 49 % 85 % 989,6 hPa 0,0 l/m² 8,4 km/h (2 Bft) S-SO 161 ° 0 min 0 W/m² 9,0 °C 10,1 °C 11,3 km/h (2 Bft)
09.02.2024 18:19 21,1 °C 11,4 °C 49 % 85 % 989,5 hPa 0,0 l/m² 7,4 km/h (2 Bft) S-SO 161 ° 0 min 0 W/m² 9,0 °C 10,7 °C 9,7 km/h (2 Bft)
09.02.2024 18:21 21,1 °C 11,4 °C 49 % 85 % 989,3 hPa 0,0 l/m² 9,1 km/h (2 Bft) S-SO 163 ° 0 min 0 W/m² 9,0 °C 9,6 °C 12,9 km/h (3 Bft)
09.02.2024 18:23 21,1 °C 11,4 °C 49 % 85 % 989,3 hPa 0,0 l/m² 9,2 km/h (2 Bft) S-SO 165 ° 0 min 0 W/m² 9,0 °C 9,6 °C 14,5 km/h (3 Bft)
09.02.2024 18:25 21,1 °C 11,4 °C 49 % 85 % 989,3 hPa 0,0 l/m² 9,9 km/h (2 Bft) S-SO 167 ° 0 min 0 W/m² 9,0 °C 9,2 °C 12,9 km/h (3 Bft)
09.02.2024 18:26 21,1 °C 11,4 °C 49 % 85 % 989,4 hPa 0,0 l/m² 11,1 km/h (2 Bft) S 169 ° 0 min 0 W/m² 9,0 °C 8,6 °C 14,5 km/h (3 Bft)
09.02.2024 18:28 21,1 °C 11,4 °C 49 % 85 % 989,4 hPa 0,0 l/m² 11,2 km/h (2 Bft) S-SO 167 ° 0 min 0 W/m² 9,0 °C 8,5 °C 16,1 km/h (3 Bft)
09.02.2024 18:30 21,1 °C 11,4 °C 49 % 85 % 989,4 hPa 0,0 l/m² 10,7 km/h (2 Bft) S 169 ° 0 min 0 W/m² 9,0 °C 8,8 °C 16,1 km/h (3 Bft)
09.02.2024 18:32 21,1 °C 11,4 °C 49 % 85 % 989,4 hPa 0,0 l/m² 10,4 km/h (2 Bft) S 169 ° 0 min 0 W/m² 9,0 °C 8,9 °C 17,7 km/h (3 Bft)
09.02.2024 18:34 21,1 °C 11,4 °C 50 % 85 % 989,4 hPa 0,0 l/m² 12,2 km/h (2 Bft) S 173 ° 0 min 0 W/m² 9,0 °C 8,0 °C 19,3 km/h (3 Bft)
09.02.2024 18:36 21,1 °C 11,4 °C 50 % 85 % 989,8 hPa 0,0 l/m² 12,4 km/h (2 Bft) S 176 ° 0 min 0 W/m² 9,0 °C 7,9 °C 20,9 km/h (4 Bft)
09.02.2024 18:38 21,1 °C 11,4 °C 51 % 85 % 989,4 hPa 0,0 l/m² 9,0 km/h (2 Bft) S 184 ° 0 min 0 W/m² 9,0 °C 9,7 °C 11,3 km/h (2 Bft)
09.02.2024 18:40 21,1 °C 11,4 °C 51 % 85 % 989,4 hPa 0,0 l/m² 9,0 km/h (2 Bft) S 175 ° 0 min 0 W/m² 9,0 °C 9,7 °C 11,3 km/h (2 Bft)
09.02.2024 18:42 21,1 °C 11,4 °C 52 % 85 % 989,4 hPa 0,0 l/m² 9,8 km/h (2 Bft) S 169 ° 0 min 0 W/m² 9,0 °C 9,3 °C 14,5 km/h (3 Bft)
09.02.2024 18:44 21,1 °C 11,3 °C 52 % 85 % 989,5 hPa 0,0 l/m² 9,2 km/h (2 Bft) S-SO 168 ° 0 min 0 W/m² 8,9 °C 9,5 °C 14,5 km/h (3 Bft)
09.02.2024 18:45 21,1 °C 11,3 °C 52 % 85 % 989,6 hPa 0,0 l/m² 9,8 km/h (2 Bft) S-SO 168 ° 0 min 0 W/m² 8,9 °C 9,1 °C 14,5 km/h (3 Bft)
09.02.2024 18:47 21,1 °C 11,3 °C 52 % 85 % 989,6 hPa 0,0 l/m² 10,8 km/h (2 Bft) S 173 ° 0 min 0 W/m² 8,9 °C 8,6 °C 16,1 km/h (3 Bft)
09.02.2024 18:49 21,1 °C 11,3 °C 52 % 85 % 989,6 hPa 0,0 l/m² 9,1 km/h (2 Bft) S 170 ° 0 min 0 W/m² 8,9 °C 9,5 °C 12,9 km/h (3 Bft)
09.02.2024 18:51 21,1 °C 11,3 °C 52 % 85 % 989,6 hPa 0,0 l/m² 8,6 km/h (2 Bft) S 169 ° 0 min 0 W/m² 8,9 °C 9,8 °C 11,3 km/h (2 Bft)
09.02.2024 18:53 21,1 °C 11,3 °C 52 % 85 % 989,6 hPa 0,0 l/m² 8,0 km/h (2 Bft) S-SO 166 ° 0 min 0 W/m² 8,9 °C 10,2 °C 9,7 km/h (2 Bft)
09.02.2024 18:55 21,1 °C 11,2 °C 53 % 85 % 989,6 hPa 0,0 l/m² 7,9 km/h (2 Bft) S-SO 167 ° 0 min 0 W/m² 8,8 °C 10,2 °C 12,9 km/h (3 Bft)
09.02.2024 18:57 21,1 °C 11,2 °C 54 % 85 % 989,6 hPa 0,0 l/m² 5,0 km/h (1 Bft) S-SO 167 ° 0 min 0 W/m² 8,8 °C 11,2 °C 8,0 km/h (2 Bft)
09.02.2024 18:59 21,1 °C 11,2 °C 54 % 85 % 989,6 hPa 0,0 l/m² 6,1 km/h (2 Bft) S-SO 167 ° 0 min 0 W/m² 8,8 °C 11,2 °C 12,9 km/h (3 Bft)
09.02.2024 19:01 21,2 °C 11,1 °C 54 % 85 % 989,6 hPa 0,0 l/m² 6,3 km/h (2 Bft) S-SO 167 ° 0 min 0 W/m² 8,7 °C 11,1 °C 9,7 km/h (2 Bft)
09.02.2024 19:03 21,2 °C 11,1 °C 54 % 85 % 989,6 hPa 0,0 l/m² 4,8 km/h (1 Bft) S-SO 167 ° 0 min 0 W/m² 8,7 °C 11,1 °C 6,4 km/h (2 Bft)
09.02.2024 19:05 21,2 °C 11,1 °C 54 % 85 % 989,6 hPa 0,0 l/m² 4,8 km/h (1 Bft) S-SO 167 ° 0 min 0 W/m² 8,7 °C 11,1 °C 6,4 km/h (2 Bft)
09.02.2024 19:07 21,2 °C 11,1 °C 54 % 85 % 989,7 hPa 0,0 l/m² 5,6 km/h (2 Bft) S-SO 167 ° 0 min 0 W/m² 8,7 °C 11,1 °C 6,4 km/h (2 Bft)
09.02.2024 19:09 21,2 °C 11,0 °C 54 % 85 % 989,6 hPa 0,0 l/m² 6,4 km/h (2 Bft) S-SO 167 ° 0 min 0 W/m² 8,6 °C 11,0 °C 8,0 km/h (2 Bft)
09.02.2024 19:11 21,2 °C 10,9 °C 54 % 85 % 989,7 hPa 0,0 l/m² 7,7 km/h (2 Bft) S-SO 167 ° 0 min 0 W/m² 8,5 °C 10,0 °C 9,7 km/h (2 Bft)
09.02.2024 19:13 21,2 °C 10,9 °C 54 % 85 % 989,7 hPa 0,0 l/m² 6,9 km/h (2 Bft) S-SO 167 ° 0 min 0 W/m² 8,5 °C 10,6 °C 8,0 km/h (2 Bft)
09.02.2024 19:15 21,2 °C 10,9 °C 54 % 85 % 989,6 hPa 0,0 l/m² 8,4 km/h (2 Bft) S-SO 167 ° 0 min 0 W/m² 8,5 °C 9,5 °C 9,7 km/h (2 Bft)
09.02.2024 19:17 21,2 °C 10,9 °C 54 % 85 % 989,7 hPa 0,0 l/m² 9,1 km/h (2 Bft) S-SO 167 ° 0 min 0 W/m² 8,5 °C 9,1 °C 12,9 km/h (3 Bft)
09.02.2024 19:18 21,2 °C 10,8 °C 54 % 85 % 989,7 hPa 0,0 l/m² 8,1 km/h (2 Bft) S 170 ° 0 min 0 W/m² 8,4 °C 9,6 °C 14,5 km/h (3 Bft)
09.02.2024 19:19 21,2 °C 10,8 °C 54 % 85 % 989,7 hPa 0,0 l/m² 8,9 km/h (2 Bft) S 169 ° 0 min 0 W/m² 8,4 °C 9,1 °C 11,3 km/h (2 Bft)
09.02.2024 19:21 21,2 °C 10,8 °C 54 % 85 % 989,7 hPa 0,0 l/m² 10,7 km/h (2 Bft) S-SO 163 ° 0 min 0 W/m² 8,4 °C 8,1 °C 16,1 km/h (3 Bft)
09.02.2024 19:23 21,2 °C 10,7 °C 54 % 85 % 989,7 hPa 0,0 l/m² 11,9 km/h (2 Bft) S-SO 163 ° 0 min 0 W/m² 8,3 °C 7,4 °C 19,3 km/h (3 Bft)
09.02.2024 19:25 21,2 °C 10,7 °C 54 % 86 % 989,7 hPa 0,0 l/m² 13,3 km/h (3 Bft) S-SO 163 ° 0 min 0 W/m² 8,5 °C 6,7 °C 17,7 km/h (3 Bft)
09.02.2024 19:27 21,2 °C 10,7 °C 54 % 86 % 989,8 hPa 0,0 l/m² 12,6 km/h (3 Bft) S-SO 163 ° 0 min 0 W/m² 8,5 °C 7,0 °C 17,7 km/h (3 Bft)
09.02.2024 19:29 21,2 °C 10,7 °C 54 % 86 % 989,8 hPa 0,0 l/m² 13,7 km/h (3 Bft) S-SO 160 ° 0 min 0 W/m² 8,5 °C 6,5 °C 19,3 km/h (3 Bft)
09.02.2024 19:31 21,2 °C 10,8 °C 54 % 86 % 989,7 hPa 0,0 l/m² 12,0 km/h (2 Bft) S-SO 163 ° 0 min 0 W/m² 8,6 °C 7,4 °C 17,7 km/h (3 Bft)
09.02.2024 19:32 21,2 °C 10,8 °C 54 % 86 % 989,7 hPa 0,0 l/m² 9,7 km/h (2 Bft) S-SO 157 ° 0 min 0 W/m² 8,6 °C 8,6 °C 11,3 km/h (2 Bft)
09.02.2024 19:33 21,2 °C 10,8 °C 54 % 86 % 989,7 hPa 0,0 l/m² 9,7 km/h (2 Bft) S-SO 157 ° 0 min 0 W/m² 8,6 °C 8,6 °C 12,9 km/h (3 Bft)
09.02.2024 19:34 21,2 °C 10,9 °C 54 % 86 % 989,8 hPa 0,0 l/m² 11,3 km/h (2 Bft) S-SO 157 ° 0 min 0 W/m² 8,7 °C 7,9 °C 16,1 km/h (3 Bft)
09.02.2024 19:35 21,2 °C 10,8 °C 54 % 86 % 989,7 hPa 0,0 l/m² 9,7 km/h (2 Bft) S-SO 157 ° 0 min 0 W/m² 8,6 °C 8,6 °C 14,5 km/h (3 Bft)
09.02.2024 19:36 21,2 °C 10,8 °C 54 % 86 % 989,8 hPa 0,0 l/m² 11,3 km/h (2 Bft) S-SO 157 ° 0 min 0 W/m² 8,6 °C 7,8 °C 16,1 km/h (3 Bft)
09.02.2024 19:37 21,2 °C 10,8 °C 54 % 86 % 989,7 hPa 0,0 l/m² 11,3 km/h (2 Bft) S-SO 157 ° 0 min 0 W/m² 8,6 °C 7,8 °C 16,1 km/h (3 Bft)
09.02.2024 19:38 21,2 °C 10,9 °C 54 % 86 % 989,8 hPa 0,0 l/m² 11,3 km/h (2 Bft) S-SO 157 ° 0 min 0 W/m² 8,7 °C 7,9 °C 14,5 km/h (3 Bft)
09.02.2024 19:39 21,2 °C 10,9 °C 54 % 86 % 989,7 hPa 0,0 l/m² 9,7 km/h (2 Bft) S-SO 157 ° 0 min 0 W/m² 8,7 °C 8,8 °C 14,5 km/h (3 Bft)
09.02.2024 19:40 21,2 °C 10,8 °C 53 % 86 % 989,7 hPa 0,0 l/m² 8,0 km/h (2 Bft) S-SO 157 ° 0 min 0 W/m² 8,6 °C 9,7 °C 9,7 km/h (2 Bft)
09.02.2024 19:41 21,2 °C 10,8 °C 54 % 86 % 989,7 hPa 0,0 l/m² 9,7 km/h (2 Bft) S-SO 157 ° 0 min 0 W/m² 8,6 °C 8,6 °C 12,9 km/h (3 Bft)
09.02.2024 19:42 21,2 °C 10,8 °C 53 % 86 % 989,8 hPa 0,0 l/m² 8,0 km/h (2 Bft) S-SO 157 ° 0 min 0 W/m² 8,6 °C 9,7 °C 11,3 km/h (2 Bft)
09.02.2024 19:43 21,2 °C 10,8 °C 53 % 86 % 989,8 hPa 0,0 l/m² 6,4 km/h (2 Bft) S-SO 157 ° 0 min 0 W/m² 8,6 °C 10,8 °C 11,3 km/h (2 Bft)
09.02.2024 19:48 21,2 °C 10,8 °C 54 % 86 % 989,7 hPa 0,0 l/m² 10,7 km/h (2 Bft) S 169 ° 0 min 0 W/m² 8,6 °C 8,1 °C 12,9 km/h (3 Bft)
09.02.2024 19:50 21,2 °C 10,8 °C 53 % 86 % 989,7 hPa 0,0 l/m² 9,5 km/h (2 Bft) S-SO 167 ° 0 min 0 W/m² 8,6 °C 8,8 °C 14,5 km/h (3 Bft)
09.02.2024 19:51 21,2 °C 10,8 °C 53 % 86 % 989,7 hPa 0,0 l/m² 11,3 km/h (2 Bft) S-SO 166 ° 0 min 0 W/m² 8,6 °C 7,8 °C 14,5 km/h (3 Bft)
09.02.2024 19:53 21,2 °C 10,8 °C 53 % 86 % 989,8 hPa 0,0 l/m² 7,2 km/h (2 Bft) S-SO 165 ° 0 min 0 W/m² 8,6 °C 10,2 °C 11,3 km/h (2 Bft)
09.02.2024 19:55 21,2 °C 10,8 °C 53 % 85 % 989,7 hPa 0,0 l/m² 6,6 km/h (2 Bft) S-SO 165 ° 0 min 0 W/m² 8,4 °C 10,7 °C 9,7 km/h (2 Bft)
09.02.2024 19:57 21,2 °C 10,7 °C 53 % 86 % 989,8 hPa 0,0 l/m² 7,9 km/h (2 Bft) S-SO 167 ° 0 min 0 W/m² 8,5 °C 9,7 °C 14,5 km/h (3 Bft)
09.02.2024 19:59 21,2 °C 10,7 °C 53 % 85 % 989,8 hPa 0,0 l/m² 8,1 km/h (2 Bft) S-SO 167 ° 0 min 0 W/m² 8,3 °C 9,5 °C 12,9 km/h (3 Bft)
09.02.2024 20:00 21,2 °C 10,7 °C 53 % 85 % 989,7 hPa 0,0 l/m² 9,9 km/h (2 Bft) S-SO 167 ° 0 min 0 W/m² 8,3 °C 8,4 °C 14,5 km/h (3 Bft)
09.02.2024 20:01 21,2 °C 10,7 °C 53 % 85 % 989,8 hPa 0,0 l/m² 9,0 km/h (2 Bft) S 172 ° 0 min 0 W/m² 8,3 °C 9,0 °C 14,5 km/h (3 Bft)
09.02.2024 20:02 21,2 °C 10,7 °C 53 % 85 % 989,7 hPa 0,0 l/m² 9,5 km/h (2 Bft) S 175 ° 0 min 0 W/m² 8,3 °C 8,7 °C 16,1 km/h (3 Bft)
09.02.2024 20:04 21,2 °C 10,6 °C 53 % 85 % 989,8 hPa 0,0 l/m² 10,8 km/h (2 Bft) S 169 ° 0 min 0 W/m² 8,2 °C 7,8 °C 12,9 km/h (3 Bft)
09.02.2024 20:06 21,2 °C 10,6 °C 53 % 86 % 989,7 hPa 0,0 l/m² 8,6 km/h (2 Bft) S 180 ° 0 min 0 W/m² 8,4 °C 9,1 °C 12,9 km/h (3 Bft)
09.02.2024 20:08 21,3 °C 10,6 °C 53 % 86 % 989,7 hPa 0,0 l/m² 9,9 km/h (2 Bft) S 175 ° 0 min 0 W/m² 8,4 °C 8,3 °C 12,9 km/h (3 Bft)
09.02.2024 20:10 21,3 °C 10,6 °C 53 % 86 % 989,8 hPa 0,0 l/m² 8,7 km/h (2 Bft) S 175 ° 0 min 0 W/m² 8,4 °C 9,0 °C 12,9 km/h (3 Bft)
09.02.2024 20:11 21,3 °C 10,6 °C 53 % 86 % 989,8 hPa 0,0 l/m² 5,9 km/h (2 Bft) S 175 ° 0 min 0 W/m² 8,4 °C 10,6 °C 9,7 km/h (2 Bft)
09.02.2024 20:12 21,3 °C 10,6 °C 53 % 86 % 989,8 hPa 0,0 l/m² 6,5 km/h (2 Bft) S 175 ° 0 min 0 W/m² 8,4 °C 10,6 °C 11,3 km/h (2 Bft)
09.02.2024 20:13 21,3 °C 10,6 °C 53 % 86 % 989,8 hPa 0,0 l/m² 5,9 km/h (2 Bft) S 175 ° 0 min 0 W/m² 8,4 °C 10,6 °C 6,4 km/h (2 Bft)
09.02.2024 20:14 21,3 °C 10,6 °C 53 % 86 % 989,8 hPa 0,0 l/m² 4,0 km/h (1 Bft) S 175 ° 0 min 0 W/m² 8,4 °C 10,6 °C 6,4 km/h (2 Bft)
09.02.2024 20:15 21,3 °C 10,6 °C 53 % 86 % 989,8 hPa 0,0 l/m² 3,3 km/h (1 Bft) S 175 ° 0 min 0 W/m² 8,4 °C 10,6 °C 4,8 km/h (1 Bft)
09.02.2024 20:17 21,3 °C 10,5 °C 53 % 86 % 989,7 hPa 0,0 l/m² 3,8 km/h (1 Bft) S 174 ° 0 min 0 W/m² 8,3 °C 10,5 °C 8,0 km/h (2 Bft)
09.02.2024 20:19 21,3 °C 10,6 °C 53 % 86 % 989,9 hPa 0,0 l/m² 3,6 km/h (1 Bft) S 174 ° 0 min 0 W/m² 8,4 °C 10,6 °C 8,0 km/h (2 Bft)
09.02.2024 20:20 21,4 °C 10,6 °C 53 % 86 % 989,8 hPa 0,0 l/m² 1,6 km/h (1 Bft) S 174 ° 0 min 0 W/m² 8,4 °C 10,6 °C 3,2 km/h (1 Bft)
09.02.2024 20:22 21,3 °C 10,5 °C 53 % 86 % 989,8 hPa 0,0 l/m² 0,9 km/h (0 Bft) S 174 ° 0 min 0 W/m² 8,3 °C 10,5 °C 3,2 km/h (1 Bft)
09.02.2024 20:23 21,3 °C 10,5 °C 53 % 86 % 989,8 hPa 0,0 l/m² 0,1 km/h (0 Bft) S 174 ° 0 min 0 W/m² 8,3 °C 10,5 °C 1,6 km/h (1 Bft)
09.02.2024 20:25 21,3 °C 10,5 °C 53 % 86 % 989,8 hPa 0,0 l/m² 0,3 km/h (0 Bft) S 174 ° 0 min 0 W/m² 8,3 °C 10,5 °C 1,6 km/h (1 Bft)
09.02.2024 20:27 21,3 °C 10,5 °C 53 % 86 % 989,9 hPa 0,0 l/m² 0,0 km/h (0 Bft) S 174 ° 0 min 0 W/m² 8,3 °C 10,5 °C 0,0 km/h (0 Bft)
09.02.2024 20:29 21,3 °C 10,5 °C 52 % 86 % 989,9 hPa 0,0 l/m² 0,0 km/h (0 Bft) S 174 ° 0 min 0 W/m² 8,3 °C 10,5 °C 0,0 km/h (0 Bft)
09.02.2024 20:30 21,3 °C 10,5 °C 52 % 86 % 990,0 hPa 0,0 l/m² 0,0 km/h (0 Bft) S 174 ° 0 min 0 W/m² 8,3 °C 10,5 °C 0,0 km/h (0 Bft)
09.02.2024 20:32 21,3 °C 10,6 °C 52 % 86 % 989,9 hPa 0,0 l/m² 0,0 km/h (0 Bft) S 174 ° 0 min 0 W/m² 8,4 °C 10,6 °C 0,0 km/h (0 Bft)
09.02.2024 20:33 21,3 °C 10,5 °C 52 % 86 % 989,9 hPa 0,0 l/m² 0,0 km/h (0 Bft) S 174 ° 0 min 0 W/m² 8,3 °C 10,5 °C 0,0 km/h (0 Bft)
09.02.2024 20:35 21,3 °C 10,5 °C 52 % 86 % 989,9 hPa 0,0 l/m² 0,0 km/h (0 Bft) S 174 ° 0 min 0 W/m² 8,3 °C 10,5 °C 0,0 km/h (0 Bft)
09.02.2024 20:37 21,3 °C 10,5 °C 53 % 86 % 990,0 hPa 0,0 l/m² 0,0 km/h (0 Bft) S 174 ° 0 min 0 W/m² 8,3 °C 10,5 °C 0,0 km/h (0 Bft)
09.02.2024 20:39 21,3 °C 10,5 °C 52 % 86 % 989,9 hPa 0,0 l/m² 0,0 km/h (0 Bft) S 174 ° 0 min 0 W/m² 8,3 °C 10,5 °C 0,0 km/h (0 Bft)
09.02.2024 20:40 21,4 °C 10,5 °C 52 % 86 % 990,0 hPa 0,0 l/m² 0,0 km/h (0 Bft) S 174 ° 0 min 0 W/m² 8,3 °C 10,5 °C 0,0 km/h (0 Bft)
09.02.2024 20:42 21,4 °C 10,5 °C 53 % 86 % 990,0 hPa 0,0 l/m² 0,0 km/h (0 Bft) S 174 ° 0 min 0 W/m² 8,3 °C 10,5 °C 0,0 km/h (0 Bft)
09.02.2024 20:43 21,3 °C 10,5 °C 53 % 86 % 990,0 hPa 0,0 l/m² 0,0 km/h (0 Bft) S 174 ° 0 min 0 W/m² 8,3 °C 10,5 °C 0,0 km/h (0 Bft)
09.02.2024 20:45 21,3 °C 10,4 °C 52 % 86 % 990,0 hPa 0,0 l/m² 0,0 km/h (0 Bft) S 174 ° 0 min 0 W/m² 8,2 °C 10,4 °C 0,0 km/h (0 Bft)
09.02.2024 20:47 21,3 °C 10,4 °C 53 % 86 % 990,0 hPa 0,0 l/m² 0,0 km/h (0 Bft) S 174 ° 0 min 0 W/m² 8,2 °C 10,4 °C 0,0 km/h (0 Bft)
09.02.2024 20:49 21,4 °C 10,4 °C 52 % 86 % 989,9 hPa 0,0 l/m² 0,0 km/h (0 Bft) S 174 ° 0 min 0 W/m² 8,2 °C 10,4 °C 0,0 km/h (0 Bft)
09.02.2024 20:50 21,4 °C 10,4 °C 53 % 86 % 989,9 hPa 0,0 l/m² 0,0 km/h (0 Bft) S 174 ° 0 min 0 W/m² 8,2 °C 10,4 °C 0,0 km/h (0 Bft)
09.02.2024 20:52 21,4 °C 10,4 °C 53 % 86 % 989,9 hPa 0,0 l/m² 1,0 km/h (0 Bft) S 174 ° 0 min 0 W/m² 8,2 °C 10,4 °C 1,6 km/h (1 Bft)
09.02.2024 20:53 21,4 °C 10,4 °C 53 % 86 % 990,0 hPa 0,0 l/m² 2,2 km/h (1 Bft) S 174 ° 0 min 0 W/m² 8,2 °C 10,4 °C 3,2 km/h (1 Bft)
09.02.2024 20:55 21,4 °C 10,4 °C 53 % 86 % 990,0 hPa 0,0 l/m² 3,2 km/h (1 Bft) S 174 ° 0 min 0 W/m² 8,2 °C 10,4 °C 4,8 km/h (1 Bft)
09.02.2024 20:56 21,4 °C 10,3 °C 53 % 86 % 990,1 hPa 0,0 l/m² 4,9 km/h (1 Bft) S 174 ° 0 min 0 W/m² 8,1 °C 10,3 °C 8,0 km/h (2 Bft)
09.02.2024 20:58 21,4 °C 10,3 °C 53 % 86 % 990,0 hPa 0,0 l/m² 4,3 km/h (1 Bft) S 174 ° 0 min 0 W/m² 8,1 °C 10,3 °C 4,8 km/h (1 Bft)
09.02.2024 21:00 21,4 °C 10,2 °C 53 % 86 % 990,0 hPa 0,0 l/m² 7,6 km/h (2 Bft) S 174 ° 0 min 0 W/m² 8,0 °C 9,3 °C 9,7 km/h (2 Bft)
09.02.2024 21:01 21,4 °C 10,2 °C 52 % 87 % 990,0 hPa 0,0 l/m² 8,6 km/h (2 Bft) S 174 ° 0 min 0 W/m² 8,1 °C 8,7 °C 11,3 km/h (2 Bft)
09.02.2024 21:02 21,4 °C 10,2 °C 52 % 87 % 990,0 hPa 0,0 l/m² 9,3 km/h (2 Bft) S 174 ° 0 min 0 W/m² 8,1 °C 8,2 °C 11,3 km/h (2 Bft)
09.02.2024 21:04 21,4 °C 10,1 °C 52 % 86 % 990,0 hPa 0,0 l/m² 9,8 km/h (2 Bft) S 179 ° 0 min 0 W/m² 7,9 °C 7,8 °C 12,9 km/h (3 Bft)
09.02.2024 21:06 21,4 °C 10,1 °C 52 % 87 % 990,0 hPa 0,0 l/m² 8,8 km/h (2 Bft) S 182 ° 0 min 0 W/m² 8,0 °C 8,4 °C 11,3 km/h (2 Bft)
09.02.2024 21:08 21,4 °C 10,1 °C 52 % 87 % 990,0 hPa 0,0 l/m² 8,0 km/h (2 Bft) S 181 ° 0 min 0 W/m² 8,0 °C 9,0 °C 9,7 km/h (2 Bft)
09.02.2024 21:10 21,4 °C 10,1 °C 52 % 87 % 990,0 hPa 0,0 l/m² 5,5 km/h (2 Bft) S 180 ° 0 min 0 W/m² 8,0 °C 10,1 °C 8,0 km/h (2 Bft)
09.02.2024 21:11 21,4 °C 10,1 °C 52 % 87 % 990,1 hPa 0,0 l/m² 4,9 km/h (1 Bft) S 180 ° 0 min 0 W/m² 8,0 °C 10,1 °C 8,0 km/h (2 Bft)
09.02.2024 21:12 21,4 °C 10,1 °C 52 % 87 % 990,1 hPa 0,0 l/m² 4,8 km/h (1 Bft) S 180 ° 0 min 0 W/m² 8,0 °C 10,1 °C 8,0 km/h (2 Bft)
09.02.2024 21:14 21,4 °C 10,1 °C 53 % 87 % 990,0 hPa 0,0 l/m² 5,6 km/h (2 Bft) S 178 ° 0 min 0 W/m² 8,0 °C 10,1 °C 8,0 km/h (2 Bft)
09.02.2024 21:16 21,4 °C 10,0 °C 53 % 87 % 990,0 hPa 0,0 l/m² 4,2 km/h (1 Bft) S 178 ° 0 min 0 W/m² 7,9 °C 10,0 °C 6,4 km/h (2 Bft)
09.02.2024 21:18 21,5 °C 10,0 °C 53 % 87 % 990,1 hPa 0,0 l/m² 4,7 km/h (1 Bft) S 178 ° 0 min 0 W/m² 7,9 °C 10,0 °C 6,4 km/h (2 Bft)
09.02.2024 21:20 21,5 °C 10,0 °C 52 % 87 % 990,1 hPa 0,0 l/m² 3,5 km/h (1 Bft) S 178 ° 0 min 0 W/m² 7,9 °C 10,0 °C 4,8 km/h (1 Bft)
09.02.2024 21:21 21,5 °C 10,1 °C 53 % 87 % 990,1 hPa 0,0 l/m² 2,3 km/h (1 Bft) S 178 ° 0 min 0 W/m² 8,0 °C 10,1 °C 4,8 km/h (1 Bft)
09.02.2024 21:22 21,5 °C 10,0 °C 52 % 87 % 990,1 hPa 0,0 l/m² 0,9 km/h (0 Bft) S 178 ° 0 min 0 W/m² 7,9 °C 10,0 °C 3,2 km/h (1 Bft)
09.02.2024 21:24 21,5 °C 10,1 °C 53 % 88 % 990,1 hPa 0,0 l/m² 0,8 km/h (0 Bft) S 178 ° 0 min 0 W/m² 8,2 °C 10,1 °C 3,2 km/h (1 Bft)
09.02.2024 21:26 21,5 °C 10,1 °C 52 % 88 % 990,1 hPa 0,0 l/m² 0,1 km/h (0 Bft) S 178 ° 0 min 0 W/m² 8,2 °C 10,1 °C 1,6 km/h (1 Bft)
09.02.2024 21:28 21,6 °C 10,0 °C 52 % 88 % 990,1 hPa 0,0 l/m² 0,0 km/h (0 Bft) S 178 ° 0 min 0 W/m² 8,1 °C 10,0 °C 0,0 km/h (0 Bft)
09.02.2024 21:30 21,6 °C 10,1 °C 52 % 88 % 990,1 hPa 0,0 l/m² 0,0 km/h (0 Bft) S 178 ° 0 min 0 W/m² 8,2 °C 10,1 °C 0,0 km/h (0 Bft)
09.02.2024 21:31 21,6 °C 10,1 °C 53 % 88 % 990,2 hPa 0,0 l/m² 0,8 km/h (0 Bft) S 178 ° 0 min 0 W/m² 8,2 °C 10,1 °C 3,2 km/h (1 Bft)
09.02.2024 21:32 21,5 °C 10,1 °C 52 % 88 % 990,2 hPa 0,0 l/m² 0,9 km/h (0 Bft) S 178 ° 0 min 0 W/m² 8,2 °C 10,1 °C 3,2 km/h (1 Bft)
09.02.2024 21:34 21,6 °C 10,1 °C 52 % 88 % 990,1 hPa 0,0 l/m² 0,5 km/h (0 Bft) S 178 ° 0 min 0 W/m² 8,2 °C 10,1 °C 3,2 km/h (1 Bft)
09.02.2024 21:36 21,6 °C 10,1 °C 52 % 88 % 990,2 hPa 0,0 l/m² 0,1 km/h (0 Bft) S 178 ° 0 min 0 W/m² 8,2 °C 10,1 °C 1,6 km/h (1 Bft)
09.02.2024 21:38 21,6 °C 10,1 °C 52 % 88 % 990,1 hPa 0,0 l/m² 0,0 km/h (0 Bft) S 178 ° 0 min 0 W/m² 8,2 °C 10,1 °C 0,0 km/h (0 Bft)
09.02.2024 21:40 21,6 °C 10,1 °C 52 % 88 % 990,2 hPa 0,0 l/m² 0,0 km/h (0 Bft) S 178 ° 0 min 0 W/m² 8,2 °C 10,1 °C 0,0 km/h (0 Bft)
09.02.2024 21:41 21,6 °C 10,1 °C 52 % 88 % 990,2 hPa 0,0 l/m² 0,0 km/h (0 Bft) S 178 ° 0 min 0 W/m² 8,2 °C 10,1 °C 0,0 km/h (0 Bft)
09.02.2024 21:42 21,6 °C 10,1 °C 52 % 88 % 990,2 hPa 0,0 l/m² 0,0 km/h (0 Bft) S 178 ° 0 min 0 W/m² 8,2 °C 10,1 °C 0,0 km/h (0 Bft)
09.02.2024 21:44 21,6 °C 10,1 °C 52 % 87 % 990,2 hPa 0,0 l/m² 0,0 km/h (0 Bft) S 178 ° 0 min 0 W/m² 8,0 °C 10,1 °C 0,0 km/h (0 Bft)
09.02.2024 21:47 21,6 °C 10,1 °C 52 % 87 % 990,2 hPa 0,0 l/m² 0,6 km/h (0 Bft) S 178 ° 0 min 0 W/m² 8,0 °C 10,1 °C 4,8 km/h (1 Bft)
09.02.2024 21:48 21,6 °C 10,0 °C 52 % 87 % 990,2 hPa 0,0 l/m² 0,1 km/h (0 Bft) S 178 ° 0 min 0 W/m² 7,9 °C 10,0 °C 1,6 km/h (1 Bft)
09.02.2024 21:49 21,6 °C 10,0 °C 53 % 87 % 990,2 hPa 0,0 l/m² 0,0 km/h (0 Bft) S 178 ° 0 min 0 W/m² 7,9 °C 10,0 °C 0,0 km/h (0 Bft)
09.02.2024 21:51 21,6 °C 10,0 °C 52 % 88 % 990,2 hPa 0,0 l/m² 0,5 km/h (0 Bft) S 178 ° 0 min 0 W/m² 8,1 °C 10,0 °C 3,2 km/h (1 Bft)
09.02.2024 21:53 21,6 °C 10,0 °C 52 % 88 % 990,2 hPa 0,0 l/m² 0,0 km/h (0 Bft) S 178 ° 0 min 0 W/m² 8,1 °C 10,0 °C 0,0 km/h (0 Bft)
09.02.2024 21:54 21,6 °C 10,0 °C 52 % 88 % 990,1 hPa 0,0 l/m² 0,0 km/h (0 Bft) S 178 ° 0 min 0 W/m² 8,1 °C 10,0 °C 0,0 km/h (0 Bft)
09.02.2024 21:55 21,6 °C 10,0 °C 52 % 88 % 990,1 hPa 0,0 l/m² 0,0 km/h (0 Bft) S 178 ° 0 min 0 W/m² 8,1 °C 10,0 °C 0,0 km/h (0 Bft)
09.02.2024 21:56 21,6 °C 9,9 °C 52 % 88 % 990,2 hPa 0,0 l/m² 0,0 km/h (0 Bft) S 178 ° 0 min 0 W/m² 8,0 °C 9,9 °C 0,0 km/h (0 Bft)
09.02.2024 21:57 21,6 °C 10,0 °C 52 % 88 % 990,2 hPa 0,0 l/m² 0,0 km/h (0 Bft) S 178 ° 0 min 0 W/m² 8,1 °C 10,0 °C 0,0 km/h (0 Bft)
09.02.2024 21:58 21,6 °C 10,0 °C 52 % 88 % 990,2 hPa 0,0 l/m² 0,0 km/h (0 Bft) S 178 ° 0 min 0 W/m² 8,1 °C 10,0 °C 0,0 km/h (0 Bft)
09.02.2024 21:59 21,6 °C 9,9 °C 52 % 88 % 990,2 hPa 0,0 l/m² 0,0 km/h (0 Bft) S 178 ° 0 min 0 W/m² 8,0 °C 9,9 °C 0,0 km/h (0 Bft)
09.02.2024 22:02 21,6 °C 10,0 °C 52 % 88 % 990,2 hPa 0,0 l/m² 0,0 km/h (0 Bft) S 178 ° 0 min 0 W/m² 8,1 °C 10,0 °C 0,0 km/h (0 Bft)
09.02.2024 22:03 21,6 °C 9,9 °C 52 % 88 % 990,2 hPa 0,0 l/m² 0,0 km/h (0 Bft) S 178 ° 0 min 0 W/m² 8,0 °C 9,9 °C 0,0 km/h (0 Bft)
09.02.2024 22:04 21,6 °C 10,0 °C 52 % 88 % 990,2 hPa 0,0 l/m² 0,0 km/h (0 Bft) S 178 ° 0 min 0 W/m² 8,1 °C 10,0 °C 0,0 km/h (0 Bft)
09.02.2024 22:05 21,6 °C 10,0 °C 53 % 88 % 990,2 hPa 0,0 l/m² 0,0 km/h (0 Bft) S 178 ° 0 min 0 W/m² 8,1 °C 10,0 °C 0,0 km/h (0 Bft)
09.02.2024 22:06 21,6 °C 9,9 °C 53 % 88 % 990,3 hPa 0,0 l/m² 0,0 km/h (0 Bft) S 178 ° 0 min 0 W/m² 8,0 °C 9,9 °C 0,0 km/h (0 Bft)
09.02.2024 22:07 21,6 °C 9,9 °C 52 % 88 % 990,2 hPa 0,0 l/m² 0,0 km/h (0 Bft) S 178 ° 0 min 0 W/m² 8,0 °C 9,9 °C 0,0 km/h (0 Bft)
09.02.2024 22:08 21,6 °C 9,9 °C 52 % 88 % 990,2 hPa 0,0 l/m² 0,0 km/h (0 Bft) S 178 ° 0 min 0 W/m² 8,0 °C 9,9 °C 0,0 km/h (0 Bft)
09.02.2024 22:09 21,6 °C 9,9 °C 52 % 88 % 990,2 hPa 0,0 l/m² 0,0 km/h (0 Bft) S 178 ° 0 min 0 W/m² 8,0 °C 9,9 °C 0,0 km/h (0 Bft)
09.02.2024 22:11 21,6 °C 9,9 °C 52 % 88 % 990,2 hPa 0,0 l/m² 0,0 km/h (0 Bft) S 178 ° 0 min 0 W/m² 8,0 °C 9,9 °C 0,0 km/h (0 Bft)
09.02.2024 22:13 21,6 °C 9,9 °C 52 % 88 % 990,3 hPa 0,0 l/m² 0,0 km/h (0 Bft) S 178 ° 0 min 0 W/m² 8,0 °C 9,9 °C 0,0 km/h (0 Bft)
09.02.2024 22:14 21,6 °C 9,9 °C 52 % 88 % 990,2 hPa 0,0 l/m² 0,0 km/h (0 Bft) S 178 ° 0 min 0 W/m² 8,0 °C 9,9 °C 0,0 km/h (0 Bft)
09.02.2024 22:15 21,6 °C 9,9 °C 52 % 88 % 990,3 hPa 0,0 l/m² 0,0 km/h (0 Bft) S 178 ° 0 min 0 W/m² 8,0 °C 9,9 °C 0,0 km/h (0 Bft)
09.02.2024 22:16 21,6 °C 9,9 °C 52 % 88 % 990,2 hPa 0,0 l/m² 0,0 km/h (0 Bft) S 178 ° 0 min 0 W/m² 8,0 °C 9,9 °C 0,0 km/h (0 Bft)
09.02.2024 22:17 21,6 °C 9,9 °C 52 % 88 % 990,2 hPa 0,0 l/m² 0,0 km/h (0 Bft) S 178 ° 0 min 0 W/m² 8,0 °C 9,9 °C 0,0 km/h (0 Bft)
09.02.2024 22:18 21,6 °C 9,9 °C 52 % 88 % 990,2 hPa 0,0 l/m² 0,0 km/h (0 Bft) S 178 ° 0 min 0 W/m² 8,0 °C 9,9 °C 0,0 km/h (0 Bft)
09.02.2024 22:19 21,6 °C 9,9 °C 52 % 88 % 990,2 hPa 0,0 l/m² 0,0 km/h (0 Bft) S 178 ° 0 min 0 W/m² 8,0 °C 9,9 °C 0,0 km/h (0 Bft)
09.02.2024 22:21 21,6 °C 9,9 °C 52 % 88 % 990,2 hPa 0,0 l/m² 0,0 km/h (0 Bft) S 178 ° 0 min 0 W/m² 8,0 °C 9,9 °C 0,0 km/h (0 Bft)
09.02.2024 22:23 21,6 °C 9,9 °C 52 % 88 % 990,2 hPa 0,0 l/m² 0,0 km/h (0 Bft) S 178 ° 0 min 0 W/m² 8,0 °C 9,9 °C 0,0 km/h (0 Bft)
09.02.2024 22:24 21,6 °C 9,9 °C 52 % 88 % 990,2 hPa 0,0 l/m² 0,0 km/h (0 Bft) S 178 ° 0 min 0 W/m² 8,0 °C 9,9 °C 0,0 km/h (0 Bft)
09.02.2024 22:25 21,6 °C 9,9 °C 52 % 88 % 990,2 hPa 0,0 l/m² 0,0 km/h (0 Bft) S 178 ° 0 min 0 W/m² 8,0 °C 9,9 °C 0,0 km/h (0 Bft)
09.02.2024 22:26 21,6 °C 9,9 °C 52 % 88 % 990,2 hPa 0,0 l/m² 0,0 km/h (0 Bft) S 178 ° 0 min 0 W/m² 8,0 °C 9,9 °C 0,0 km/h (0 Bft)
09.02.2024 22:27 21,6 °C 9,9 °C 52 % 88 % 990,1 hPa 0,0 l/m² 0,0 km/h (0 Bft) S 178 ° 0 min 0 W/m² 8,0 °C 9,9 °C 0,0 km/h (0 Bft)
09.02.2024 22:28 21,6 °C 9,8 °C 52 % 88 % 990,1 hPa 0,0 l/m² 0,0 km/h (0 Bft) S 178 ° 0 min 0 W/m² 7,9 °C 9,8 °C 0,0 km/h (0 Bft)
09.02.2024 22:29 21,6 °C 9,8 °C 52 % 88 % 990,2 hPa 0,0 l/m² 0,0 km/h (0 Bft) S 178 ° 0 min 0 W/m² 7,9 °C 9,8 °C 0,0 km/h (0 Bft)
09.02.2024 22:31 21,6 °C 9,8 °C 52 % 88 % 990,2 hPa 0,0 l/m² 0,0 km/h (0 Bft) S 178 ° 0 min 0 W/m² 7,9 °C 9,8 °C 0,0 km/h (0 Bft)
09.02.2024 22:33 21,6 °C 9,8 °C 52 % 88 % 990,2 hPa 0,0 l/m² 0,0 km/h (0 Bft) S 178 ° 0 min 0 W/m² 7,9 °C 9,8 °C 0,0 km/h (0 Bft)
09.02.2024 22:34 21,6 °C 9,7 °C 52 % 88 % 990,2 hPa 0,0 l/m² 0,0 km/h (0 Bft) S 178 ° 0 min 0 W/m² 7,8 °C 9,7 °C 0,0 km/h (0 Bft)
09.02.2024 22:35 21,5 °C 9,7 °C 52 % 88 % 990,2 hPa 0,0 l/m² 0,8 km/h (0 Bft) S 178 ° 0 min 0 W/m² 7,8 °C 9,7 °C 1,6 km/h (1 Bft)
09.02.2024 22:36 21,5 °C 9,6 °C 52 % 88 % 990,2 hPa 0,0 l/m² 2,3 km/h (1 Bft) S 178 ° 0 min 0 W/m² 7,7 °C 9,6 °C 3,2 km/h (1 Bft)
09.02.2024 22:37 21,5 °C 9,6 °C 52 % 88 % 990,2 hPa 0,0 l/m² 1,9 km/h (1 Bft) S 178 ° 0 min 0 W/m² 7,7 °C 9,6 °C 3,2 km/h (1 Bft)
09.02.2024 22:38 21,5 °C 9,5 °C 52 % 88 % 990,2 hPa 0,0 l/m² 1,5 km/h (1 Bft) S 178 ° 0 min 0 W/m² 7,6 °C 9,5 °C 3,2 km/h (1 Bft)
09.02.2024 22:39 21,4 °C 9,5 °C 52 % 88 % 990,2 hPa 0,0 l/m² 2,1 km/h (1 Bft) S 178 ° 0 min 0 W/m² 7,6 °C 9,5 °C 3,2 km/h (1 Bft)
09.02.2024 22:41 21,4 °C 9,4 °C 52 % 88 % 990,2 hPa 0,0 l/m² 1,4 km/h (1 Bft) S 178 ° 0 min 0 W/m² 7,5 °C 9,4 °C 3,2 km/h (1 Bft)
09.02.2024 22:43 21,4 °C 9,4 °C 52 % 88 % 990,2 hPa 0,0 l/m² 2,1 km/h (1 Bft) S 178 ° 0 min 0 W/m² 7,5 °C 9,4 °C 3,2 km/h (1 Bft)
09.02.2024 22:44 21,4 °C 9,4 °C 52 % 88 % 990,2 hPa 0,0 l/m² 1,2 km/h (1 Bft) S 178 ° 0 min 0 W/m² 7,5 °C 9,4 °C 3,2 km/h (1 Bft)
09.02.2024 22:45 21,4 °C 9,4 °C 52 % 88 % 990,2 hPa 0,0 l/m² 1,7 km/h (1 Bft) S 178 ° 0 min 0 W/m² 7,5 °C 9,4 °C 3,2 km/h (1 Bft)
09.02.2024 22:46 21,4 °C 9,4 °C 52 % 88 % 990,1 hPa 0,0 l/m² 0,7 km/h (0 Bft) S 178 ° 0 min 0 W/m² 7,5 °C 9,4 °C 1,6 km/h (1 Bft)
09.02.2024 22:47 21,4 °C 9,4 °C 52 % 88 % 990,1 hPa 0,0 l/m² 0,0 km/h (0 Bft) S 178 ° 0 min 0 W/m² 7,5 °C 9,4 °C 0,0 km/h (0 Bft)
09.02.2024 22:48 21,4 °C 9,4 °C 52 % 88 % 990,1 hPa 0,0 l/m² 0,0 km/h (0 Bft) S 178 ° 0 min 0 W/m² 7,5 °C 9,4 °C 0,0 km/h (0 Bft)
09.02.2024 22:49 21,4 °C 9,4 °C 52 % 88 % 990,2 hPa 0,0 l/m² 0,0 km/h (0 Bft) S 178 ° 0 min 0 W/m² 7,5 °C 9,4 °C 0,0 km/h (0 Bft)
09.02.2024 22:51 21,4 °C 9,4 °C 52 % 88 % 990,2 hPa 0,0 l/m² 0,0 km/h (0 Bft) S 178 ° 0 min 0 W/m² 7,5 °C 9,4 °C 0,0 km/h (0 Bft)
09.02.2024 22:54 21,4 °C 9,3 °C 53 % 88 % 990,2 hPa 0,0 l/m² 0,0 km/h (0 Bft) S 178 ° 0 min 0 W/m² 7,4 °C 9,3 °C 0,0 km/h (0 Bft)
09.02.2024 22:55 21,4 °C 9,3 °C 52 % 89 % 990,2 hPa 0,0 l/m² 0,0 km/h (0 Bft) S 178 ° 0 min 0 W/m² 7,6 °C 9,3 °C 0,0 km/h (0 Bft)
09.02.2024 22:56 21,4 °C 9,3 °C 53 % 89 % 990,2 hPa 0,0 l/m² 0,0 km/h (0 Bft) S 178 ° 0 min 0 W/m² 7,6 °C 9,3 °C 0,0 km/h (0 Bft)
09.02.2024 22:57 21,4 °C 9,3 °C 53 % 89 % 990,2 hPa 0,0 l/m² 0,1 km/h (0 Bft) S 178 ° 0 min 0 W/m² 7,6 °C 9,3 °C 1,6 km/h (1 Bft)
09.02.2024 22:58 21,4 °C 9,3 °C 53 % 89 % 990,1 hPa 0,0 l/m² 0,0 km/h (0 Bft) S 178 ° 0 min 0 W/m² 7,6 °C 9,3 °C 0,0 km/h (0 Bft)
09.02.2024 22:59 21,4 °C 9,3 °C 53 % 89 % 990,1 hPa 0,0 l/m² 0,0 km/h (0 Bft) S 178 ° 0 min 0 W/m² 7,6 °C 9,3 °C 0,0 km/h (0 Bft)
09.02.2024 23:02 21,4 °C 9,3 °C 53 % 89 % 990,1 hPa 0,0 l/m² 0,0 km/h (0 Bft) S 178 ° 0 min 0 W/m² 7,6 °C 9,3 °C 0,0 km/h (0 Bft)
09.02.2024 23:03 21,4 °C 9,3 °C 53 % 89 % 990,1 hPa 0,0 l/m² 0,0 km/h (0 Bft) S 178 ° 0 min 0 W/m² 7,6 °C 9,3 °C 0,0 km/h (0 Bft)
09.02.2024 23:05 21,4 °C 9,3 °C 53 % 89 % 990,1 hPa 0,0 l/m² 0,0 km/h (0 Bft) S 178 ° 0 min 0 W/m² 7,6 °C 9,3 °C 0,0 km/h (0 Bft)
09.02.2024 23:06 21,4 °C 9,3 °C 53 % 89 % 990,0 hPa 0,0 l/m² 0,0 km/h (0 Bft) S 178 ° 0 min 0 W/m² 7,6 °C 9,3 °C 0,0 km/h (0 Bft)
09.02.2024 23:07 21,4 °C 9,3 °C 53 % 90 % 990,1 hPa 0,0 l/m² 0,0 km/h (0 Bft) S 178 ° 0 min 0 W/m² 7,7 °C 9,3 °C 0,0 km/h (0 Bft)
09.02.2024 23:08 21,4 °C 9,3 °C 53 % 89 % 990,1 hPa 0,0 l/m² 0,0 km/h (0 Bft) S 178 ° 0 min 0 W/m² 7,6 °C 9,3 °C 0,0 km/h (0 Bft)
09.02.2024 23:09 21,4 °C 9,3 °C 53 % 89 % 990,1 hPa 0,0 l/m² 0,0 km/h (0 Bft) S 178 ° 0 min 0 W/m² 7,6 °C 9,3 °C 0,0 km/h (0 Bft)
09.02.2024 23:11 21,3 °C 9,3 °C 53 % 89 % 990,1 hPa 0,0 l/m² 0,0 km/h (0 Bft) S 178 ° 0 min 0 W/m² 7,6 °C 9,3 °C 0,0 km/h (0 Bft)
09.02.2024 23:13 21,3 °C 9,2 °C 53 % 89 % 990,1 hPa 0,0 l/m² 0,0 km/h (0 Bft) S 178 ° 0 min 0 W/m² 7,5 °C 9,2 °C 0,0 km/h (0 Bft)
09.02.2024 23:14 21,4 °C 9,2 °C 53 % 89 % 990,1 hPa 0,0 l/m² 0,0 km/h (0 Bft) S 178 ° 0 min 0 W/m² 7,5 °C 9,2 °C 0,0 km/h (0 Bft)
09.02.2024 23:15 21,4 °C 9,2 °C 53 % 89 % 990,1 hPa 0,0 l/m² 0,0 km/h (0 Bft) S 178 ° 0 min 0 W/m² 7,5 °C 9,2 °C 0,0 km/h (0 Bft)
09.02.2024 23:16 21,4 °C 9,1 °C 53 % 89 % 990,1 hPa 0,0 l/m² 0,0 km/h (0 Bft) N 0 ° 0 min 0 W/m² 7,4 °C 9,1 °C 0,0 km/h (0 Bft)
09.02.2024 23:17 21,3 °C 9,1 °C 53 % 89 % 990,1 hPa 0,0 l/m² 0,0 km/h (0 Bft) N 0 ° 0 min 0 W/m² 7,4 °C 9,1 °C 0,0 km/h (0 Bft)
09.02.2024 23:22 21,3 °C 9,1 °C 53 % 89 % 990,1 hPa 0,0 l/m² 1,5 km/h (1 Bft) S 178 ° 0 min 0 W/m² 7,4 °C 9,1 °C 3,2 km/h (1 Bft)
09.02.2024 23:24 21,3 °C 8,9 °C 53 % 90 % 990,0 hPa 0,0 l/m² 0,4 km/h (0 Bft) S 178 ° 0 min 0 W/m² 7,4 °C 8,9 °C 1,6 km/h (1 Bft)
09.02.2024 23:25 21,3 °C 8,9 °C 53 % 90 % 990,0 hPa 0,0 l/m² 0,8 km/h (0 Bft) S 178 ° 0 min 0 W/m² 7,4 °C 8,9 °C 3,2 km/h (1 Bft)
09.02.2024 23:27 21,3 °C 8,9 °C 53 % 90 % 990,0 hPa 0,0 l/m² 1,5 km/h (1 Bft) S 178 ° 0 min 0 W/m² 7,4 °C 8,9 °C 3,2 km/h (1 Bft)
09.02.2024 23:29 21,3 °C 8,9 °C 53 % 89 % 990,1 hPa 0,0 l/m² 0,4 km/h (0 Bft) S 178 ° 0 min 0 W/m² 7,2 °C 8,9 °C 3,2 km/h (1 Bft)
09.02.2024 23:30 21,3 °C 8,9 °C 53 % 90 % 990,0 hPa 0,0 l/m² 0,8 km/h (0 Bft) S 178 ° 0 min 0 W/m² 7,4 °C 8,9 °C 3,2 km/h (1 Bft)
09.02.2024 23:32 21,3 °C 8,8 °C 53 % 90 % 990,0 hPa 0,0 l/m² 0,5 km/h (0 Bft) S 178 ° 0 min 0 W/m² 7,3 °C 8,8 °C 3,2 km/h (1 Bft)
09.02.2024 23:33 21,3 °C 8,8 °C 53 % 90 % 990,0 hPa 0,0 l/m² 0,3 km/h (0 Bft) S 178 ° 0 min 0 W/m² 7,3 °C 8,8 °C 1,6 km/h (1 Bft)
09.02.2024 23:35 21,3 °C 8,8 °C 53 % 90 % 990,0 hPa 0,0 l/m² 0,5 km/h (0 Bft) S 178 ° 0 min 0 W/m² 7,3 °C 8,8 °C 1,6 km/h (1 Bft)
09.02.2024 23:36 21,3 °C 8,8 °C 53 % 90 % 990,0 hPa 0,0 l/m² 3,5 km/h (1 Bft) S 178 ° 0 min 0 W/m² 7,3 °C 8,8 °C 4,8 km/h (1 Bft)
09.02.2024 23:37 21,3 °C 8,8 °C 53 % 90 % 990,0 hPa 0,0 l/m² 0,8 km/h (0 Bft) S 178 ° 0 min 0 W/m² 7,3 °C 8,8 °C 1,6 km/h (1 Bft)
09.02.2024 23:39 21,3 °C 8,8 °C 54 % 90 % 990,1 hPa 0,0 l/m² 0,6 km/h (0 Bft) S 178 ° 0 min 0 W/m² 7,3 °C 8,8 °C 3,2 km/h (1 Bft)
09.02.2024 23:41 21,3 °C 8,8 °C 53 % 90 % 990,0 hPa 0,0 l/m² 1,3 km/h (1 Bft) S 178 ° 0 min 0 W/m² 7,3 °C 8,8 °C 3,2 km/h (1 Bft)
09.02.2024 23:42 21,3 °C 8,8 °C 53 % 90 % 990,1 hPa 0,0 l/m² 1,5 km/h (1 Bft) S 178 ° 0 min 0 W/m² 7,3 °C 8,8 °C 3,2 km/h (1 Bft)
09.02.2024 23:44 21,3 °C 8,8 °C 54 % 90 % 990,0 hPa 0,0 l/m² 1,8 km/h (1 Bft) S 178 ° 0 min 0 W/m² 7,3 °C 8,8 °C 4,8 km/h (1 Bft)
09.02.2024 23:46 21,3 °C 8,8 °C 54 % 90 % 990,0 hPa 0,0 l/m² 2,2 km/h (1 Bft) S 178 ° 0 min 0 W/m² 7,3 °C 8,8 °C 3,2 km/h (1 Bft)
09.02.2024 23:48 21,3 °C 8,8 °C 54 % 90 % 990,0 hPa 0,0 l/m² 0,5 km/h (0 Bft) S 178 ° 0 min 0 W/m² 7,3 °C 8,8 °C 1,6 km/h (1 Bft)
09.02.2024 23:50 21,3 °C 8,8 °C 54 % 90 % 990,0 hPa 0,0 l/m² 1,3 km/h (1 Bft) S 178 ° 0 min 0 W/m² 7,3 °C 8,8 °C 3,2 km/h (1 Bft)
09.02.2024 23:51 21,3 °C 8,8 °C 54 % 90 % 990,0 hPa 0,0 l/m² 1,2 km/h (1 Bft) S 178 ° 0 min 0 W/m² 7,3 °C 8,8 °C 3,2 km/h (1 Bft)
09.02.2024 23:52 21,2 °C 8,8 °C 54 % 90 % 990,1 hPa 0,0 l/m² 0,1 km/h (0 Bft) S 178 ° 0 min 0 W/m² 7,3 °C 8,8 °C 1,6 km/h (1 Bft)
09.02.2024 23:54 21,3 °C 8,8 °C 54 % 91 % 990,0 hPa 0,0 l/m² 1,4 km/h (1 Bft) S 178 ° 0 min 0 W/m² 7,4 °C 8,8 °C 3,2 km/h (1 Bft)
09.02.2024 23:56 21,2 °C 8,8 °C 54 % 91 % 990,1 hPa 0,0 l/m² 4,6 km/h (1 Bft) S 178 ° 0 min 0 W/m² 7,4 °C 8,8 °C 6,4 km/h (2 Bft)
09.02.2024 23:58 21,2 °C 8,8 °C 54 % 91 % 990,0 hPa 0,0 l/m² 5,4 km/h (2 Bft) S 178 ° 0 min 0 W/m² 7,4 °C 8,8 °C 8,0 km/h (2 Bft)
_ Min-Zeit 09:30 00:36 12:50 15:07 14:27 - 23:17 - - - - 00:36 01:18 23:17
Minimum _ 20,8 °C 1,9 °C 47 % 82 % 989,2 hPa - 0,0 km/h (0 Bft) - - - - 1,0 °C -3,9 °C 0,0 km/h (0 Bft)
_ Max-Zeit 22:34 13:57 23:58 11:12 00:00 08:28 14:13 - - 15:35 12:14 13:43 15:13 13:51
Maximum _ 21,6 °C 13,3 °C 54 % 97 % 995,6 hPa 0,2 l/m² 19,4 km/h
S-SW (3 Bft)
- - 2 min 418 W/m² 10,7 °C 13,0 °C 30,6 km/h
S-SO (5 Bft)
Durchschnitt _ 21,0 °C 7,7 °C 49 % 90 % 990,8 hPa #3,0 l/m² 5,6 km/h (2 Bft) O - #5:35 h 50 W/m² 6,1 °C 6,8 °C 8,4 km/h (2 Bft)
© 2009 Mathias Hoßbach